[[{"header":{"parameterUnit":"m.s-1","parameterCategory":1,"la1":30.6,"la2":29.2853,"lo1":-89.7004,"lo2":-87.6739,"dy":0.0162,"dx":0.0183,"nx":112,"ny":82,"refTime":"2023-09-07T06:00:00:Z","depth":0,"parameterNumber":2,"parameterNumberName":"U-component_of_WINDS"},"data":[0.0,0.0,0.0,0.0,0.0,0.0,0.0,0.0,0.0,0.0,0.0,0.0,0.0,0.0,0.0,0.0,0.0,0.0,0.0,0.0,0.0,0.0,0.0,0.0,0.0,0.0,0.0,0.0,0.0,0.0,0.0,0.0,0.0,0.0,0.0,0.0,0.0,0.0,0.0,0.0,0.0,0.0,0.0,0.0,0.0,0.0,0.0,0.0,0.0,0.0,0.0,0.0,0.0,0.0,0.0,0.0,0.0,0.0,0.0,0.0,0.0,0.0,0.0,0.0,0.0,0.0,0.0,0.0,0.0,0.0,0.0,0.0,0.0,0.0,0.0,0.0,0.0,0.0,0.0,0.0,0.0,0.0,0.0,0.0,0.0,0.0,0.0,0.0,0.0,0.0,2.9294,2.9833,3.1083,3.216,3.2833,3.0487,2.869,2.7948,0.0,0.0,0.0,0.0,0.0,0.0,0.0,0.0,0.0,0.0,0.0,0.0,0.0,0.0,0.0,0.0,0.0,0.0,0.0,0.0,0.0,0.0,0.0,0.0,0.0,0.0,0.0,0.0,0.0,0.0,0.0,0.0,0.0,0.0,0.0,0.0,0.0,0.0,0.0,0.0,0.0,0.0,0.0,0.0,0.0,0.0,0.0,0.0,0.0,0.0,0.0,0.0,0.0,0.0,0.0,0.0,0.0,0.0,0.0,0.0,0.0,0.0,0.0,0.0,0.0,0.0,0.0,0.0,0.0,0.0,0.0,0.0,0.0,0.0,0.0,0.0,0.0,0.0,0.0,0.0,0.0,0.0,0.0,0.0,0.0,0.0,0.0,0.0,0.0,0.0,0.0,0.0,0.0,0.0,0.0,0.0,0.0,0.0,0.0,0.0,0.0,0.0,0.0,0.0,3.0198,3.3122,3.3006,3.2776,3.2891,2.9948,2.8044,2.7909,0.0,0.0,0.0,0.0,0.0,0.0,0.0,0.0,0.0,0.0,0.0,0.0,0.0,0.0,0.0,0.0,0.0,0.0,0.0,0.0,0.0,0.0,0.0,0.0,0.0,0.0,0.0,0.0,0.0,0.0,0.0,0.0,0.0,0.0,0.0,0.0,0.0,0.0,0.0,0.0,0.0,0.0,0.0,0.0,0.0,0.0,0.0,0.0,0.0,0.0,0.0,0.0,0.0,0.0,0.0,0.0,0.0,0.0,0.0,0.0,0.0,0.0,0.0,0.0,0.0,0.0,0.0,0.0,0.0,0.0,0.0,0.0,0.0,0.0,0.0,0.0,0.0,0.0,0.0,0.0,0.0,0.0,0.0,0.0,0.0,0.0,0.0,0.0,0.0,0.0,0.0,0.0,0.0,0.0,0.0,0.0,0.0,0.0,0.0,0.0,0.0,0.0,0.0,2.9198,3.0583,3.4487,3.3314,3.2429,3.2852,2.986,2.7937,2.789,2.6823,0.0,0.0,0.0,0.0,0.0,0.0,0.0,0.0,0.0,0.0,0.0,0.0,0.0,0.0,0.0,0.0,0.0,0.0,0.0,0.0,0.0,0.0,0.0,0.0,0.0,0.0,0.0,0.0,0.0,0.0,0.0,0.0,0.0,0.0,0.0,0.0,0.0,0.0,0.0,0.0,0.0,0.0,0.0,0.0,0.0,0.0,0.0,0.0,0.0,0.0,0.0,0.0,0.0,0.0,0.0,0.0,0.0,0.0,0.0,0.0,0.0,0.0,0.0,0.0,0.0,0.0,0.0,0.0,0.0,0.0,0.0,0.0,0.0,0.0,0.0,0.0,0.0,0.0,0.0,0.0,0.0,0.0,0.0,0.0,0.0,0.0,0.0,0.0,0.0,0.0,0.0,0.0,0.0,0.0,0.0,0.0,0.0,0.0,0.0,0.0,0.0,0.0,3.0583,3.141,3.5122,3.3391,3.2237,3.2852,2.9879,2.7956,2.789,2.6409,0.0,0.0,0.0,0.0,0.0,0.0,0.0,0.0,0.0,0.0,0.0,0.0,0.0,0.0,0.0,0.0,0.0,0.0,0.0,0.0,0.0,0.0,0.0,0.0,0.0,0.0,0.0,0.0,0.0,0.0,0.0,0.0,0.0,0.0,0.0,0.0,0.0,0.0,0.0,0.0,0.0,0.0,0.0,0.0,0.0,0.0,0.0,0.0,0.0,0.0,0.0,0.0,0.0,0.0,0.0,0.0,0.0,0.0,0.0,0.0,0.0,0.0,0.0,0.0,0.0,0.0,0.0,0.0,0.0,0.0,0.0,0.0,0.0,0.0,0.0,0.0,0.0,0.0,0.0,0.0,0.0,0.0,0.0,0.0,0.0,0.0,0.0,0.0,0.0,0.0,0.0,0.0,0.0,0.0,0.0,0.0,0.0,0.0,0.0,0.0,0.0,0.0,3.1737,3.3372,3.5295,3.3891,3.2833,3.2891,2.9833,2.7909,2.789,2.6332,0.0,0.0,0.0,0.0,0.0,0.0,0.0,0.0,0.0,0.0,0.0,0.0,0.0,0.0,0.0,0.0,0.0,0.0,0.0,0.0,0.0,0.0,0.0,0.0,0.0,0.0,0.0,0.0,0.0,0.0,0.0,0.0,0.0,0.0,0.0,0.0,0.0,0.0,0.0,0.0,0.0,0.0,0.0,0.0,0.0,0.0,0.0,0.0,0.0,0.0,0.0,0.0,0.0,0.0,0.0,0.0,0.0,0.0,0.0,0.0,0.0,0.0,0.0,0.0,0.0,0.0,0.0,0.0,0.0,0.0,0.0,0.0,0.0,0.0,0.0,0.0,0.0,0.0,0.0,0.0,0.0,0.0,0.0,0.0,0.0,0.0,0.0,0.0,0.0,0.0,0.0,0.0,0.0,0.0,0.0,0.0,0.0,0.0,0.0,0.0,0.0,0.0,3.1429,3.3006,3.5257,3.3487,3.2352,3.2852,3.034,2.8483,2.7928,0.0,0.0,0.0,0.0,0.0,0.0,0.0,0.0,0.0,0.0,0.0,0.0,0.0,0.0,0.0,0.0,0.0,0.0,0.0,0.0,0.0,0.0,0.0,0.0,0.0,0.0,0.0,0.0,0.0,0.0,0.0,0.0,0.0,0.0,0.0,0.0,0.0,0.0,0.0,0.0,0.0,0.0,0.0,0.0,0.0,0.0,0.0,0.0,0.0,0.0,0.0,0.0,0.0,0.0,0.0,0.0,0.0,0.0,0.0,0.0,0.0,0.0,0.0,0.0,0.0,0.0,0.0,0.0,0.0,0.0,0.0,0.0,0.0,0.0,0.0,0.0,0.0,0.0,0.0,0.0,0.0,0.0,0.0,0.0,0.0,0.0,0.0,0.0,0.0,0.0,0.0,0.0,0.0,0.0,0.0,0.0,0.0,0.0,0.0,0.0,0.0,0.0,3.0602,3.1795,3.3276,3.5315,3.3474,3.2352,3.291,3.0655,2.8933,2.8313,0.0,0.0,0.0,0.0,0.0,0.0,0.0,0.0,0.0,0.0,0.0,0.0,0.0,0.0,0.0,0.0,0.0,0.0,0.0,0.0,0.0,0.0,0.0,0.0,0.0,0.0,0.0,0.0,0.0,0.0,0.0,0.0,0.0,0.0,0.0,0.0,0.0,0.0,0.0,0.0,0.0,0.0,0.0,0.0,0.0,0.0,0.0,0.0,0.0,0.0,0.0,0.0,0.0,0.0,0.0,0.0,0.0,0.0,0.0,0.0,0.0,0.0,0.0,0.0,0.0,0.0,0.0,0.0,0.0,0.0,0.0,0.0,0.0,0.0,0.0,0.0,0.0,0.0,0.0,0.0,0.0,0.0,0.0,0.0,0.0,0.0,0.0,0.0,0.0,0.0,0.0,0.0,0.0,0.0,0.0,0.0,0.0,0.0,0.0,0.0,0.0,0.0,3.1487,3.316,3.4564,3.5507,3.4038,3.3032,3.3108,3.0706,2.9183,0.0,0.0,0.0,0.0,0.0,0.0,0.0,0.0,0.0,0.0,0.0,0.0,0.0,0.0,0.0,0.0,0.0,0.0,0.0,0.0,0.0,0.0,0.0,0.0,0.0,0.0,0.0,0.0,0.0,0.0,0.0,0.0,0.0,0.0,0.0,0.0,0.0,0.0,0.0,0.0,0.0,0.0,0.0,0.0,0.0,0.0,0.0,0.0,0.0,0.0,0.0,0.0,0.0,0.0,0.0,0.0,0.0,0.0,0.0,0.0,0.0,0.0,0.0,0.0,0.0,0.0,0.0,0.0,0.0,0.0,0.0,0.0,0.0,0.0,0.0,0.0,0.0,0.0,0.0,0.0,0.0,0.0,0.0,0.0,0.0,0.0,0.0,0.0,0.0,0.0,0.0,0.0,0.0,0.0,0.0,0.0,0.0,0.0,0.0,0.0,0.0,0.0,0.0,3.1545,3.3699,3.5238,3.5565,3.4038,3.3049,3.3158,3.1292,2.9848,2.9202,0.0,0.0,0.0,0.0,0.0,0.0,0.0,0.0,0.0,0.0,0.0,0.0,0.0,0.0,0.0,0.0,0.0,0.0,0.0,0.0,0.0,0.0,0.0,0.0,0.0,0.0,0.0,0.0,0.0,0.0,0.0,0.0,0.0,0.0,0.0,0.0,0.0,0.0,0.0,0.0,0.0,0.0,0.0,0.0,0.0,0.0,0.0,0.0,0.0,0.0,0.0,0.0,0.0,0.0,0.0,0.0,0.0,0.0,0.0,0.0,0.0,0.0,0.0,0.0,0.0,0.0,0.0,0.0,0.0,0.0,0.0,0.0,0.0,0.0,0.0,0.0,0.0,0.0,0.0,0.0,0.0,0.0,0.0,0.0,0.0,0.0,0.0,0.0,0.0,0.0,0.0,0.0,0.0,0.0,0.0,0.0,0.0,0.0,0.0,0.0,0.0,0.0,3.2064,3.4122,3.5545,3.5603,3.4087,3.3112,3.3189,3.1592,3.0341,2.9783,0.0,0.0,0.0,0.0,0.0,0.0,0.0,0.0,0.0,0.0,0.0,0.0,0.0,0.0,0.0,0.0,0.0,0.0,0.0,0.0,0.0,0.0,0.0,0.0,0.0,0.0,0.0,0.0,0.0,0.0,0.0,0.0,0.0,0.0,0.0,0.0,0.0,0.0,0.0,0.0,0.0,0.0,0.0,0.0,0.0,0.0,0.0,0.0,0.0,0.0,0.0,0.0,0.0,0.0,0.0,0.0,0.0,0.0,0.0,0.0,0.0,0.0,0.0,0.0,0.0,0.0,0.0,0.0,0.0,0.0,0.0,0.0,0.0,0.0,0.0,0.0,0.0,0.0,0.0,0.0,0.0,0.0,0.0,0.0,0.0,0.0,0.0,0.0,0.0,0.0,0.0,0.0,0.0,0.0,0.0,0.0,0.0,0.0,0.0,0.0,0.0,0.0,3.3026,3.4526,3.5565,3.5699,3.4187,3.3195,3.3211,3.1651,3.0673,3.0616,0.0,0.0,0.0,0.0,0.0,0.0,0.0,0.0,0.0,0.0,0.0,0.0,0.0,0.0,0.0,0.0,0.0,0.0,0.0,0.0,0.0,0.0,0.0,0.0,0.0,0.0,0.0,0.0,0.0,0.0,0.0,0.0,0.0,0.0,0.0,0.0,0.0,0.0,0.0,0.0,0.0,0.0,0.0,0.0,0.0,0.0,0.0,0.0,0.0,0.0,0.0,0.0,0.0,0.0,0.0,0.0,0.0,0.0,0.0,0.0,3.1333,3.1429,0.0,0.0,0.0,0.0,0.0,0.0,0.0,0.0,0.0,0.0,0.0,0.0,0.0,0.0,0.0,0.0,0.0,0.0,0.0,0.0,0.0,0.0,0.0,0.0,0.0,0.0,0.0,0.0,0.0,0.0,0.0,0.0,0.0,0.0,0.0,0.0,0.0,0.0,0.0,0.0,3.468,3.5276,3.5795,3.6535,3.4462,3.3103,3.3269,3.1644,3.0637,3.0677,3.0014,0.0,0.0,0.0,0.0,0.0,0.0,0.0,0.0,0.0,0.0,0.0,0.0,0.0,0.0,0.0,0.0,0.0,0.0,0.0,0.0,0.0,0.0,0.0,0.0,0.0,0.0,0.0,0.0,0.0,0.0,0.0,0.0,0.0,0.0,0.0,0.0,0.0,0.0,0.0,0.0,0.0,0.0,0.0,0.0,0.0,0.0,0.0,0.0,0.0,0.0,0.0,0.0,0.0,0.0,0.0,0.0,0.0,0.0,0.0,3.2641,3.2275,0.0,0.0,0.0,0.0,0.0,0.0,0.0,0.0,0.0,0.0,0.0,0.0,0.0,0.0,0.0,0.0,0.0,0.0,0.0,0.0,0.0,0.0,0.0,0.0,0.0,0.0,0.0,0.0,0.0,0.0,0.0,0.0,0.0,0.0,0.0,0.0,0.0,0.0,0.0,0.0,3.5218,3.5853,3.6257,3.6752,3.5276,3.3975,3.3304,3.2045,3.1148,3.082,3.032,0.0,0.0,0.0,0.0,0.0,0.0,0.0,0.0,0.0,0.0,0.0,0.0,0.0,0.0,0.0,0.0,0.0,0.0,0.0,0.0,0.0,0.0,0.0,0.0,0.0,0.0,0.0,0.0,0.0,0.0,0.0,0.0,0.0,0.0,0.0,0.0,0.0,0.0,0.0,0.0,0.0,0.0,0.0,0.0,0.0,0.0,0.0,0.0,0.0,0.0,0.0,0.0,0.0,3.4957,3.5603,3.618,3.6315,3.6372,3.6276,3.4699,3.3757,3.3282,3.2398,0.0,0.0,0.0,0.0,0.0,0.0,0.0,0.0,0.0,0.0,0.0,0.0,0.0,0.0,0.0,0.0,0.0,0.0,0.0,0.0,0.0,0.0,3.0852,3.0852,3.0852,3.0852,3.0852,0.0,0.0,0.0,0.0,0.0,0.0,0.0,0.0,0.0,0.0,0.0,3.5718,3.6392,3.6757,3.6911,3.5988,3.4757,3.3295,3.2439,3.1658,3.0918,3.0781,3.0723,0.0,0.0,0.0,0.0,0.0,0.0,0.0,0.0,0.0,0.0,0.0,0.0,0.0,0.0,0.0,0.0,0.0,0.0,0.0,0.0,0.0,0.0,0.0,0.0,0.0,0.0,0.0,0.0,0.0,0.0,0.0,0.0,3.0238,2.9568,0.0,0.0,0.0,0.0,0.0,0.0,0.0,0.0,0.0,0.0,0.0,0.0,0.0,3.3756,3.4552,3.6131,3.6625,3.609,3.8508,3.9354,3.8815,3.9508,3.9835,3.9777,3.8854,0.0,3.5147,3.4999,0.0,0.0,0.0,0.0,0.0,0.0,0.0,0.0,0.0,0.0,0.0,0.0,0.0,0.0,0.0,0.0,0.0,0.0,0.0,0.0,0.0,0.0,3.2564,3.2564,3.2564,3.2564,3.2564,3.1429,3.0398,3.0398,3.0398,3.0641,0.0,0.0,0.0,0.0,0.0,0.0,3.745,3.7103,3.6988,3.7757,3.5757,3.4026,3.3096,3.2341,3.1578,3.0781,3.082,3.082,3.0703,3.0582,0.0,0.0,0.0,0.0,0.0,0.0,0.0,0.0,0.0,0.0,0.0,0.0,0.0,0.0,0.0,0.0,0.0,0.0,0.0,0.0,0.0,0.0,0.0,0.0,0.0,0.0,0.0,0.0,0.0,3.0146,3.0456,3.012,3.0275,3.0261,0.0,0.0,0.0,0.0,0.0,0.0,0.0,0.0,0.0,3.5778,3.6179,3.6635,3.7127,3.8346,3.9014,3.9166,4.0175,4.0705,4.0819,4.1182,4.1435,4.1589,4.1245,4.0319,3.8877,3.6846,3.5844,3.5512,0.0,0.0,0.0,0.0,3.4757,3.4507,3.5449,3.4603,3.3237,3.4083,0.0,0.0,0.0,0.0,0.0,0.0,0.0,3.3218,3.3718,3.4103,3.4372,3.4372,3.4372,3.4372,3.4372,3.3795,3.2987,3.2006,3.1814,3.1929,3.2314,3.2372,0.0,0.0,0.0,3.6796,3.8507,3.8796,3.8623,3.8065,3.7007,3.5628,3.3871,3.3048,3.2285,3.1484,3.1094,3.0879,3.0801,3.0742,3.0675,0.0,0.0,0.0,0.0,0.0,0.0,0.0,0.0,0.0,0.0,0.0,0.0,0.0,0.0,0.0,0.0,0.0,0.0,0.0,0.0,0.0,0.0,0.0,0.0,0.0,0.0,0.0,0.0,3.046,3.1061,3.0918,3.1396,3.151,0.0,0.0,0.0,0.0,0.0,0.0,3.6387,3.6438,3.6924,3.8011,3.8694,3.9176,3.9539,4.0414,4.1218,4.1949,4.192,4.2267,4.2928,4.2928,4.3064,4.3291,4.3062,4.2756,4.2203,3.9057,3.7747,3.7589,3.6795,3.66,3.6853,3.745,3.7296,3.6969,3.82,3.7123,3.5315,3.6199,3.5295,3.391,3.4141,0.0,0.0,0.0,0.0,3.5372,3.6257,3.6642,3.6738,3.6526,3.6642,3.6661,3.6238,3.6315,3.5911,3.3949,3.3564,3.3622,3.3833,3.3872,0.0,3.6219,3.7161,3.8142,3.9431,4.0123,3.9931,3.8488,3.8123,3.707,3.4807,3.4128,3.3297,3.2057,3.1503,3.1133,3.0918,3.0801,3.0742,3.0703,0.0,0.0,0.0,0.0,0.0,0.0,0.0,0.0,0.0,0.0,0.0,0.0,0.0,0.0,0.0,0.0,0.0,0.0,0.0,0.0,0.0,0.0,0.0,0.0,0.0,0.0,0.0,0.0,0.0,3.1786,3.3529,0.0,0.0,0.0,0.0,3.4761,3.5652,3.663,3.7731,3.8505,3.944,4.0578,4.0653,4.1054,4.1814,4.2687,4.3312,4.3683,4.4503,4.507,4.5416,4.5416,4.5433,4.5395,4.4568,4.4184,4.4047,4.2261,4.1066,4.0296,4.0258,4.0239,4.0239,4.0277,4.0277,4.0258,4.0335,3.9238,3.795,3.8834,3.793,3.6661,3.7488,3.6642,0.0,0.0,3.7815,3.8007,3.8873,3.9681,4.0046,3.9277,3.9681,3.9796,3.8219,3.8527,3.8373,3.5872,3.5372,3.5622,3.6392,0.0,3.7103,3.8854,3.9777,4.0335,4.0431,4.0469,4.0181,3.9315,3.8488,3.7296,3.5589,3.5526,3.4508,3.2052,3.2055,3.1758,3.0937,3.0898,3.082,3.0703,3.0692,0.0,0.0,0.0,0.0,0.0,0.0,0.0,0.0,0.0,0.0,0.0,0.0,0.0,0.0,0.0,0.0,0.0,0.0,0.0,0.0,0.0,0.0,0.0,0.0,0.0,0.0,0.0,0.0,3.5393,3.6305,0.0,3.5956,3.6076,3.6583,3.7571,3.8405,3.9826,4.2047,4.2221,4.2917,4.436,4.4397,4.4528,4.4838,4.5137,4.5357,4.5472,4.5555,4.5674,4.5806,4.5806,4.5651,4.5323,4.528,4.509,4.4805,4.44,4.3431,4.2162,4.2162,4.2162,4.2162,4.2162,4.2162,4.2162,4.2162,4.1412,4.0412,4.0142,3.9642,3.92,3.9508,3.9181,3.895,4.0123,4.045,4.0662,4.1527,4.195,4.2104,4.1816,4.195,4.2008,4.1412,4.1527,4.147,4.0566,3.9065,3.7853,3.7584,3.843,3.9354,3.9969,4.1258,4.2162,4.2162,4.2162,4.1623,4.0219,3.9335,3.8142,3.643,3.5892,3.5048,3.3667,3.2639,3.1973,3.1758,3.1191,3.0879,3.082,3.0823,3.0754,0.0,0.0,0.0,0.0,0.0,0.0,0.0,0.0,0.0,0.0,0.0,0.0,0.0,0.0,0.0,0.0,0.0,0.0,0.0,0.0,0.0,0.0,0.0,0.0,0.0,3.5559,3.6915,3.7801,3.853,3.881,3.8352,3.8781,3.9528,4.0507,4.1322,4.2723,4.4864,4.4748,4.5268,4.6601,4.636,4.636,4.6638,4.636,4.6279,4.6392,4.6163,4.6147,4.6264,4.6264,4.6113,4.5802,4.5801,4.5628,4.5318,4.5275,4.4612,4.3637,4.3861,4.3932,4.3932,4.3932,4.3932,4.3893,4.3605,4.3124,4.2508,4.1643,4.1373,4.1431,4.17,4.1585,4.1623,4.2758,4.2874,4.2835,4.372,4.3932,4.3874,4.3566,4.372,4.3797,4.322,4.3316,4.3412,4.3143,4.1739,4.0392,3.9815,4.0642,4.147,4.1739,4.2758,4.3508,4.3508,4.3508,4.2951,4.1527,4.0642,3.945,3.7719,3.7142,3.608,3.4187,3.3324,3.2539,3.1797,3.1484,3.1191,3.0918,3.0907,3.097,3.108,0.0,0.0,0.0,0.0,0.0,0.0,0.0,0.0,0.0,0.0,0.0,0.0,0.0,0.0,0.0,0.0,0.0,0.0,0.0,0.0,0.0,0.0,0.0,3.5174,3.7276,3.8799,3.8891,4.0267,4.0928,4.0157,4.1497,4.2745,4.3534,4.4323,4.5149,4.5975,4.6012,4.6379,4.7205,4.6471,4.6416,4.7186,4.6397,4.6153,4.6466,4.6466,4.6638,4.7043,4.7043,4.7043,4.6968,4.6166,4.579,4.5714,4.4938,4.458,4.4657,4.5342,4.5586,4.5586,4.5605,4.5586,4.547,4.4624,4.4335,4.4201,4.3431,4.3181,4.3316,4.4105,4.3797,4.3528,4.5143,4.4989,4.4528,4.5374,4.5586,4.5374,4.4528,4.4989,4.5163,4.3528,4.3797,4.4105,4.3335,4.3181,4.3162,4.3104,4.3143,4.3431,4.4182,4.4316,0.0,4.4335,4.4316,4.3989,4.322,4.2335,4.1123,3.9431,3.933,3.7623,3.3541,3.4116,3.3515,3.1074,3.1797,3.1836,3.0996,3.0989,3.1328,3.2042,0.0,0.0,0.0,0.0,0.0,0.0,0.0,0.0,0.0,0.0,0.0,0.0,0.0,0.0,0.0,0.0,0.0,0.0,0.0,0.0,0.0,3.7484,3.941,3.941,4.0029,4.1093,4.2855,4.3442,4.3864,4.4213,4.4654,4.5241,4.6067,4.6342,4.7076,4.8489,4.8563,4.8948,4.9774,4.9572,4.9279,4.8912,4.8673,4.8309,4.7795,4.7795,4.7849,4.7938,4.7938,4.7624,4.7032,4.6494,4.5891,4.5335,4.4812,4.458,4.4631,4.5074,4.5243,4.5282,4.5513,4.5586,4.5566,4.5316,4.524,4.5201,4.497,4.4913,4.4951,4.5182,4.5086,4.5009,4.547,4.5432,4.5297,4.5528,4.5586,4.5528,4.5297,4.5432,4.547,4.5009,4.5086,4.5182,4.4951,4.4913,4.4528,4.3316,4.4105,4.4759,4.4355,4.4836,4.524,4.524,4.4682,4.422,4.3989,4.2681,4.1123,3.9431,3.8738,3.7416,3.5168,3.4706,3.3988,3.2754,3.2949,3.2969,3.2715,3.2652,3.2752,0.0,0.0,0.0,0.0,0.0,0.0,0.0,0.0,0.0,0.0,0.0,0.0,0.0,0.0,0.0,0.0,0.0,0.0,0.0,0.0,0.0,0.0,4.0065,4.1974,4.2983,4.2837,4.3259,4.5002,4.5516,4.5902,4.6361,4.7003,4.7609,4.8104,4.8471,4.9077,5.005,5.0086,5.0472,5.1279,5.0986,5.0729,5.06,4.9921,4.9334,4.8838,4.8471,4.8306,4.8306,4.8306,4.8049,4.7553,4.6576,4.5938,4.5416,4.45,4.4154,4.4213,0.0,0.0,0.0,0.0,4.5476,4.5586,4.5586,4.5586,4.5586,4.5586,4.5586,4.5586,4.5586,4.5586,4.5586,4.5586,4.5586,4.5586,4.5586,4.5586,4.5586,4.5586,4.5586,4.5586,4.5586,4.5586,4.5586,4.5586,4.5586,0.0,4.4316,4.4951,4.5432,4.4913,4.5278,4.5586,4.5586,4.5163,4.4701,4.4335,4.3124,4.1527,3.9469,3.8834,0.0,0.0,0.0,3.4686,3.3965,3.3594,0.0,0.0,0.0,3.3539,3.3939,3.3915,0.0,0.0,3.405,3.4061,0.0,0.0,0.0,0.0,0.0,0.0,0.0,0.0,0.0,0.0,0.0,0.0,0.0,0.0,0.0,0.0,4.2525,4.3516,4.5847,4.5571,4.5369,4.6085,4.6893,4.7443,4.7517,4.882,4.9701,4.9848,5.0527,5.0967,5.1077,5.1077,0.0,0.0,0.0,5.1334,5.1848,5.0527,4.9756,4.9572,4.882,4.8453,4.8434,4.8343,4.8306,4.8233,4.6691,4.5975,4.5773,4.425,4.3571,4.3563,4.4308,4.4707,4.4865,4.5071,4.5342,4.5586,4.5568,0.0,0.0,4.5568,4.5568,4.5586,4.5586,4.5586,4.5586,4.5586,4.5586,4.5586,4.5586,4.5586,4.5586,4.5586,4.5586,4.5586,4.5586,4.5586,4.5586,4.5586,4.5586,4.5586,4.5586,4.5586,4.5586,4.5586,4.5586,4.5586,4.5586,4.5586,4.5259,4.4393,4.3585,0.0,3.9642,3.9258,3.7911,3.496,3.5282,3.5359,3.4863,3.4004,3.3965,3.4824,3.4082,3.4062,3.4844,3.4853,3.523,3.5976,3.5156,3.5178,0.0,0.0,0.0,0.0,0.0,0.0,0.0,0.0,0.0,0.0,0.0,0.0,0.0,0.0,0.0,4.2176,4.3938,4.5828,4.759,4.77,4.7664,4.7829,4.8581,4.937,5.0031,5.038,5.082,5.1481,5.1665,5.205,5.2711,5.2747,5.2821,5.2968,5.2821,5.2197,5.1041,5.1371,5.0875,4.9591,4.9426,0.0,4.9315,4.8618,4.8306,4.8251,4.7297,4.6507,4.5828,4.4856,4.4085,4.3563,4.4308,4.5361,4.6378,4.5726,4.5531,4.5568,4.5302,4.5362,4.5568,4.5283,4.5381,4.5586,4.5586,4.5586,0.0,4.5586,4.5586,4.5586,4.5586,4.5586,4.5586,4.5586,4.5586,4.5586,4.5586,4.5586,4.5586,4.5586,4.5586,4.5586,4.5586,4.5586,4.5586,4.5586,4.5586,4.5586,4.5586,4.5586,4.5259,4.4393,4.3585,4.2335,4.0431,3.9027,3.7719,3.6502,3.5418,3.5095,3.5723,3.4902,3.4863,3.5723,3.5586,3.5586,3.5742,3.5755,3.5833,3.5996,3.5801,3.5817,0.0,0.0,0.0,0.0,0.0,0.0,0.0,0.0,0.0,0.0,0.0,3.9423,3.9827,0.0,4.3901,4.5112,4.6673,4.8159,4.9389,4.9903,4.9994,4.9609,5.0288,5.0949,5.1353,5.1756,5.2179,5.2564,5.2601,5.2784,5.3188,5.3206,5.3206,5.3206,5.3206,5.2821,5.2013,5.1995,5.1591,5.0784,4.9958,4.9591,4.9554,4.8691,4.8086,4.7664,4.6856,4.6049,4.5241,4.4433,4.4205,4.4378,4.4333,4.4903,4.5687,4.5249,4.5303,4.5568,4.5419,4.5457,4.5568,4.54,4.5457,4.5586,4.5586,4.5586,4.5586,4.5586,4.5586,4.5586,4.5586,4.5586,4.5586,4.5586,4.5586,4.5586,4.5586,4.5586,4.5586,4.5586,4.5586,4.5586,4.5586,4.5586,4.5586,4.5586,4.5586,4.5586,4.5586,4.5586,4.5259,4.4393,4.3585,4.2393,4.0642,3.8638,3.7324,3.6972,3.588,3.5488,3.5976,3.5586,3.5566,3.5996,3.5996,3.6211,3.6641,3.6211,3.6445,3.7285,3.6855,3.6426,0.0,0.0,0.0,0.0,0.0,0.0,0.0,3.9001,3.9166,4.0139,4.0965,4.1882,4.302,4.4562,4.6269,4.8214,4.926,5.0105,5.0912,5.1591,5.1811,5.1316,5.1848,5.2234,5.2234,5.2821,5.3206,5.3206,5.3206,5.3206,5.3206,5.3206,5.3206,5.3206,5.3206,5.3133,5.2968,5.2307,5.1903,5.1738,5.027,4.9591,4.9554,4.8691,4.7957,4.7297,4.6324,4.5535,4.4874,4.3901,4.4066,4.4904,4.4172,4.4136,4.4501,4.4553,4.4988,4.5495,4.5438,4.5495,4.5586,4.5513,4.555,4.5586,4.5586,4.5586,4.5586,4.5586,4.5586,4.5586,4.5586,4.5586,4.5586,4.5586,4.5586,4.5586,4.5586,4.5586,4.5586,4.5586,4.5586,4.5586,4.5586,4.5586,4.5586,4.5586,4.5586,4.5586,4.5586,4.5586,4.5259,4.4393,4.372,4.2566,4.0662,3.8561,3.7324,3.7261,3.654,3.6228,3.6484,3.6172,3.6074,3.625,3.625,3.6601,3.7305,3.6777,3.7226,3.8574,3.7871,3.7187,3.6229,3.7404,3.8854,3.9478,3.9625,4.0561,0.0,4.4415,4.4342,4.5865,4.6819,4.7205,4.6673,4.7884,4.904,4.9315,5.0105,5.0949,5.1738,5.194,5.2234,5.2876,5.3023,5.3078,5.3078,5.317,5.3206,5.3206,5.3206,5.3206,5.3206,5.3206,5.3206,5.3206,5.3206,5.2858,5.2142,5.2032,5.1628,5.093,5.0013,4.9591,4.9554,4.8691,4.8251,4.8086,4.6562,4.5847,4.5645,4.4121,4.3569,4.3692,4.36,4.3791,4.4117,4.4474,4.4849,4.5118,4.4825,4.5118,4.555,4.5243,4.5362,4.5586,4.5586,4.5586,4.5586,4.5586,4.5586,4.5586,4.5586,4.5586,4.5586,4.5586,4.5586,4.5586,4.5586,4.5586,4.5586,4.5586,4.5586,4.5586,4.5586,4.5586,4.5586,4.5586,4.5586,4.5586,4.5586,4.5586,4.5259,4.4393,4.422,4.3162,4.07,3.96,3.8787,3.8194,3.7355,3.7312,3.8262,3.6816,3.6367,3.7148,3.7148,3.7207,3.7305,3.7988,3.8418,3.8594,3.8496,3.8398,3.9533,3.9937,4.0524,4.2268,4.269,4.3387,4.6012,4.6342,4.6434,4.7572,4.8453,4.8912,4.8618,4.9866,5.0949,5.0949,5.1646,5.2325,5.2656,5.2711,5.2656,5.2527,5.2913,5.3206,5.3206,5.3628,5.3904,5.3904,5.3904,5.3904,5.3904,5.3463,5.3206,5.3206,5.3206,5.3041,5.2711,5.2234,5.183,5.1481,5.0196,4.9591,4.9554,4.8691,4.8049,4.7517,4.5902,4.5204,4.5112,4.3956,4.3497,4.3497,4.3497,4.3597,4.3758,4.4136,4.4482,4.48,4.465,4.4919,4.5302,4.5159,4.5322,4.5586,4.5586,4.5586,4.5586,4.5586,4.5586,4.5586,4.5586,4.5586,4.5586,4.5586,4.5586,4.5586,4.5586,4.5586,4.5586,4.5586,4.5586,4.5586,4.5586,4.5586,4.5586,4.5586,4.5586,4.5586,4.5586,4.5586,4.5259,4.4393,4.3874,4.297,4.1393,4.0046,3.9234,3.9061,3.8239,3.8005,3.8574,3.7891,3.7676,3.8047,3.8066,3.8301,3.8809,3.8672,3.9121,4.0098,3.959,3.9629,4.1313,4.1864,4.258,4.4544,4.5553,4.6416,4.781,4.8306,4.8691,4.9499,5.0105,5.0545,5.0582,5.1536,5.2325,5.2325,5.2821,5.3206,5.3206,5.3023,5.2656,5.2068,5.2325,5.2637,5.2858,5.3794,5.4491,5.4711,5.473,5.473,5.473,5.3977,5.3537,5.3537,5.3335,5.3206,5.3206,5.2399,5.1885,5.1646,5.0251,4.9462,4.9205,4.86,4.7865,4.704,4.5645,4.4911,4.4654,4.3828,4.3497,4.3497,4.3497,4.3497,4.3513,4.3772,4.4106,4.4428,4.4428,4.4657,4.4966,4.4966,4.5201,4.5457,4.5457,4.5513,4.5586,4.5586,4.5586,4.5586,4.5586,4.5586,4.5586,4.5586,4.5586,4.5586,4.5586,4.5586,4.5586,4.5586,4.5586,4.5586,4.5586,4.5586,4.5586,4.5586,4.5586,4.5586,4.5586,4.5586,4.5355,4.472,4.3912,4.3085,4.2239,4.0835,3.9969,3.9896,3.9121,3.8839,3.9258,3.8848,3.8711,3.8945,3.8965,3.9277,3.9902,3.9512,3.9961,4.1172,4.0547,4.0605,3.9955,4.2231,4.48,4.5645,4.7664,4.9664,5.0508,5.1279,5.2068,5.2894,5.3078,5.3096,5.3096,5.3133,5.317,5.317,5.3188,5.3206,5.3206,5.2527,5.2013,5.1995,5.1334,5.1187,5.1958,5.3463,5.4711,5.5482,5.5556,5.5556,5.5556,5.4803,5.4363,5.4363,5.361,5.3206,5.3206,5.2399,5.161,5.0839,4.9994,4.915,4.8343,4.8324,4.7865,4.7076,4.6232,4.5424,4.4654,4.3828,4.3497,4.3497,4.3497,4.3497,4.3497,4.3513,4.3726,4.4016,4.4016,4.4261,4.4624,4.4624,4.4849,4.5137,4.5137,4.5342,4.5586,4.5586,4.5586,4.5586,4.5586,4.5586,4.5586,4.5586,4.5586,4.5586,4.5586,4.5586,4.5586,4.5586,4.5586,4.5586,4.5586,4.5586,4.5586,4.5586,4.5586,4.5586,4.5586,4.5586,4.5586,4.5547,4.4778,4.3932,4.3124,4.2239,4.1412,4.0716,3.9973,3.9959,4.0898,3.9434,3.9004,3.9844,3.9863,3.9863,3.9902,4.0723,4.1152,4.1191,4.1172,4.1172,4.1708,4.3561,4.5597,4.8449,4.9774,5.0894,5.2766,5.2986,5.3023,5.383,5.2729,5.161,5.161,5.1169,5.0986,5.1518,5.2068,5.2399,5.2399,5.2637,5.2197,5.0582,5.1573,5.2289,5.2013,5.2968,5.394,5.473,5.5299,5.5354,5.4821,5.4546,5.4161,5.3628,5.3353,5.2949,5.2417,5.161,5.0802,4.9976,4.9132,4.8581,4.8306,4.8306,4.7865,4.7076,4.625,4.5443,4.4654,4.3828,4.3497,4.3497,4.3497,4.3497,4.3497,4.3497,4.3563,4.3679,4.3679,4.3912,4.4204,4.4204,4.4612,4.5096,4.5096,4.5342,4.5586,4.5586,4.5586,4.5586,4.5586,4.5586,4.5586,4.5586,4.5586,4.5586,4.5586,4.5586,4.5586,4.5586,4.5586,4.5586,4.5586,4.5586,4.5586,4.5586,4.5105,4.4951,4.5528,4.4624,4.4143,4.4682,4.3489,4.2527,4.2258,4.1431,4.0873,4.0716,4.0524,4.0567,4.0976,4.0566,4.0469,4.0762,4.0762,4.0762,4.0762,4.1055,4.1191,4.1191,4.1191,4.1191,4.3924,4.5496,4.6979,5.0373,5.1444,5.2068,5.3628,5.3573,5.328,5.35,5.2087,5.071,5.0417,4.9682,4.9205,4.9444,4.9921,5.0453,5.1041,5.1316,5.1206,5.0527,5.1573,5.2252,5.2013,5.2472,5.3335,5.473,5.5574,5.5666,5.4858,5.4821,5.4454,5.3665,5.3353,5.2821,5.1995,5.1481,5.0674,4.9572,4.8728,4.8306,4.8306,4.8306,4.7865,4.7076,4.625,4.5443,4.4654,4.3828,4.3497,4.3497,4.3497,4.3497,4.3497,4.3497,4.3497,4.3497,4.3497,4.3646,4.3836,4.3836,4.4233,4.4738,4.4896,4.5159,4.5438,4.5568,4.5586,4.5586,4.5586,4.5586,4.5586,4.5586,4.5586,4.5586,4.5586,4.5586,4.5586,4.5586,4.5586,4.5586,4.5586,4.5586,4.5586,4.5586,4.4855,4.4605,4.549,4.4662,4.4182,4.4701,4.3528,4.2585,4.2297,4.147,4.0873,4.0639,4.0735,4.0839,4.0912,4.1091,4.1191,4.1191,4.1191,4.1191,4.1191,4.1191,4.1191,4.1191,4.1191,4.1191,4.6342,4.7809,4.898,5.1403,5.2577,5.3164,5.3219,5.3164,5.2931,5.216,5.1261,5.0362,4.9554,4.8728,4.7957,4.7297,4.7204,4.7865,4.9481,4.904,4.9389,5.1665,5.1334,5.1206,5.1922,5.2032,5.3004,5.5299,5.6216,5.6326,5.5519,5.55,5.517,5.4363,5.3573,5.2747,5.194,5.1848,5.1022,4.9499,4.8691,4.8306,4.8306,4.8306,4.7847,4.7021,4.6232,4.5424,4.458,4.3809,4.3497,4.3497,4.3497,4.3497,4.3497,4.3497,4.3497,4.3479,4.3513,4.3513,4.3513,4.3548,4.3772,4.4117,4.4501,4.4872,4.5201,4.5513,4.5586,4.5586,4.5586,4.5586,4.5586,4.5586,4.5586,4.5586,4.5586,4.5586,4.5586,4.5586,4.5586,4.5586,4.5586,4.5586,4.5586,4.5586,4.4893,4.4662,4.549,4.549,4.5413,4.547,4.4643,4.3797,4.3028,4.222,4.1373,4.0546,4.0696,4.081,4.0813,4.1055,4.1191,4.1191,4.1191,4.1191,4.1191,4.1191,4.1191,4.1191,4.1191,4.1191,4.8208,4.9209,4.9984,5.1674,5.2236,5.2544,5.3124,5.2777,5.2252,5.2032,4.9903,4.781,4.6985,4.6654,4.6838,4.7847,4.9058,5.0215,5.1224,5.172,5.1756,5.1169,5.1995,5.2435,5.2032,5.2546,5.3151,5.3775,5.4564,5.4656,5.3849,5.4381,5.4344,5.3537,5.2729,5.1922,5.1114,4.9866,4.904,4.8636,4.8416,4.8306,4.8306,4.8306,4.7535,4.6195,4.5993,4.5094,4.3791,4.3571,4.3497,4.3497,4.3497,4.3497,4.3497,4.3497,4.3497,4.3548,4.3772,4.3881,4.3912,4.4223,4.4553,4.483,4.4943,4.5201,4.5495,4.5568,4.5586,4.5586,4.5586,4.5586,4.5586,4.5586,4.5586,4.5586,4.5586,4.5586,4.5586,4.5586,4.5586,4.5586,4.5586,4.5586,4.5586,4.5586,4.5413,4.5336,4.5566,4.3932,4.3028,4.3662,4.2374,4.1393,4.1181,4.095,4.0739,4.0508,4.0696,4.081,4.0813,4.1055,4.1191,4.1191,4.1191,4.1191,4.1191,4.1191,4.1191,4.1191,4.1191,4.1191,4.9951,5.0726,5.1156,5.2309,5.2326,5.209,5.2199,5.1566,5.0729,4.9994,4.8104,4.6342,4.5516,4.5369,4.5681,4.6581,4.781,4.9187,5.0692,5.1298,5.1793,5.2325,5.2876,5.317,5.3059,5.3151,5.3206,5.3206,5.3959,5.4051,5.3243,5.3628,5.35,5.2711,5.1885,5.1077,5.027,4.8967,4.8306,4.8306,4.8306,4.8122,4.7774,4.7774,4.7095,4.5883,4.5535,4.4856,4.3993,4.3644,4.3497,4.3497,4.3497,4.3497,4.3497,4.3497,4.3497,4.3548,4.3881,4.4117,4.429,4.4527,4.4726,4.4919,4.5052,4.5222,4.5419,4.5568,4.5586,4.5586,4.5586,4.5586,4.5586,4.5586,4.5586,4.5586,4.5586,4.5586,4.5586,4.5586,4.5586,4.5586,4.5586,4.5586,4.5586,4.5586,4.5586,4.5586,4.5586,4.4355,4.3662,4.4143,4.297,4.2008,4.1662,4.1296,4.0912,4.0508,4.0696,4.081,4.0813,4.1406,4.1562,4.1211,4.1543,4.1543,4.1191,4.1191,4.1191,4.1191,4.1191,4.1191,5.1555,5.21,5.2145,5.2731,5.2273,5.1467,5.068,4.979,4.8691,4.726,4.6232,4.5369,4.4672,4.4635,4.4782,4.4984,4.57,4.7058,4.9481,4.9829,5.093,5.3885,5.3628,5.3482,5.4179,5.361,5.317,5.3059,5.3794,5.3904,5.3096,5.3151,5.2784,5.1867,5.1059,5.0251,4.9426,4.8673,4.8306,4.8306,4.8306,4.7884,4.7113,4.7113,4.6617,4.57,4.5002,4.4654,4.4488,4.3791,4.3497,4.3497,4.3497,4.3497,4.3497,4.3497,4.3497,4.3548,4.3881,4.4261,4.4624,4.4657,4.4701,4.48,4.5074,4.518,4.5222,4.5513,4.5586,4.5586,4.5586,4.5586,4.5586,4.5586,4.5586,4.5586,4.5586,4.5586,4.5586,4.5586,4.5586,4.5586,4.5586,4.5586,4.5586,4.5586,4.5586,4.5586,4.5586,4.549,4.5374,4.5278,4.4489,4.3643,4.2816,4.2066,4.1296,4.0546,4.0696,4.081,4.0813,4.1738,4.1914,4.1211,4.1894,4.1894,4.1191,4.1191,4.1191,4.1191,4.1191,4.1191,5.2692,5.255,5.1945,5.142,5.0679,4.9901,4.9061,4.7678,4.6452,4.6177,4.4929,4.3864,4.3718,4.425,4.5149,4.6489,4.737,4.8746,5.1206,5.1555,5.2013,5.3261,5.3298,5.3261,5.339,5.3298,5.2931,5.2252,5.2949,5.3059,5.2252,5.2839,5.2546,5.1059,5.0215,4.9389,4.8526,4.8379,4.8306,4.8306,4.8306,4.7884,4.7113,4.7113,4.6324,4.4911,4.4764,4.4323,4.3699,4.3552,4.3497,4.3497,4.3497,4.3497,4.3497,4.3497,4.3497,4.3548,4.3881,4.4261,4.465,4.4919,4.5201,4.5438,4.5495,4.5513,4.5532,4.5586,4.5586,4.5586,4.5586,4.5586,4.5586,4.5586,4.5586,4.5586,4.5586,4.5586,4.5586,4.5586,4.5586,4.5586,4.5586,4.5586,4.5586,4.5586,4.5586,4.5586,4.5586,4.497,4.4259,4.3605,4.2758,4.1893,4.1008,4.0796,4.0662,4.0508,4.0696,4.081,4.0813,4.1192,4.1348,4.1191,4.1348,4.1348,4.1191,4.1191,4.1191,4.1191,4.1191,4.1191,5.2986,5.2937,5.2462,5.1661,5.0514,4.9294,4.8034,4.6503,4.5168,4.4727,4.403,4.3497,4.3497,4.4158,4.5094,4.6287,4.7168,4.8545,5.1022,5.1371,5.1977,5.3628,5.3463,5.3371,5.3794,5.3078,5.2601,5.2619,5.2601,5.2417,5.2013,5.2362,5.183,5.0215,4.9793,4.9169,4.8324,4.8306,4.8306,4.8306,4.8306,4.7884,4.7113,4.6673,4.5847,4.469,4.4268,4.3864,4.3497,4.3497,4.3497,4.3497,4.3497,4.3497,4.3497,4.3497,4.3497,4.3513,4.366,4.4125,4.465,4.48,4.5182,4.5586,4.5586,4.5586,4.5586,4.5586,4.5586,4.5586,4.5586,4.5586,4.5586,4.5586,4.5586,4.5586,4.5586,4.5586,4.5586,4.5586,4.5586,4.5586,4.5586,4.5586,4.5586,4.5586,4.5586,4.5586,4.5586,4.524,4.4643,4.3816,4.3355,4.2585,4.1296,4.1585,4.147,4.0546,4.1116,4.1274,4.0832,4.1894,4.209,4.1211,4.2051,4.207,4.1191,4.1191,4.1191,4.1191,4.1191,4.1191,5.2527,5.2821,5.2711,5.1701,5.0215,4.8618,4.7186,4.548,4.4066,4.3589,4.3351,4.3296,4.3461,4.4011,4.4709,4.5516,4.6177,4.7462,4.9921,5.0435,5.1371,5.361,5.3482,5.3463,5.4087,5.3004,5.2454,5.2913,5.2362,5.2068,5.2252,5.1756,5.1041,5.0123,4.9591,4.9077,4.8581,4.8398,4.8306,4.8306,4.8306,4.7884,4.7095,4.6269,4.5461,4.4672,4.3846,4.3497,4.3497,4.3497,4.3497,4.3497,4.3497,4.3497,4.3497,4.3497,4.3497,4.3513,4.3563,4.4035,4.4606,4.4682,4.5118,4.5586,4.5586,4.5586,4.5586,4.5586,4.5586,4.5586,4.5586,4.5586,4.5586,4.5586,4.5586,4.5586,4.5586,4.5586,4.5586,4.5586,4.5586,4.5586,4.5586,4.5586,4.5586,4.5586,4.5586,4.5586,4.5586,4.5586,4.5201,4.4143,4.4047,4.3355,4.1681,4.2143,4.197,4.0639,4.1347,4.1517,4.0878,4.2334,4.2539,4.123,4.248,4.2519,4.1191,4.1191,4.1289,4.1445,4.1289,4.1289,5.1004,5.1555,5.172,5.0123,4.8526,4.7095,4.6214,4.4195,4.2708,4.3351,4.291,4.2635,4.3369,4.3552,4.3864,4.469,4.4874,4.5773,4.8196,4.9205,5.0325,5.2013,5.2803,5.3243,5.3316,5.3188,5.2821,5.216,5.2032,5.2307,5.3059,5.1004,5.0398,5.1738,4.9591,4.8765,4.9462,4.8691,4.8306,4.8306,4.8306,4.7884,4.7095,4.6269,4.5461,4.4672,4.3846,4.3497,4.3497,4.3497,4.3497,4.3497,4.3497,4.3497,4.3497,4.3497,4.3497,4.3548,4.3849,4.4252,4.4631,4.4943,4.5302,4.5586,4.5586,4.5586,4.5586,4.5586,4.5586,4.5586,4.5586,4.5586,4.5586,4.5586,4.5586,4.5586,4.5586,4.5586,4.5586,4.5586,4.5586,4.5586,4.5586,4.5586,4.5586,4.5586,4.5586,4.5586,4.5586,4.5586,4.4989,4.3374,4.3201,4.2508,4.0758,4.0681,4.0735,4.0677,4.0831,4.0943,4.0988,4.1276,4.1367,4.1191,4.1348,4.1348,4.1191,4.1191,4.1582,4.2266,4.1543,4.1582,5.0527,5.1389,5.161,4.9958,4.7957,4.6287,4.5975,4.403,4.2525,4.3314,4.324,4.3112,4.3424,4.3497,4.3589,4.392,4.3975,4.4654,4.6581,4.715,4.8343,5.0967,5.1573,5.2142,5.3115,5.2766,5.2344,5.2013,5.2454,5.2858,5.3188,5.2289,5.1628,5.1279,5.0325,4.9499,4.882,4.8471,4.8306,4.8306,4.8306,4.8141,4.781,4.7003,4.6195,4.5388,4.458,4.3956,4.3497,4.3497,4.3497,4.3497,4.3497,4.3497,4.3497,4.3497,4.3497,4.3548,4.3881,4.4261,4.4676,4.4988,4.5322,4.5586,4.5586,4.5586,4.5586,4.5586,4.5586,4.5586,4.5586,4.5586,4.5586,4.5586,4.5586,4.5586,4.5586,4.5586,4.5586,4.5586,4.5586,4.5586,4.5586,4.5586,4.5586,4.5586,4.5586,4.5586,4.5586,4.5586,4.5143,4.3951,4.3816,4.2912,4.0681,4.145,4.1662,4.0754,4.1261,4.1654,4.1767,4.1875,4.1914,4.1914,4.1914,4.168,4.1191,4.1191,4.1367,4.168,4.1348,4.1367,4.904,5.0105,5.0582,4.9187,4.7003,4.5186,4.5186,4.3681,4.2451,4.302,4.3314,4.3497,4.3497,4.3497,4.3497,4.3497,4.3497,4.3975,4.5351,4.5755,4.6856,4.9407,4.9921,5.071,5.2344,5.2417,5.2344,5.2344,5.2656,5.2968,5.3206,5.2986,5.2435,5.1555,5.082,4.9994,4.9058,4.8563,4.8306,4.8306,4.8306,4.8306,4.8269,4.748,4.6673,4.5865,4.5057,4.425,4.3497,4.3497,4.3497,4.3497,4.3497,4.3497,4.3497,4.3497,4.3563,4.3693,4.4046,4.4428,4.4781,4.514,4.5419,4.5586,4.5586,4.5586,4.5586,4.5586,4.5586,4.5586,4.5586,4.5586,4.5586,4.5586,4.5586,4.5586,4.5586,4.5586,4.5586,4.5586,4.5586,4.5586,4.5586,4.5586,4.5586,4.5586,4.5586,4.5586,4.5586,4.5586,4.5259,4.4393,4.4528,4.3758,4.145,4.2393,4.2527,4.1212,4.1981,4.2451,4.2322,4.262,4.2656,4.2402,4.2656,4.2383,4.1543,4.1543,4.1699,4.1933,4.168,4.1543,4.5957,4.7131,4.8141,4.7352,4.5314,4.3516,4.3516,4.2892,4.2304,4.2304,4.2947,4.3497,4.3497,4.3497,4.3497,4.3497,4.3497,4.3773,4.4617,4.5406,4.6214,4.7058,4.7847,4.8985,5.0655,5.227,5.3206,5.3206,5.2454,5.2362,5.317,5.2454,5.2362,5.317,5.0857,4.9976,5.0765,4.9132,4.8306,4.8306,4.8306,4.8306,4.8269,4.748,4.6673,4.5865,4.5057,4.425,4.3497,4.3497,4.3497,4.3497,4.3497,4.3497,4.3497,4.3497,4.3693,4.4058,4.4447,4.4806,4.514,4.5495,4.5586,4.5586,4.5586,4.5586,4.5586,4.5586,4.5586,4.5586,4.5586,4.5586,4.5586,4.5586,4.5586,4.5586,4.5586,4.5586,4.5586,4.5586,4.5586,4.5586,4.5586,4.5586,4.5586,4.5586,4.5586,4.5586,4.5586,4.5586,4.5259,4.4393,4.5066,4.4893,4.322,4.3085,4.2813,4.2133,4.2906,4.3089,4.2421,4.3223,4.3281,4.2422,4.3242,4.3262,4.2383,4.2383,4.2832,4.3652,4.2793,4.2383,4.4103,4.5039,4.5663,4.4837,4.324,4.2158,4.324,4.2451,4.1791,4.2892,4.3314,4.3497,4.3497,4.3497,4.3497,4.3497,4.3497,4.3589,4.3828,4.5039,4.6397,4.7774,5.0141,5.1867,5.2399,5.2913,5.3206,5.3206,5.2968,5.2931,5.3206,5.2968,5.2692,5.238,5.1628,5.1096,5.0802,5.027,4.9738,4.9187,4.9187,4.8875,4.8306,4.8049,4.7498,4.6691,4.5883,4.5057,4.4287,4.3718,4.3497,4.3497,4.3497,4.3497,4.3513,4.3758,4.3912,4.4087,4.4732,4.5007,4.5159,4.5495,4.5586,4.5586,4.5586,4.5586,4.5586,4.5586,4.5586,4.5586,4.5586,4.5586,4.5586,4.5586,4.5586,4.5586,4.5586,4.5586,4.5586,4.5586,4.5586,4.5586,4.5586,4.5586,4.5586,4.5586,4.5586,4.5586,4.5586,4.5586,4.549,4.522,4.5432,4.4913,4.3239,4.3605,4.3643,4.3025,4.3244,4.3641,4.416,4.3867,4.3848,4.418,4.3281,4.2969,4.3281,4.2695,4.2851,4.3672,4.2812,4.2715,4.2286,4.3185,4.3681,4.3167,4.2066,4.1295,4.1974,4.1846,4.1754,4.2451,4.3075,4.3497,4.3497,4.3497,4.3497,4.3497,4.3497,4.3608,4.3901,4.5076,4.6507,4.8122,5.0674,5.2307,5.2307,5.2858,5.3206,5.3206,5.2931,5.2894,5.3188,5.2913,5.2656,5.2454,5.216,5.1756,5.1261,5.0949,5.0398,4.9591,4.9591,4.9132,4.8306,4.8306,4.77,4.6654,4.6452,4.5553,0.0,4.403,4.3754,4.3497,4.3497,4.3563,4.3726,4.3924,4.4175,4.4463,4.4943,4.518,4.5322,4.5531,4.5586,4.5586,4.5586,4.5586,4.5586,4.5586,4.5586,4.5586,4.5586,4.5586,4.5586,4.5586,4.5586,4.5586,4.5586,4.5586,4.5586,4.5586,4.5586,4.5586,4.5586,4.5586,4.5586,4.5586,4.5586,4.5586,4.5586,4.5586,4.5586,4.5586,4.5586,4.5182,4.4124,4.4547,4.4586,4.3932,4.4214,4.4592,4.498,4.4785,4.4785,4.5,4.4258,4.3984,4.4199,4.3652,4.3496,4.3691,4.3144,4.3183,0.0,4.1479,4.2047,4.2047,4.1479,4.0763,4.0065,4.1056,0.0,4.1332,4.2378,4.3424,4.3479,4.3497,4.3497,4.3497,4.3497,4.3773,4.4599,4.5535,4.6728,4.8288,4.9958,5.093,5.082,5.227,5.3206,5.3206,5.2509,5.2417,5.317,5.2491,5.2435,5.3188,5.2417,5.2013,5.2068,5.1279,5.0472,4.9664,4.9609,4.9132,4.8306,4.8306,4.7462,4.603,4.6783,4.5773,4.3626,4.4397,4.4232,4.3497,4.3497,4.3693,4.3998,4.4028,4.4489,4.5096,4.5137,4.5342,4.5586,4.5586,4.5586,4.5586,4.5586,4.5586,4.5586,4.5586,4.5586,4.5586,4.5586,4.5586,4.5586,4.5586,4.5586,4.5586,4.5586,4.5586,4.5586,4.5586,4.5586,4.5586,4.5586,4.5586,4.5586,4.5586,4.5586,4.5586,4.5586,4.5586,4.5586,4.5586,4.5586,4.5586,4.5605,4.5738,4.5507,4.4831,4.5603,4.5789,4.5117,4.5879,4.5918,4.5117,4.5898,4.5879,4.5,4.5,4.4629,4.3887,4.3828,4.3828,3.9166,0.0,3.9551,3.9551,3.9405,3.9386,0.0,4.0175,4.0763,4.1809,4.2323,4.2763,4.3387,4.3497,4.3497,4.3497,4.3497,4.3773,4.4599,4.6985,4.904,5.0086,5.1665,5.216,5.093,5.227,5.3206,5.3206,5.3023,5.3004,5.3206,5.3023,5.3004,5.3206,5.2417,5.2289,5.2913,5.2123,5.1298,5.0508,4.9884,4.9132,4.8306,4.8306,4.7774,4.6838,4.704,4.6085,4.4433,4.4635,4.4232,4.3497,4.3497,4.3693,4.4046,4.4364,4.4732,4.5137,4.5381,4.5531,4.5586,4.5586,4.5586,4.5586,4.5586,4.5586,4.5586,4.5586,4.5586,4.5586,4.5586,4.5586,4.5586,4.5586,4.5586,4.5586,4.5586,4.5586,4.5586,4.5586,4.5586,4.5586,4.5586,4.5586,4.5586,4.5586,4.5586,4.5586,4.5586,4.5586,4.5586,4.5586,4.5586,4.5624,4.5738,4.5776,4.5754,4.5634,4.5916,4.6072,4.5996,4.6191,4.6191,4.5996,4.6191,4.5879,4.5,4.5,4.5234,4.5664,4.5019,4.5058,3.8707,3.8707,3.8707,3.8707,3.8982,3.9276,3.9331,3.9918,4.0598,4.1093,4.1791,4.2433,4.2873,4.324,4.3497,4.3497,4.3809,4.447,4.5645,4.7315,4.9003,5.0618,5.1573,5.205,5.1922,5.2692,5.3206,5.3206,5.3206,5.3206,5.3206,5.3206,5.3206,5.3206,5.2417,5.2197,5.2656,5.1848,5.1041,5.0233,4.9793,4.9132,4.8306,4.8306,4.7664,4.6581,4.6948,4.5993,4.4176,4.4562,4.4232,4.3513,4.3679,4.3943,4.4318,4.4682,4.5033,4.5342,4.555,4.5586,4.5586,4.5586,4.5586,4.5586,4.5586,4.5586,4.5586,4.5586,4.5586,4.5586,4.5586,4.5586,4.5586,4.5586,4.5586,4.5586,4.5586,4.5586,4.5586,4.5586,4.5586,4.5586,4.5586,4.5586,4.5586,4.5586,4.5586,4.5586,4.5586,4.5586,4.5586,4.5586,4.5643,4.5719,4.5796,4.5873,4.5954,4.5984,4.6133,4.6229,4.6308,4.6308,4.6308,4.6308,4.6308,4.6074,4.5605,4.5605,4.5625,4.5703,4.5625,4.5625,3.8524,3.8707,3.8854,3.8726,3.9203,3.9533,3.8854,3.9753,4.0579,4.001,4.1075,4.2158,4.2286,4.2947,4.3497,4.3497,4.4378,4.5681,4.7443,4.7792,4.86,5.0563,5.1022,5.161,5.2747,5.3078,5.3206,5.3206,5.3206,5.3206,5.3206,5.3206,5.3206,5.3206,5.2307,5.1811,5.1811,5.1022,5.0343,4.9774,4.9499,4.9003,4.8306,4.8306,4.7425,4.5938,4.6764,4.5736,4.3552,4.4378,4.4248,4.3579,4.3881,4.4261,4.4707,4.5007,4.5322,4.5586,4.5586,4.5586,4.5586,4.5586,4.5586,4.5586,4.5586,4.5586,4.5586,4.5586,4.5586,4.5586,4.5586,4.5586,4.5586,4.5586,4.5586,4.5586,4.5586,4.5586,4.5586,4.5586,4.5586,4.5586,4.5586,4.5586,4.5586,4.5586,4.5586,4.5586,4.5586,4.5586,4.5586,4.5586,4.5719,4.5794,4.5803,4.5984,4.6103,4.6123,4.6235,4.6308,4.6308,4.6308,4.6308,4.6308,4.6308,4.6308,4.6308,4.6308,4.5918,4.5215,4.5957,4.5898,3.7661,3.867,3.9551,3.8872,3.8799,3.8854,3.8726,3.8891,3.9239,3.979,4.0634,4.1497,4.2176,4.2947,4.3497,4.3497,4.5333,4.7572,4.9903,5.082,5.1132,5.0839,5.2013,5.2399,5.1279,5.2417,5.3206,5.3206,5.3206,5.3206,5.3206,5.3206,5.3206,5.3206,5.1756,5.0986,5.0986,5.0178,5.005,5.06,4.9187,4.8434,4.8306,4.8306,4.7425,4.5938,4.6764,4.5736,4.3552,4.4378,4.4383,4.3924,4.3986,4.4428,4.503,4.5074,4.5322,4.5586,4.5586,4.5586,4.5586,4.5586,4.5586,4.5586,4.5586,4.5586,4.5586,4.5586,4.5586,4.5586,4.5586,4.5586,4.5586,4.5586,4.5586,4.5586,4.5586,4.5586,4.5586,4.5586,4.5586,4.5586,4.5586,4.5586,4.5586,4.5586,4.5586,4.5586,4.5586,4.5586,4.5586,4.5586,4.5719,4.5827,4.588,4.6023,4.6142,4.6275,4.6294,4.6308,4.6308,4.6308,4.6308,4.6308,4.6308,4.6308,4.6308,4.6308,4.623,4.6094,4.623,4.623,3.7367,3.8028,3.8707,3.9221,3.935,3.9239,3.8799,3.8707,3.8927,3.9717,4.0543,4.1368,4.2158,4.3314,4.458,4.5883,4.7021,4.8306,4.9884,5.0031,5.0196,5.0747,5.1463,5.1958,5.2087,5.2784,5.3206,5.3206,5.3206,5.3206,5.3206,5.3206,5.3206,5.3206,5.1646,5.1004,5.1444,4.9756,4.9077,4.9444,4.8673,4.8306,4.8306,4.7865,4.7021,4.592,4.6287,4.5333,4.3587,4.458,4.4591,4.4028,4.4436,4.4806,4.5118,4.5302,4.5476,4.5586,4.5586,4.5586,4.5586,4.5586,4.5586,4.5586,4.5586,4.5586,4.5586,4.5586,4.5586,4.5586,4.5586,4.5586,4.5586,4.5586,4.5586,4.5586,4.5586,4.5586,4.5586,4.5586,4.5586,4.5586,4.5586,4.5586,4.5586,4.5586,4.5586,4.5586,4.5586,4.5586,4.5624,4.5699,4.5796,4.5899,4.6002,4.6134,4.6224,4.6302,4.6309,4.6308,4.6308,4.6308,4.6308,4.6308,4.6308,4.6308,4.6308,4.6308,4.6308,4.6308,4.6308,4.6308,3.6982,3.7477,3.8065,3.9313,3.9625,3.9551,3.9331,3.9129,3.9203,4.001,4.0818,4.1589,4.2194,4.3626,4.5498,4.7921,4.8471,4.9022,5.0196,4.9848,4.9921,5.1224,5.1371,5.1848,5.3096,5.3206,5.3206,5.3206,5.3041,5.2931,5.2931,5.2747,5.2656,5.2656,5.1261,5.0802,5.1408,4.9334,4.8398,4.86,4.8398,4.8306,4.8269,4.748,4.6673,4.5883,4.57,4.48,4.3569,4.4517,4.4617,4.4204,4.4853,4.5159,4.5243,4.5513,4.5586,4.5586,4.5586,4.5586,4.5586,4.5586,4.5586,4.5586,4.5586,4.5586,4.5586,4.5586,4.5586,4.5586,4.5586,4.5586,4.5586,4.5586,4.5586,4.5586,4.5586,4.5586,4.5586,4.5586,4.5586,4.5586,4.5586,4.5586,4.5586,4.5586,4.5586,4.5586,4.5586,4.5586,4.5643,4.5796,4.5861,4.5969,4.6131,4.625,4.6308,4.6308,4.6308,4.6308,4.6308,4.6308,4.6308,4.6308,4.6308,4.6308,4.6308,4.6308,4.6308,4.6308,4.6308,4.6308,3.6156,3.7477,3.8634,3.8762,3.8799,3.9166,4.0616,4.0359,4.0029,4.0855,4.1662,4.2231,4.2286,4.3626,4.5498,4.7921,4.8967,5.0306,5.2619,5.2894,5.2894,5.3023,5.3041,5.3078,5.3206,5.3206,5.3206,5.3206,5.2509,5.2087,5.2087,5.1371,5.0967,5.0967,5.0123,4.9664,4.9664,4.8765,4.871,4.9481,4.8691,4.8306,4.8269,4.748,4.6673,4.5865,4.5112,4.4305,4.3513,4.3905,4.426,4.458,4.4943,4.5302,4.5568,4.5586,4.5586,4.5586,4.5586,4.5586,4.5586,4.5586,4.5586,4.5586,4.5586,4.5586,4.5586,4.5586,4.5586,4.5586,4.5586,4.5586,4.5586,4.5586,4.5586,4.5586,4.5586,4.5586,4.5586,4.5586,4.5586,4.5586,4.5586,4.5586,4.5586,4.5586,4.5586,4.5586,4.5586,4.5586,4.5643,4.5796,4.5873,4.5994,4.6262,4.6289,4.6308,4.6308,4.6308,4.6308,4.6308,4.6308,4.6308,4.6308,4.6308,4.6308,4.6308,4.6308,4.6308,4.6308,4.6308,4.6308,3.5936,3.711,3.8175,3.9203,3.9441,3.9606,4.0212,4.012,4.0267,4.1589,4.2488,4.3351,4.4342,4.5443,4.6838,4.8746,5.0196,5.1591,5.3004,5.3206,5.3206,5.3206,5.3206,5.3206,5.3206,5.3206,5.3206,5.3206,5.2931,5.2527,5.2013,5.1701,5.1316,5.082,5.0013,4.9572,4.9554,4.8728,4.8471,4.8783,4.8471,4.8306,4.8269,4.6948,4.6195,4.5865,4.5057,4.4352,4.3873,4.4736,4.5051,4.4943,4.5263,4.5495,4.5586,4.5586,4.5586,4.5586,4.5586,4.5586,4.5586,4.5586,4.5586,4.5586,4.5586,4.5586,4.5586,4.5586,4.5586,4.5586,4.5586,4.5586,4.5586,4.5586,4.5586,4.5586,4.5586,4.5586,4.5586,4.5586,4.5586,4.5586,4.5586,4.5586,4.5586,4.5586,4.5586,4.5586,4.5586,4.568,4.5757,4.5853,4.6026,4.6198,4.6289,4.6308,4.6308,4.6308,4.6308,4.6308,4.6308,4.6308,4.6308,4.6308,4.6308,4.6308,4.6308,4.6308,4.6308,4.6308,4.6308,4.6308,3.5514,3.6486,3.7441,3.8781,3.9515,3.9955,4.0212,4.0286,4.0818,4.2671,4.3497,4.4287,4.5645,4.6361,4.7352,4.9224,5.071,5.1995,5.3059,5.3206,5.3206,5.3206,5.3206,5.3206,5.3206,5.3206,5.3206,5.3206,5.2747,5.2215,5.1646,5.1114,5.0582,5.0031,4.9481,4.9187,4.9187,4.86,4.8306,4.8306,4.8049,4.8067,4.8251,4.6636,4.5902,4.5847,4.4886,4.429,4.4084,4.513,4.5456,4.5263,4.5513,4.5586,4.5586,4.5586,4.5586,4.5586,4.5586,4.5586,4.5586,4.5586,4.5586,4.5586,4.5586,4.5586,4.5586,4.5586,4.5586,4.5586,4.5586,4.5586,4.5586,4.5586,4.5586,4.5586,4.5586,4.5586,4.5586,4.5586,4.5586,4.5586,4.5586,4.5586,4.5586,4.5586,4.5586,4.5586,4.5586,4.5719,4.5834,4.595,4.6176,4.6308,4.6308,4.6308,4.6308,4.6308,4.6308,4.6308,4.6308,4.6308,4.6308,4.6308,4.6308,4.6308,4.6308,4.6308,4.6308,4.6308,4.6308,4.6308,3.477,3.5642,3.6486,3.7294,3.8707,4.0102,4.0946,4.113,4.1791,4.4213,4.4727,4.4966,4.5755,4.5902,4.6709,4.9187,5.027,5.1353,5.2968,5.3206,5.3206,5.3206,5.3206,5.3206,5.3206,5.3206,5.3206,5.3206,5.172,5.0802,5.0802,4.9224,4.8324,4.8306,4.8306,4.8306,4.8306,4.8306,4.8306,4.8306,4.7498,4.7535,4.8233,4.6617,4.5883,4.5828,4.4554,4.3998,4.4058,4.4806,4.5302,4.5586,4.5586,4.5586,4.5586,4.5586,4.5586,4.5586,4.5586,4.5586,4.5586,4.5586,4.5586,4.5586,4.5586,4.5586,4.5586,4.5586,4.5586,4.5586,4.5586,4.5586,4.5586,4.5586,4.5586,4.5586,4.5586,4.5586,4.5586,4.5586,4.5586,4.5586,4.5586,4.5586,4.5586,4.5586,4.5586,4.5586,4.5586,4.5719,4.5873,4.6082,4.6222,4.6308,4.6308,4.6308,4.6308,4.6308,4.6308,4.6308,4.6308,4.6308,4.6308,4.6308,4.6308,4.6308,4.6308,4.6308,4.6308,4.6308,4.6308,4.6308,3.4935,3.5642,3.6633,3.7991,3.9129,4.0249,4.1625,4.1515,4.1791,4.4213,4.5149,4.5792,4.6617,4.6746,4.737,4.9279,4.9793,5.0508,5.2123,5.2362,5.2362,5.2362,5.2858,5.3206,5.3206,5.3206,5.2968,5.2399,5.1903,5.1151,5.0013,4.9462,4.893,4.8324,4.8306,4.8306,4.8306,4.8306,4.8306,4.8306,4.7498,4.7241,4.7407,4.5792,4.5178,4.537,4.442,4.4271,4.4806,4.5263,4.5513,4.5586,4.5586,4.5586,4.5586,4.5586,4.5586,4.5586,4.5586,4.5586,4.5586,4.5586,4.5586,4.5586,4.5586,4.5586,4.5586,4.5586,4.5586,4.5586,4.5586,4.5586,4.5586,4.5586,4.5586,4.5586,4.5586,4.5586,4.5586,4.5586,4.5586,4.5586,4.5586,4.5586,4.5586,4.5586,4.5586,4.5643,4.5796,4.593,4.6076,4.6228,4.628,4.6308,4.6308,4.6308,4.6308,4.6308,4.6308,4.6308,4.6308,4.6308,4.6308,4.6308,4.6308,4.6308,4.6308,4.6308,4.6308,4.6308,4.6308,4.6308,3.4899,3.5642,3.6688,3.8303,3.9551,4.0708,4.2011,4.2671,4.3424,4.4892,4.5828,4.6636,4.7443,4.7333,4.7645,4.9279,4.9572,5.0031,5.1334,5.1518,5.1518,5.1518,5.1958,5.2252,5.2252,5.2252,5.205,5.1555,5.1224,5.06,4.9627,4.8967,4.8508,4.8324,4.7682,4.7498,4.7829,4.7517,4.7352,4.7352,4.6544,4.6213,4.6299,4.5321,4.5008,4.5171,4.4655,4.4762,4.5322,4.5513,4.5586,4.5586,4.5586,4.5586,4.5586,4.5586,4.5586,4.5586,4.5586,4.5586,4.5586,4.5586,4.5586,4.5586,4.5586,4.5586,4.5586,4.5586,4.5586,4.5586,4.5586,4.5586,4.5586,4.5586,4.5586,4.5586,4.5586,4.5586,4.5586,4.5586,4.5586,4.5586,4.5586,4.5586,4.5586,4.5586,4.5643,4.5757,4.595,4.6046,4.6138,4.6285,4.6308,4.6308,4.6308,4.6308,4.6308,4.6308,4.6308,4.6308,4.6308,4.6308,4.6308,4.6308,4.6308,4.6308,4.6308,4.6308,4.6308,4.6308,4.6255,4.6222,3.4789,3.5642,3.6688,3.8395,4.0084,4.1515,4.2249,4.4213,4.5883,4.581,4.6562,4.7443,4.8177,4.7719,4.7719,4.926,4.9481,4.9756,5.0582,5.0692,5.0692,5.0692,5.0765,5.0802,5.0802,5.0802,5.0765,5.071,4.9994,4.9517,4.937,4.7939,4.7407,4.8067,4.6654,4.625,4.7003,4.6269,4.5902,4.5883,4.5111,4.4949,4.532,4.5171,4.5127,4.5212,4.5152,4.5322,4.5586,4.5586,4.5586,4.5586,4.5586,4.5586,4.5586,4.5586,4.5586,4.5586,4.5586,4.5586,4.5586,4.5586,4.5586,4.5586,4.5586,4.5586,4.5586,4.5586,4.5586,4.5586,4.5586,4.5586,4.5586,4.5586,4.5586,4.5586,4.5586,4.5586,4.5586,4.5586,4.5586,4.5586,4.5586,4.5586,4.5586,4.5605,4.5734,4.5885,4.6065,4.6095,4.6174,4.6286,4.6308,4.6308,4.6308,4.6308,4.6308,4.6308,4.6308,4.6308,4.6308,4.6308,4.6308,4.6308,4.6308,4.6308,4.6308,4.6308,4.6289,4.6282,4.6164,4.6084,3.4935,3.5642,3.6835,3.9074,4.1332,4.302,4.3185,4.4617,4.5718,4.5094,4.6617,4.8104,4.8269,4.8159,4.8379,4.9407,4.9022,4.8875,4.9738,4.9848,4.9848,4.9848,5.0417,5.0802,5.0802,5.0802,5.0545,4.9903,4.9682,4.9022,4.7719,4.7315,4.6911,4.6434,4.6085,4.5975,4.6159,4.5993,4.5902,4.5883,4.533,4.5486,4.6171,4.4854,4.4562,4.5143,4.538,4.5531,4.5586,4.5586,4.5586,4.5586,4.5586,4.5586,4.5586,4.5586,4.5586,4.5586,4.5586,4.5586,4.5586,4.5586,4.5586,4.5586,4.5586,4.5586,4.5586,4.5586,4.5586,4.5586,4.5586,4.5586,4.5586,4.5586,4.5586,4.5586,4.5586,4.5586,4.5586,4.5586,4.5586,4.5586,4.5586,4.5586,4.5624,4.5738,4.5827,4.5925,4.6078,4.6183,4.627,4.6308,4.6308,4.6308,4.6308,4.6308,4.6308,4.6308,4.6308,4.6308,4.6308,4.6308,4.6308,4.6308,4.6308,4.6308,4.6308,4.6308,4.626,4.6137,4.6111,4.6046,3.5404,3.5954,3.6964,3.9772,4.1992,4.3497,4.3497,4.4452,4.5223,4.48,4.6636,4.8196,4.781,4.8049,4.8324,4.8398,4.8031,4.7884,4.8343,4.8398,4.8398,4.8398,4.9114,4.9609,4.9609,4.9609,4.9426,4.9003,4.8967,4.86,4.7737,4.6948,4.6526,4.6489,4.5351,4.4929,4.5333,4.5102,4.4983,4.4983,4.4946,4.5237,4.5798,4.5334,4.5423,4.5955,4.5705,4.5586,4.5586,4.5586,4.5586,4.5586,4.5586,4.5586,4.5586,4.5586,4.5586,4.5586,4.5586,4.5586,4.5586,4.5586,4.5586,4.5586,4.5586,4.5586,4.5586,4.5586,4.5586,4.5586,4.5586,4.5586,4.5586,4.5586,4.5586,4.5586,4.5586,4.5586,4.5586,4.5586,4.5586,4.5586,4.5586,4.5643,4.5738,4.5834,4.5931,4.6046,4.6183,4.6257,4.6308,4.6308,4.6308,4.6308,4.6308,4.6308,4.6308,4.6308,4.6308,4.6308,4.6308,4.6308,4.6308,4.6308,4.6308,4.6308,4.6308,4.6234,4.6166,4.6103,4.6007,4.593,3.5661,3.6486,3.7624,4.0579,4.2415,4.3497,4.3497,4.4121,4.4709,4.4709,4.6416,4.7682,4.704,4.7443,4.7682,4.7021,4.6911,4.6911,4.6911,4.6911,4.6966,4.7095,4.7572,4.7939,4.8086,4.7976,4.7884,4.7884,4.7884,4.7829,4.77,4.6416,4.5938,4.6471,4.4544,4.3844,4.4575,4.4183,4.4028,4.4087,4.4632,4.5081,4.5428,4.6099,4.6511,4.6644,4.5913,4.5586,4.5586,4.5586,4.5586,4.5586,4.5586,4.5586,4.5586,4.5586,4.5586,4.5586,4.5586,4.5586,4.5586,4.5586,4.5586,4.5586,4.5586,4.5586,4.5586,4.5586,4.5586,4.5586,4.5586,4.5586,4.5586,4.5586,4.5586,4.5586,4.5586,4.5586,4.5586,4.5586,4.5586,4.5605,4.5624,4.5738,4.5834,4.593,4.6026,4.6145,4.6284,4.6308,4.6308,4.6308,4.6308,4.6308,4.6308,4.6308,4.6308,4.6308,4.6308,4.6308,4.6308,4.6308,4.6308,4.6308,4.6308,4.6286,4.6267,4.6151,4.6084,4.6046,4.5873,4.5796,3.4926,3.7257,3.9845,4.168,4.2818,4.3497,4.3497,4.4121,4.4709,4.4709,4.5516,4.6195,4.6085,4.6159,4.6195,4.6085,4.6067,4.6067,4.6067,4.6067,4.6324,4.704,4.6581,4.6489,4.7205,4.6636,4.6214,4.6214,4.6214,4.592,4.5223,4.4984,4.4599,4.3993,4.3663,4.3701,4.4092,4.4042,4.4175,4.4527,4.558,4.6292,4.6666,4.6762,4.6434,4.5759,4.5643,4.5586,4.5586,4.5586,4.5586,4.5586,4.5586,4.5586,4.5586,4.5586,4.5586,4.5586,4.5586,4.5586,4.5586,4.5586,4.5586,4.5586,4.5586,4.5586,4.5586,4.5586,4.5586,4.5586,4.5586,4.5586,4.5586,4.5586,4.5586,4.5586,4.5586,4.5586,4.5586,4.5586,4.5586,4.5624,4.5757,4.5796,4.5853,4.6046,4.6084,4.6145,4.6284,4.6308,4.6308,4.6308,4.6308,4.6308,4.6308,4.6308,4.6308,4.6308,4.6308,4.6308,4.6308,4.6308,4.6308,4.6308,4.6308,4.6231,4.6128,4.6114,4.6007,4.5834,4.5815,4.5738,3.5385,3.7441,3.9606,4.124,4.2231,4.2947,4.3387,4.3754,4.403,4.403,4.4305,4.469,4.5149,4.5608,4.5755,4.5296,4.5241,4.5241,4.5241,4.5241,4.5369,4.5718,4.5847,4.6049,4.6397,4.6104,4.5902,4.5902,4.5902,4.5755,4.5388,4.4947,4.4544,4.4176,4.3736,4.3679,4.4016,4.4233,4.4612,4.518,4.5667,4.6014,4.6163,4.6163,4.622,4.6297,4.5797,4.5586,4.5586,4.5586,4.5586,4.5586,4.5586,4.5586,4.5586,4.5586,4.5586,4.5586,4.5586,4.5586,4.5586,4.5586,4.5586,4.5586,4.5586,4.5586,4.5586,4.5586,4.5586,4.5586,4.5586,4.5586,4.5586,4.5586,4.5586,4.5586,4.5586,4.5586,4.5586,4.5586,4.5586,4.5624,4.5776,4.5834,4.5905,4.608,4.6162,4.6234,4.6288,4.6308,4.6308,4.6308,4.6308,4.6308,4.6308,4.6308,4.6308,4.6308,4.6308,4.6308,4.6308,4.6308,4.6267,4.6192,4.6192,4.6157,4.6103,4.5988,4.5892,4.5796,4.5719,4.5643,3.5569,3.7165,3.8726,4.0157,4.1258,4.2213,4.3002,4.3185,4.324,4.3442,4.3497,4.3681,4.4287,4.4892,4.5094,4.4488,4.4397,4.4397,4.4397,4.4397,4.447,4.469,4.5057,4.5369,4.5571,4.5406,4.5278,4.5278,4.5278,4.5349,4.5418,4.4865,4.4568,4.4683,4.4073,4.3943,4.429,4.4663,4.5118,4.5586,4.5586,4.5586,4.5586,4.5586,4.5951,4.6528,4.5874,4.5586,4.5586,4.5586,4.5586,4.5586,4.5586,4.5586,4.5586,4.5586,4.5586,4.5586,4.5586,4.5586,4.5586,4.5586,4.5586,4.5586,4.5586,4.5586,4.5586,4.5586,4.5586,4.5586,4.5586,4.5586,4.5586,4.5586,4.5586,4.5586,4.5586,4.5586,4.5605,4.5624,4.5643,4.5699,4.5853,4.591,4.5991,4.6132,4.624,4.6308,4.6308,4.6308,4.6308,4.6308,4.6308,4.6308,4.6308,4.6308,4.6308,4.6308,4.6308,4.6308,4.6308,4.627,4.6199,4.6102,4.6046,4.6026,4.6026,4.5873,4.5776,4.5757,4.5643,4.5586,3.4825,3.6285,3.7753,3.8615,4.001,4.1387,4.2176,4.2359,4.258,4.3332,4.3497,4.3497,4.3534,4.3589,4.3608,4.3552,4.3552,4.3552,4.3552,4.3552,4.3846,4.4617,4.4066,4.392,4.469,4.4066,4.3608,4.3608,4.3608,4.3775,4.4085,4.406,4.4221,4.4602,4.4546,4.4707,4.5052,4.5362,4.5568,4.5586,4.5586,4.5586,4.5586,4.5586,4.5605,4.5663,4.5605,4.5586,4.5586,4.5586,4.5586,4.5586,4.5586,4.5586,4.5586,4.5586,4.5586,4.5586,4.5586,4.5586,4.5586,4.5586,4.5586,4.5586,4.5586,4.5586,4.5586,4.5586,4.5586,4.5586,4.5586,4.5586,4.5586,4.5586,4.5586,4.5586,4.5586,4.5586,4.5624,4.5757,4.5796,4.5853,4.6046,4.6082,4.6145,4.6276,4.6308,4.6308,4.6308,4.6308,4.6308,4.6308,4.6308,4.6308,4.6308,4.6308,4.6308,4.6308,4.6308,4.6308,4.6308,4.6191,4.6116,4.6103,4.5911,4.5815,4.5815,4.5815,4.5738,4.5605,4.5586,4.5586,3.388,3.4669,3.5697,3.8102,3.9129,3.9918,4.124,4.1937,4.2378,4.2671,4.313,4.3497,4.3497,4.3497,4.3497,4.3497,4.3497,4.3497,4.3497,4.3497,4.3608,4.3901,4.3663,4.3692,4.4212,4.4003,4.3943,4.4184,4.4213,4.4252,4.4392,4.4392,4.4447,4.4599,4.458,4.4757,4.5096,4.5438,4.5586,4.5586,4.5586,4.5586,4.5586,4.5586,4.5586,4.5586,4.5586,4.5586,4.5586,4.5586,4.5586,4.5586,4.5586,4.5586,4.5586,4.5586,4.5586,4.5586,4.5586,4.5586,4.5586,4.5586,4.5586,4.5586,4.5586,4.5586,4.5586,4.5586,4.5586,4.5586,4.5586,4.5586,4.5605,4.5719,4.5757,4.5796,4.5796,4.5757,4.5757,4.5853,4.5849,4.5906,4.6078,4.6103,4.6151,4.6282,4.6308,4.6308,4.6308,4.6308,4.6308,4.6308,4.6308,4.6308,4.6308,4.6308,4.6308,4.6308,4.6308,4.6308,4.6308,4.6177,4.6065,4.5969,4.5853,4.5796,4.5796,4.5719,4.5643,4.5586,4.5586,4.5586,3.3036,3.3587,3.4468,3.7221,3.8102,3.8652,3.9992,4.0928,4.1497,4.1497,4.2121,4.269,4.269,4.269,4.2873,4.3406,4.3497,4.3497,4.3497,4.3497,4.3497,4.3497,4.3597,4.3758,4.3986,4.3874,4.399,4.4561,4.407,4.4046,4.4738,4.4492,4.4521,4.4924,4.4943,4.5033,4.5282,4.5495,4.5586,4.5586,4.5586,4.5586,4.5586,4.5586,4.5586,4.5586,4.5586,4.5586,4.5586,4.5586,4.5586,4.5586,4.5586,4.5586,4.5586,4.5586,4.5586,4.5586,4.5586,4.5586,4.5586,4.5586,4.5586,4.5586,4.5586,4.5586,4.5586,4.5586,4.5624,4.568,4.568,4.568,4.5714,4.5819,4.5868,4.5916,4.5965,4.5912,4.5862,4.5965,4.5979,4.6019,4.6135,4.6174,4.6201,4.6286,4.6308,4.6308,4.6308,4.6308,4.6308,4.6308,4.6308,4.6308,4.6308,4.6308,4.6308,4.6308,4.6257,4.6228,4.6228,4.6087,4.5969,4.5873,4.5776,4.5738,4.5738,4.5624,4.5586,4.5586,4.5586,4.5586,0.0,0.0,0.0,3.5807,3.6817,3.7624,3.8487,3.9276,3.9827,3.9845,4.0506,4.1075,4.1075,4.1093,4.1625,4.3167,4.3424,4.3424,4.3424,4.3477,4.3477,4.3477,4.3767,4.396,4.399,4.3557,4.3636,4.4537,4.3014,4.2948,4.502,4.4315,4.4382,4.5566,4.5586,4.5586,4.5586,4.5586,4.5586,4.5586,4.5586,4.5586,4.5586,4.5586,4.5586,4.5586,4.5586,4.5586,4.5586,4.5586,4.5586,4.5586,4.5586,4.5586,4.5586,4.5586,4.5586,4.5586,4.5586,4.5586,4.5586,4.5586,4.5586,4.5586,4.5586,4.5605,4.5605,4.5605,4.5699,4.5796,4.5813,4.5834,4.5896,4.591,4.5918,4.5949,4.6089,4.6003,4.5958,4.6086,4.6116,4.6164,4.628,4.6308,4.6308,4.6308,4.6308,4.6308,4.6308,4.6308,4.6308,4.6308,4.6308,4.6308,4.6308,4.6308,4.6308,4.6289,4.6158,4.6103,4.6084,4.5911,4.5796,4.5796,4.568,4.5586,4.5586,4.5586,4.5586,4.5586,4.5586,4.5586,3.065,0.0,0.0,0.0,0.0,0.0,3.7496,3.7991,3.8322,3.8909,3.9662,4.023,4.023,4.0726,4.1258,4.1699,4.1772,4.1772,4.1772,4.2488,4.299,4.299,4.3296,4.3578,4.3829,4.3164,4.3185,4.4288,4.3944,4.4174,4.5399,4.5227,4.5245,4.5586,4.5586,4.5586,4.5586,4.5586,4.5586,4.5586,4.5586,4.5586,4.5586,4.5586,4.5586,4.5586,4.5586,4.5586,4.5586,4.5586,4.5586,4.5586,4.5586,4.5586,4.5586,4.5586,4.5586,4.5586,4.5586,4.5586,4.5586,4.5586,4.5586,4.5605,4.5719,4.5738,4.5757,4.5796,4.5834,4.5863,4.5866,4.596,4.6042,4.604,4.6123,4.6201,4.6243,4.6224,4.6197,4.6242,4.6236,4.6257,4.6288,4.6308,4.6308,4.6308,4.6308,4.6308,4.6308,4.6308,4.6308,4.6308,4.6308,4.6308,4.6308,4.6308,4.6261,4.615,4.6121,4.6065,4.5969,4.5853,4.5796,4.5796,4.568,4.5586,4.5586,4.5586,4.5586,4.5586,4.5586,4.5586,2.9989,3.0797,3.1788,3.3403,0.0,0.0,3.5807,3.6486,3.6927,3.6707,3.7569,3.8395,3.8395,3.8781,3.9221,3.9551,3.9676,4.0087,4.0965,4.1804,4.2414,4.276,4.322,4.3577,4.3776,4.3157,4.3043,4.3742,4.3124,4.3104,4.397,4.4355,4.4547,4.4547,4.4874,4.5047,4.5047,4.5413,4.5586,4.5586,4.5586,4.5586,4.5586,4.5643,4.568,4.568,4.5719,4.5738,4.5738,4.5738,4.5719,4.568,4.568,4.5699,4.5738,4.5738,4.5738,4.5738,4.5738,4.5738,4.5738,4.5738,4.5738,4.5738,4.5815,4.5835,4.5852,4.5891,4.5928,4.6001,4.6052,4.6115,4.6173,4.6173,4.624,4.6306,4.6299,4.6309,4.6294,4.6305,4.6308,4.6308,4.6308,4.6308,4.6308,4.6308,4.6308,4.6308,4.6308,4.6308,4.6308,4.6308,4.6308,4.628,4.6222,4.6227,4.6153,4.6035,4.5992,4.595,4.5853,4.5776,4.5719,4.5719,4.5624,4.5586,4.5586,4.5586,4.5586,4.5586,4.5586,4.5586,2.9898,3.0723,3.1733,3.3183,3.4211,0.0,3.4082,3.5018,3.5652,3.4265,3.5165,3.6223,3.6251,3.6325,3.6619,3.7319,3.7737,3.8627,4.0614,4.1271,4.1838,4.2558,4.318,4.3573,4.3573,4.3118,4.2854,4.2951,4.1604,4.1123,4.1912,4.2681,4.3104,4.3104,4.3797,4.4162,4.4162,4.4932,4.5316,4.5316,4.5451,4.549,4.5509,4.5719,4.5813,4.5806,4.5863,4.5902,4.5902,4.5902,4.5849,4.5815,4.5808,4.5844,4.5902,4.5902,4.5902,4.5902,4.5902,4.5902,4.5902,4.5902,4.5902,4.5902,4.5928,4.591,4.593,4.5944,4.603,4.6158,4.6273,4.6308,4.6308,4.6308,4.6308,4.6308,4.6308,4.6308,4.6308,4.6308,4.6308,4.6308,4.6308,4.6308,4.6308,4.6308,4.6308,4.6308,4.6308,4.6308,4.6308,4.6308,4.6286,4.6222,4.6114,4.6084,4.6017,4.5901,4.5829,4.5796,4.5776,4.5643,4.5586,4.5586,4.5586,4.5586,4.5586,4.5586,4.5586,4.5586,4.5586,4.5586,2.9384,3.0283,3.1476,3.1788,3.2963,0.0,3.4642,3.4523,3.4457,3.5057,3.5423,3.5721,3.5923,3.6508,3.6996,3.7164,3.7779,3.8514,3.9379,4.0565,4.1421,4.1554,4.1954,4.2174,4.2174,4.1456,4.1296,4.2008,4.2393,4.2662,4.2835,4.3008,4.3104,4.3104,4.3258,4.3335,4.3335,4.3566,4.3665,4.3665,4.4491,4.4876,4.4895,4.5566,4.5877,4.588,4.588,4.5899,4.5899,4.5899,4.5893,4.5888,4.5886,4.588,4.5899,4.5899,4.5899,4.5899,4.5899,4.5899,4.5899,4.5899,4.5899,4.5914,4.6031,4.6056,4.6079,4.6186,4.6237,4.627,4.6288,4.6308,4.6308,4.6308,4.6308,4.6308,4.6308,4.6308,4.6308,4.6308,4.6308,4.6308,4.6308,4.6308,4.6308,4.6308,4.6308,4.6308,4.6308,4.6308,4.6308,4.6308,4.6208,4.6128,4.6102,4.6007,4.5907,4.5816,4.5808,4.5757,4.5624,4.5605,4.5586,4.5586,4.5586,4.5586,4.5586,4.5586,4.5586,4.5586,4.5586,4.5586,2.9743,3.0191,3.098,3.1806,3.2596,0.0,0.0,3.3807,3.4005,3.4747,3.4875,3.5058,3.5784,3.5899,3.6182,3.6974,3.7215,3.7843,3.9377,4.0243,4.0844,4.1264,4.1604,4.1797,4.1797,4.1393,4.1143,4.1143,4.1566,4.1797,4.1797,4.1797,4.1835,4.1893,4.2316,4.2582,4.2598,4.3066,4.3297,4.3312,4.4254,4.4699,4.4724,4.5591,4.5989,4.5996,4.6066,4.6111,4.6093,4.6093,4.6111,4.61,4.6032,4.6047,4.6108,4.6108,4.6108,4.6108,4.6108,4.6108,4.6108,4.6108,4.6108,4.6119,4.6185,4.6191,4.622,4.6284,4.6308,4.6308,4.6308,4.6308,4.6308,4.6308,4.6308,4.6308,4.6308,4.6308,4.6308,4.6308,4.6308,4.6308,4.6308,4.6308,4.6308,4.6308,4.6308,4.6278,4.6205,4.6199,4.6181,4.6104,4.6037,4.5979,4.5948,4.5892,4.5815,4.5719,4.5699,4.568,4.5586,4.5586,4.5586,4.5586,4.5586,4.5586,4.5586,4.5586,4.5586,4.5586,4.5586,4.5513,3.0691,3.0692,3.1117,3.2428,3.289,3.3019,0.0,0.0,0.0,3.4398,3.4423,3.4677,3.5646,3.5287,3.5287,3.6594,3.669,3.7349,3.9412,3.9966,4.0482,4.1304,4.1334,4.145,4.1777,4.1662,4.1181,4.0315,4.0446,4.0485,4.0312,4.0466,4.062,4.0716,4.1393,4.1784,4.1851,4.2572,4.2946,4.2956,4.3833,4.4338,4.4545,4.5471,4.5974,4.6151,4.6249,4.6293,4.6293,4.6293,4.6309,4.6283,4.6167,4.6188,4.6308,4.6308,4.6308,4.6308,4.6308,4.6308,4.6308,4.6308,4.6308,4.6308,4.6308,4.6308,4.6308,4.6308,4.6308,4.6308,4.6308,4.6308,4.6308,4.6308,4.6282,4.6264,4.6264,4.6237,4.6223,4.6223,4.6223,4.6246,4.6289,4.6282,4.6264,4.6264,4.6237,4.6172,4.6081,4.6059,4.6024,4.5917,4.589,4.5866,4.5811,4.5776,4.5719,4.5605,4.5586,4.5586,4.5586,4.5586,4.5586,4.5586,4.5586,4.5568,4.5495,4.5495,4.5495,4.5495,4.5495,4.5322,3.2185,3.2486,3.3069,3.3258,3.3878,3.4461,3.4461,0.0,3.4674,3.4963,0.0,3.5107,3.5484,0.0,0.0,3.5648,3.6887,3.792,3.8208,3.9515,4.0784,4.1649,4.0473,4.0162,4.1662,4.1104,4.0296,3.9488,4.0215,4.0331,3.9561,4.0312,4.0773,4.0793,4.0873,4.0935,4.0954,4.1158,4.1266,4.1273,4.2212,4.3064,4.3845,4.472,4.5558,4.628,4.6288,4.6308,4.6307,4.6307,4.6305,4.63,4.628,4.6286,4.6308,4.6308,4.6308,4.6308,4.6308,4.6308,4.6308,4.6308,4.6308,4.6308,4.6308,4.6308,4.6308,4.6308,4.6308,4.6308,4.6308,4.6308,4.6308,4.6308,4.6205,4.6117,4.6117,4.603,4.5959,4.5959,4.5959,4.6027,4.6268,4.6199,4.6117,4.6117,4.6014,4.5944,4.592,4.5921,4.5909,4.5902,4.5844,4.5808,4.5796,4.5699,4.5605,4.5586,4.5586,4.5586,4.5586,4.5586,4.5586,4.5586,4.5586,4.5438,4.5159,4.5159,4.5159,4.5159,4.5159,4.4966,3.3015,3.2789,3.294,3.3903,3.4054,3.4091,3.4581,3.4694,3.4906,3.5624,0.0,0.0,0.0,0.0,0.0,0.0,3.6796,3.7603,3.8604,3.8488,3.8988,4.0835,4.0412,4.0085,4.0335,4.0062,3.9523,3.8681,3.9503,3.9681,3.8817,3.9603,4.012,4.0162,4.0648,4.0946,4.1026,4.1095,4.1124,4.1124,4.1982,4.2598,4.2988,4.3848,4.4726,4.5547,4.5547,4.582,4.6308,4.6308,4.6308,4.6308,4.6308,4.6308,4.6308,4.6308,4.6308,4.6308,4.6308,4.6308,4.6308,4.6308,4.624,4.6173,4.6173,4.6135,4.6075,4.6075,4.6075,4.6075,4.6075,4.6075,4.6075,4.6075,4.6016,4.5976,4.5982,4.5943,4.5891,4.5891,4.5891,4.5945,4.6055,4.6011,4.5982,4.5984,4.5943,4.5891,4.5852,4.5854,4.5815,4.5738,4.5699,4.568,4.568,4.5624,4.5586,4.5586,4.5586,4.5586,4.5586,4.5586,4.5586,4.5586,4.5419,4.5243,4.5096,4.4896,4.4707,4.4482,4.4707,4.4606,3.4029,3.3557,3.3405,3.4622,3.4451,3.4128,3.4774,3.4926,3.5152,3.5916,3.5608,0.0,0.0,0.0,3.5699,3.6276,0.0,3.7238,3.8719,3.7853,3.8007,4.0546,4.0893,4.0585,3.9758,3.9749,3.9331,3.8247,3.908,3.9251,3.8375,3.8967,3.9563,4.0087,4.0494,4.0867,4.1191,4.1191,4.1191,4.1211,4.1797,4.2187,4.2422,4.3066,4.3828,4.4668,4.4902,4.5351,4.5937,4.5937,4.6065,4.6216,4.5982,4.6003,4.6195,4.6269,4.6275,4.6255,4.6255,4.6218,4.6198,4.6198,4.6119,4.604,4.6042,4.5984,4.5906,4.5906,4.5906,4.5906,4.5906,4.5906,4.5906,4.5906,4.5886,4.5866,4.5863,4.5834,4.5815,4.5815,4.5815,4.5815,4.5815,4.5852,4.5873,4.5866,4.5834,4.5796,4.5757,4.5757,4.5719,4.5605,4.5586,4.5586,4.5586,4.5586,4.5586,4.5586,4.5586,4.5568,4.5476,4.5457,4.5419,4.5342,4.5096,4.4919,4.4806,4.4334,4.3915,4.3565,4.4139,4.4092,3.5422,3.5402,3.5402,3.546,3.5441,3.5441,3.546,3.546,3.5479,3.5532,3.5512,3.5493,3.5532,3.5526,3.5526,3.5532,3.6199,0.0,0.0,3.7988,3.8892,4.147,4.1873,4.1604,4.0735,4.0723,4.0056,3.8419,3.9168,3.9311,3.8439,3.8541,3.9414,4.1093,4.0351,4.0332,4.1191,4.1191,4.1191,4.1191,4.123,4.1641,4.2402,4.2422,4.293,4.3789,4.4629,4.5019,4.5039,4.5039,4.5462,4.602,4.5178,4.5286,4.5939,4.6201,4.6213,4.6116,4.6116,4.6009,4.5907,4.5907,4.5899,4.5901,4.5908,4.5892,4.589,4.589,4.589,4.589,4.589,4.589,4.589,4.589,4.5851,4.5813,4.5796,4.5699,4.5605,4.5605,4.5605,4.5605,4.5605,4.5719,4.5813,4.5796,4.5699,4.5605,4.5605,4.5605,4.5586,4.5586,4.5586,4.5586,4.5586,4.5586,4.5586,4.5586,4.5586,4.5438,4.5118,4.5118,4.4966,4.4631,4.4606,4.4401,4.4028,4.3226,4.2662,4.2375,4.3497,4.341,3.6449,3.6295,3.618,3.5641,3.5493,3.5493,3.5493,3.5493,3.5493,3.5493,3.5493,3.5493,3.5493,3.5493,3.568,3.6219,3.7007,3.7661,0.0,3.8046,3.82,3.858,3.9061,3.9469,3.9811,3.8899,3.8083,3.7607,3.7374,3.7113,3.683,3.7942,3.8867,3.9453,4.0312,4.0898,4.1191,4.1191,4.1191,4.1191,4.1191,4.1348,4.1601,4.1601,4.2051,4.2851,4.3144,4.3576,4.4063,4.4063,4.4508,4.513,4.4858,4.5208,4.5902,4.6002,4.6019,4.5963,4.5973,4.5935,4.5907,4.5907,4.5868,4.5819,4.583,4.5776,4.5699,4.5699,4.5699,4.5699,4.5699,4.5699,4.5699,4.5699,4.568,4.568,4.568,4.5624,4.5586,4.5586,4.5586,4.5586,4.5586,4.5624,4.568,4.568,4.5624,4.5586,4.5586,4.5586,4.5586,4.5586,4.5586,4.5586,4.5586,4.5586,4.5513,4.5263,4.5263,4.5118,4.4781,4.4776,4.4726,4.4606,4.4318,4.4136,4.4016,4.2958,4.2433,4.2304,4.2157,4.1866,3.7373,3.7219,3.7026,3.6232,3.604,3.5949,3.5622,3.5545,3.5545,3.5545,3.5545,3.5455,3.5185,3.5641,3.6007,3.5935,3.6897,3.7531,0.0,3.7488,3.7525,3.7058,3.7938,3.8589,3.8589,3.8255,3.7551,3.6403,3.6394,3.6328,3.6016,3.707,3.7969,3.8574,3.9394,4.0117,4.0723,4.0742,4.0898,4.1191,4.1191,4.1191,4.1191,4.1191,4.1455,4.1914,4.2231,4.2622,4.3086,4.3404,4.3786,4.416,4.4164,4.447,4.4963,4.5344,4.5437,4.544,4.5703,4.5796,4.5796,4.5796,4.5757,4.5738,4.5738,4.568,4.5586,4.5586,4.5586,4.5586,4.5586,4.5586,4.5586,4.5586,4.5586,4.5586,4.5586,4.5586,4.5586,4.5586,4.5586,4.5586,4.5586,4.5586,4.5586,4.5586,4.5586,4.5586,4.5586,4.5586,4.5586,4.5586,4.5586,4.555,4.5438,4.5303,4.514,4.4943,4.4919,4.4757,4.4401,4.4392,4.4337,4.4194,4.3664,4.341,4.3391,4.2069,4.1442,4.1423,4.0616,4.0267]},{"header":{"parameterUnit":"m.s-1","parameterCategory":1,"la1":30.6,"la2":29.2853,"lo1":-89.7004,"lo2":-87.6739,"dy":0.0162,"dx":0.0183,"nx":112,"ny":82,"refTime":"2023-09-07T06:00:00:Z","depth":0,"parameterNumber":3,"parameterNumberName":"V-component_of_WINDS"},"data":[0.0,0.0,0.0,0.0,0.0,0.0,0.0,0.0,0.0,0.0,0.0,0.0,0.0,0.0,0.0,0.0,0.0,0.0,0.0,0.0,0.0,0.0,0.0,0.0,0.0,0.0,0.0,0.0,0.0,0.0,0.0,0.0,0.0,0.0,0.0,0.0,0.0,0.0,0.0,0.0,0.0,0.0,0.0,0.0,0.0,0.0,0.0,0.0,0.0,0.0,0.0,0.0,0.0,0.0,0.0,0.0,0.0,0.0,0.0,0.0,0.0,0.0,0.0,0.0,0.0,0.0,0.0,0.0,0.0,0.0,0.0,0.0,0.0,0.0,0.0,0.0,0.0,0.0,0.0,0.0,0.0,0.0,0.0,0.0,0.0,0.0,0.0,0.0,0.0,0.0,0.5165,0.526,0.5481,0.5671,0.5789,0.5376,0.4994,0.4928,0.0,0.0,0.0,0.0,0.0,0.0,0.0,0.0,0.0,0.0,0.0,0.0,0.0,0.0,0.0,0.0,0.0,0.0,0.0,0.0,0.0,0.0,0.0,0.0,0.0,0.0,0.0,0.0,0.0,0.0,0.0,0.0,0.0,0.0,0.0,0.0,0.0,0.0,0.0,0.0,0.0,0.0,0.0,0.0,0.0,0.0,0.0,0.0,0.0,0.0,0.0,0.0,0.0,0.0,0.0,0.0,0.0,0.0,0.0,0.0,0.0,0.0,0.0,0.0,0.0,0.0,0.0,0.0,0.0,0.0,0.0,0.0,0.0,0.0,0.0,0.0,0.0,0.0,0.0,0.0,0.0,0.0,0.0,0.0,0.0,0.0,0.0,0.0,0.0,0.0,0.0,0.0,0.0,0.0,0.0,0.0,0.0,0.0,0.0,0.0,0.0,0.0,0.0,0.0,0.5325,0.584,0.582,0.5779,0.58,0.5281,0.4945,0.4921,0.0,0.0,0.0,0.0,0.0,0.0,0.0,0.0,0.0,0.0,0.0,0.0,0.0,0.0,0.0,0.0,0.0,0.0,0.0,0.0,0.0,0.0,0.0,0.0,0.0,0.0,0.0,0.0,0.0,0.0,0.0,0.0,0.0,0.0,0.0,0.0,0.0,0.0,0.0,0.0,0.0,0.0,0.0,0.0,0.0,0.0,0.0,0.0,0.0,0.0,0.0,0.0,0.0,0.0,0.0,0.0,0.0,0.0,0.0,0.0,0.0,0.0,0.0,0.0,0.0,0.0,0.0,0.0,0.0,0.0,0.0,0.0,0.0,0.0,0.0,0.0,0.0,0.0,0.0,0.0,0.0,0.0,0.0,0.0,0.0,0.0,0.0,0.0,0.0,0.0,0.0,0.0,0.0,0.0,0.0,0.0,0.0,0.0,0.0,0.0,0.0,0.0,0.0,0.5148,0.5393,0.6081,0.5874,0.5718,0.5793,0.5332,0.4989,0.4918,0.4669,0.0,0.0,0.0,0.0,0.0,0.0,0.0,0.0,0.0,0.0,0.0,0.0,0.0,0.0,0.0,0.0,0.0,0.0,0.0,0.0,0.0,0.0,0.0,0.0,0.0,0.0,0.0,0.0,0.0,0.0,0.0,0.0,0.0,0.0,0.0,0.0,0.0,0.0,0.0,0.0,0.0,0.0,0.0,0.0,0.0,0.0,0.0,0.0,0.0,0.0,0.0,0.0,0.0,0.0,0.0,0.0,0.0,0.0,0.0,0.0,0.0,0.0,0.0,0.0,0.0,0.0,0.0,0.0,0.0,0.0,0.0,0.0,0.0,0.0,0.0,0.0,0.0,0.0,0.0,0.0,0.0,0.0,0.0,0.0,0.0,0.0,0.0,0.0,0.0,0.0,0.0,0.0,0.0,0.0,0.0,0.0,0.0,0.0,0.0,0.0,0.0,0.0,0.5393,0.5538,0.6193,0.5888,0.5684,0.5793,0.5336,0.4992,0.4918,0.4657,0.0,0.0,0.0,0.0,0.0,0.0,0.0,0.0,0.0,0.0,0.0,0.0,0.0,0.0,0.0,0.0,0.0,0.0,0.0,0.0,0.0,0.0,0.0,0.0,0.0,0.0,0.0,0.0,0.0,0.0,0.0,0.0,0.0,0.0,0.0,0.0,0.0,0.0,0.0,0.0,0.0,0.0,0.0,0.0,0.0,0.0,0.0,0.0,0.0,0.0,0.0,0.0,0.0,0.0,0.0,0.0,0.0,0.0,0.0,0.0,0.0,0.0,0.0,0.0,0.0,0.0,0.0,0.0,0.0,0.0,0.0,0.0,0.0,0.0,0.0,0.0,0.0,0.0,0.0,0.0,0.0,0.0,0.0,0.0,0.0,0.0,0.0,0.0,0.0,0.0,0.0,0.0,0.0,0.0,0.0,0.0,0.0,0.0,0.0,0.0,0.0,0.0,0.5596,0.5884,0.6224,0.5976,0.5789,0.58,0.526,0.4921,0.4918,0.4643,0.0,0.0,0.0,0.0,0.0,0.0,0.0,0.0,0.0,0.0,0.0,0.0,0.0,0.0,0.0,0.0,0.0,0.0,0.0,0.0,0.0,0.0,0.0,0.0,0.0,0.0,0.0,0.0,0.0,0.0,0.0,0.0,0.0,0.0,0.0,0.0,0.0,0.0,0.0,0.0,0.0,0.0,0.0,0.0,0.0,0.0,0.0,0.0,0.0,0.0,0.0,0.0,0.0,0.0,0.0,0.0,0.0,0.0,0.0,0.0,0.0,0.0,0.0,0.0,0.0,0.0,0.0,0.0,0.0,0.0,0.0,0.0,0.0,0.0,0.0,0.0,0.0,0.0,0.0,0.0,0.0,0.0,0.0,0.0,0.0,0.0,0.0,0.0,0.0,0.0,0.0,0.0,0.0,0.0,0.0,0.0,0.0,0.0,0.0,0.0,0.0,0.0,0.5542,0.582,0.6217,0.5905,0.5705,0.5793,0.5418,0.5151,0.4925,0.0,0.0,0.0,0.0,0.0,0.0,0.0,0.0,0.0,0.0,0.0,0.0,0.0,0.0,0.0,0.0,0.0,0.0,0.0,0.0,0.0,0.0,0.0,0.0,0.0,0.0,0.0,0.0,0.0,0.0,0.0,0.0,0.0,0.0,0.0,0.0,0.0,0.0,0.0,0.0,0.0,0.0,0.0,0.0,0.0,0.0,0.0,0.0,0.0,0.0,0.0,0.0,0.0,0.0,0.0,0.0,0.0,0.0,0.0,0.0,0.0,0.0,0.0,0.0,0.0,0.0,0.0,0.0,0.0,0.0,0.0,0.0,0.0,0.0,0.0,0.0,0.0,0.0,0.0,0.0,0.0,0.0,0.0,0.0,0.0,0.0,0.0,0.0,0.0,0.0,0.0,0.0,0.0,0.0,0.0,0.0,0.0,0.0,0.0,0.0,0.0,0.0,0.5396,0.5606,0.5867,0.6227,0.5978,0.5705,0.5803,0.5543,0.5297,0.4992,0.0,0.0,0.0,0.0,0.0,0.0,0.0,0.0,0.0,0.0,0.0,0.0,0.0,0.0,0.0,0.0,0.0,0.0,0.0,0.0,0.0,0.0,0.0,0.0,0.0,0.0,0.0,0.0,0.0,0.0,0.0,0.0,0.0,0.0,0.0,0.0,0.0,0.0,0.0,0.0,0.0,0.0,0.0,0.0,0.0,0.0,0.0,0.0,0.0,0.0,0.0,0.0,0.0,0.0,0.0,0.0,0.0,0.0,0.0,0.0,0.0,0.0,0.0,0.0,0.0,0.0,0.0,0.0,0.0,0.0,0.0,0.0,0.0,0.0,0.0,0.0,0.0,0.0,0.0,0.0,0.0,0.0,0.0,0.0,0.0,0.0,0.0,0.0,0.0,0.0,0.0,0.0,0.0,0.0,0.0,0.0,0.0,0.0,0.0,0.0,0.0,0.0,0.5552,0.5847,0.6095,0.6261,0.6155,0.5899,0.5689,0.5483,0.5343,0.0,0.0,0.0,0.0,0.0,0.0,0.0,0.0,0.0,0.0,0.0,0.0,0.0,0.0,0.0,0.0,0.0,0.0,0.0,0.0,0.0,0.0,0.0,0.0,0.0,0.0,0.0,0.0,0.0,0.0,0.0,0.0,0.0,0.0,0.0,0.0,0.0,0.0,0.0,0.0,0.0,0.0,0.0,0.0,0.0,0.0,0.0,0.0,0.0,0.0,0.0,0.0,0.0,0.0,0.0,0.0,0.0,0.0,0.0,0.0,0.0,0.0,0.0,0.0,0.0,0.0,0.0,0.0,0.0,0.0,0.0,0.0,0.0,0.0,0.0,0.0,0.0,0.0,0.0,0.0,0.0,0.0,0.0,0.0,0.0,0.0,0.0,0.0,0.0,0.0,0.0,0.0,0.0,0.0,0.0,0.0,0.0,0.0,0.0,0.0,0.0,0.0,0.0,0.5562,0.5942,0.6213,0.6271,0.6155,0.5456,0.3998,0.4816,0.5397,0.5346,0.0,0.0,0.0,0.0,0.0,0.0,0.0,0.0,0.0,0.0,0.0,0.0,0.0,0.0,0.0,0.0,0.0,0.0,0.0,0.0,0.0,0.0,0.0,0.0,0.0,0.0,0.0,0.0,0.0,0.0,0.0,0.0,0.0,0.0,0.0,0.0,0.0,0.0,0.0,0.0,0.0,0.0,0.0,0.0,0.0,0.0,0.0,0.0,0.0,0.0,0.0,0.0,0.0,0.0,0.0,0.0,0.0,0.0,0.0,0.0,0.0,0.0,0.0,0.0,0.0,0.0,0.0,0.0,0.0,0.0,0.0,0.0,0.0,0.0,0.0,0.0,0.0,0.0,0.0,0.0,0.0,0.0,0.0,0.0,0.0,0.0,0.0,0.0,0.0,0.0,0.0,0.0,0.0,0.0,0.0,0.0,0.0,0.0,0.0,0.0,0.0,0.0,0.5654,0.6017,0.6268,0.6278,0.5399,0.4654,0.4222,0.3599,0.386,0.5319,0.0,0.0,0.0,0.0,0.0,0.0,0.0,0.0,0.0,0.0,0.0,0.0,0.0,0.0,0.0,0.0,0.0,0.0,0.0,0.0,0.0,0.0,0.0,0.0,0.0,0.0,0.0,0.0,0.0,0.0,0.0,0.0,0.0,0.0,0.0,0.0,0.0,0.0,0.0,0.0,0.0,0.0,0.0,0.0,0.0,0.0,0.0,0.0,0.0,0.0,0.0,0.0,0.0,0.0,0.0,0.0,0.0,0.0,0.0,0.0,0.0,0.0,0.0,0.0,0.0,0.0,0.0,0.0,0.0,0.0,0.0,0.0,0.0,0.0,0.0,0.0,0.0,0.0,0.0,0.0,0.0,0.0,0.0,0.0,0.0,0.0,0.0,0.0,0.0,0.0,0.0,0.0,0.0,0.0,0.0,0.0,0.0,0.0,0.0,0.0,0.0,0.0,0.5823,0.6088,0.6271,0.6295,0.4577,0.3855,0.5186,0.2352,0.1742,0.4712,0.0,0.0,0.0,0.0,0.0,0.0,0.0,0.0,0.0,0.0,0.0,0.0,0.0,0.0,0.0,0.0,0.0,0.0,0.0,0.0,0.0,0.0,0.0,0.0,0.0,0.0,0.0,0.0,0.0,0.0,0.0,0.0,0.0,0.0,0.0,0.0,0.0,0.0,0.0,0.0,0.0,0.0,0.0,0.0,0.0,0.0,0.0,0.0,0.0,0.0,0.0,0.0,0.0,0.0,0.0,0.0,0.0,0.0,0.0,0.0,0.5525,0.5542,0.0,0.0,0.0,0.0,0.0,0.0,0.0,0.0,0.0,0.0,0.0,0.0,0.0,0.0,0.0,0.0,0.0,0.0,0.0,0.0,0.0,0.0,0.0,0.0,0.0,0.0,0.0,0.0,0.0,0.0,0.0,0.0,0.0,0.0,0.0,0.0,0.0,0.0,0.0,0.0,0.6115,0.622,0.6312,0.6278,0.5767,0.4285,0.1453,0.3117,0.3355,0.1272,0.2494,0.0,0.0,0.0,0.0,0.0,0.0,0.0,0.0,0.0,0.0,0.0,0.0,0.0,0.0,0.0,0.0,0.0,0.0,0.0,0.0,0.0,0.0,0.0,0.0,0.0,0.0,0.0,0.0,0.0,0.0,0.0,0.0,0.0,0.0,0.0,0.0,0.0,0.0,0.0,0.0,0.0,0.0,0.0,0.0,0.0,0.0,0.0,0.0,0.0,0.0,0.0,0.0,0.0,0.0,0.0,0.0,0.0,0.0,0.0,0.5755,0.5691,0.0,0.0,0.0,0.0,0.0,0.0,0.0,0.0,0.0,0.0,0.0,0.0,0.0,0.0,0.0,0.0,0.0,0.0,0.0,0.0,0.0,0.0,0.0,0.0,0.0,0.0,0.0,0.0,0.0,0.0,0.0,0.0,0.0,0.0,0.0,0.0,0.0,0.0,0.0,0.0,0.621,0.6322,0.6393,0.6398,0.622,0.5229,0.2987,0.2804,0.1973,0.0134,0.086,0.0,0.0,0.0,0.0,0.0,0.0,0.0,0.0,0.0,0.0,0.0,0.0,0.0,0.0,0.0,0.0,0.0,0.0,0.0,0.0,0.0,0.0,0.0,0.0,0.0,0.0,0.0,0.0,0.0,0.0,0.0,0.0,0.0,0.0,0.0,0.0,0.0,0.0,0.0,0.0,0.0,0.0,0.0,0.0,0.0,0.0,0.0,0.0,0.0,0.0,0.0,0.0,0.0,0.6558,0.6278,0.638,0.6403,0.6413,0.6396,0.6118,0.5952,0.5943,0.6518,0.0,0.0,0.0,0.0,0.0,0.0,0.0,0.0,0.0,0.0,0.0,0.0,0.0,0.0,0.0,0.0,0.0,0.0,0.0,0.0,0.0,0.0,0.544,0.544,0.544,0.544,0.544,0.0,0.0,0.0,0.0,0.0,0.0,0.0,0.0,0.0,0.0,0.0,0.6298,0.6417,0.6481,0.6508,0.6346,0.6129,0.5871,0.2553,0.0345,0.0,0.0,0.0,0.0,0.0,0.0,0.0,0.0,0.0,0.0,0.0,0.0,0.0,0.0,0.0,0.0,0.0,0.0,0.0,0.0,0.0,0.0,0.0,0.0,0.0,0.0,0.0,0.0,0.0,0.0,0.0,0.0,0.0,0.0,0.0,0.9317,0.8969,0.0,0.0,0.0,0.0,0.0,0.0,0.0,0.0,0.0,0.0,0.0,0.0,0.0,0.7638,0.766,0.7845,0.7868,0.7754,0.7224,0.6939,0.6844,0.6966,0.7024,0.7014,0.6851,0.0,0.6276,0.6329,0.0,0.0,0.0,0.0,0.0,0.0,0.0,0.0,0.0,0.0,0.0,0.0,0.0,0.0,0.0,0.0,0.0,0.0,0.0,0.0,0.0,0.0,0.5742,0.5742,0.5742,0.5742,0.5742,0.5542,0.5428,0.5428,0.5428,0.5403,0.0,0.0,0.0,0.0,0.0,0.0,0.6603,0.6542,0.6522,0.6658,0.6305,0.6,0.5985,0.3756,0.1655,0.0067,0.0,0.0,0.0,0.0467,0.0,0.0,0.0,0.0,0.0,0.0,0.0,0.0,0.0,0.0,0.0,0.0,0.0,0.0,0.0,0.0,0.0,0.0,0.0,0.0,0.0,0.0,0.0,0.0,0.0,0.0,0.0,0.0,0.0,0.9217,0.9603,0.9497,0.991,1.0199,0.0,0.0,0.0,0.0,0.0,0.0,0.0,0.0,0.0,0.826,0.8686,0.8711,0.8316,0.8501,0.8649,0.8683,0.9183,0.9491,0.9518,0.9508,0.9186,0.8461,0.8391,0.7837,0.6943,0.7079,0.6805,0.6342,0.0,0.0,0.0,0.0,0.6129,0.6084,0.6251,0.6101,0.5861,0.601,0.0,0.0,0.0,0.0,0.0,0.0,0.0,0.5857,0.5945,0.6013,0.6061,0.6061,0.6061,0.6061,0.6061,0.5959,0.5817,0.5644,0.561,0.563,0.5698,0.5708,0.0,0.0,0.0,0.6488,0.679,0.6841,0.681,0.6712,0.6525,0.6362,0.6201,0.5087,0.318,0.0206,0.0,0.0,0.0,0.0,0.0736,0.0,0.0,0.0,0.0,0.0,0.0,0.0,0.0,0.0,0.0,0.0,0.0,0.0,0.0,0.0,0.0,0.0,0.0,0.0,0.0,0.0,0.0,0.0,0.0,0.0,0.0,0.0,0.0,0.9971,1.0018,0.9823,1.0125,1.0467,0.0,0.0,0.0,0.0,0.0,0.0,0.992,1.088,1.1025,1.0274,1.0368,1.0223,0.9584,0.9703,0.9611,0.9396,1.0452,1.0833,1.0604,1.0604,1.0041,0.9103,0.9055,0.8505,0.7537,0.768,0.7252,0.6713,0.7236,0.7114,0.6498,0.6603,0.6576,0.6519,0.6736,0.6546,0.6227,0.6383,0.6224,0.5979,0.602,0.0,0.0,0.0,0.0,0.6237,0.6393,0.6461,0.6478,0.6441,0.6461,0.6464,0.639,0.6403,0.6332,0.5986,0.5918,0.5928,0.5966,0.5973,0.0,0.6386,0.6552,0.6725,0.6953,0.7075,0.7041,0.6787,0.6722,0.662,0.6294,0.6094,0.4458,0.0909,0.0275,0.0,0.0,0.0,0.0,0.0,0.0,0.0,0.0,0.0,0.0,0.0,0.0,0.0,0.0,0.0,0.0,0.0,0.0,0.0,0.0,0.0,0.0,0.0,0.0,0.0,0.0,0.0,0.0,0.0,0.0,0.0,0.0,0.0,0.0,1.0251,1.1627,0.0,0.0,0.0,0.0,1.2652,1.2888,1.2702,1.1987,1.2326,1.2152,1.1253,1.1274,1.1289,1.14,1.1538,1.1,0.9784,0.9968,0.9375,0.8212,0.8212,0.8113,0.8107,0.7959,0.789,0.7767,0.7547,0.7241,0.7105,0.7099,0.7095,0.7095,0.7102,0.7102,0.7099,0.7112,0.6919,0.6692,0.6848,0.6688,0.6464,0.661,0.6461,0.0,0.0,0.6668,0.6702,0.6854,0.6997,0.7061,0.6926,0.6997,0.7017,0.6739,0.6793,0.6766,0.6325,0.6237,0.6281,0.6417,0.0,0.6542,0.6851,0.7014,0.7112,0.7129,0.7136,0.7085,0.6932,0.6787,0.6576,0.6355,0.6264,0.5234,0.2734,0.0979,0.0,0.0,0.0,0.0,0.0,0.3565,0.0,0.0,0.0,0.0,0.0,0.0,0.0,0.0,0.0,0.0,0.0,0.0,0.0,0.0,0.0,0.0,0.0,0.0,0.0,0.0,0.0,0.0,0.0,0.0,0.0,0.0,0.0,0.0,1.2273,1.2324,0.0,1.2557,1.2864,1.2955,1.248,1.2757,1.2748,1.2156,1.3009,1.3532,1.3562,1.3574,1.3614,1.3601,1.3692,1.3435,1.3039,1.3928,1.4073,1.3568,1.3568,1.2982,1.2038,1.1185,1.0203,0.9116,0.8229,0.7658,0.7434,0.7434,0.7434,0.7434,0.7434,0.7434,0.7434,0.7434,0.7302,0.7126,0.7078,0.699,0.6912,0.6966,0.6909,0.6868,0.7075,0.7132,0.717,0.7322,0.7397,0.7424,0.7373,0.7397,0.7407,0.7302,0.7322,0.7312,0.7153,0.6888,0.6675,0.6627,0.6776,0.6939,0.7048,0.7275,0.7434,0.7434,0.7434,0.7339,0.7092,0.6936,0.6725,0.6424,0.6329,0.5316,0.3094,0.1068,0.0,0.0,0.0,0.0,0.0,0.2426,0.3368,0.0,0.0,0.0,0.0,0.0,0.0,0.0,0.0,0.0,0.0,0.0,0.0,0.0,0.0,0.0,0.0,0.0,0.0,0.0,0.0,0.0,0.0,0.0,0.0,0.0,1.2331,1.2531,1.3665,1.3361,1.3269,1.3864,1.4115,1.3998,1.3554,1.3826,1.3882,1.3716,1.4539,1.5146,1.5593,1.5512,1.5512,1.5605,1.5512,1.5261,1.485,1.567,1.5777,1.5368,1.5368,1.4761,1.3785,1.2809,1.18,1.0775,0.9727,0.9178,0.8977,0.803,0.7746,0.7746,0.7746,0.7746,0.774,0.7689,0.7604,0.7495,0.7343,0.7295,0.7305,0.7353,0.7333,0.7339,0.7539,0.756,0.7553,0.7709,0.7746,0.7736,0.7682,0.7709,0.7723,0.7621,0.7638,0.7655,0.7607,0.736,0.7122,0.7021,0.7166,0.7312,0.736,0.7539,0.7672,0.7672,0.7672,0.7573,0.7322,0.7166,0.6956,0.6651,0.6549,0.5795,0.4273,0.1528,0.0,0.0,0.0,0.0,0.0,0.1755,0.2982,0.361,0.0,0.0,0.0,0.0,0.0,0.0,0.0,0.0,0.0,0.0,0.0,0.0,0.0,0.0,0.0,0.0,0.0,0.0,0.0,0.0,0.0,0.0,0.0,1.2889,1.3567,1.4122,1.4155,1.4656,1.4897,1.4616,1.5104,1.5558,1.5845,1.6132,1.6433,1.6734,1.6747,1.6881,1.7181,1.6914,1.6894,1.7174,1.6887,1.6117,1.4874,1.4874,1.4259,1.2936,1.2936,1.2936,1.2915,1.2586,1.2484,1.2463,1.2041,1.1945,1.1653,0.9019,0.8038,0.8038,0.8041,0.8038,0.8018,0.7868,0.7818,0.7794,0.7658,0.7614,0.7638,0.7777,0.7723,0.7675,0.796,0.7933,0.7851,0.8001,0.8038,0.8001,0.7851,0.7933,0.7963,0.7675,0.7723,0.7777,0.7641,0.7614,0.7611,0.76,0.7607,0.7658,0.779,0.7814,0.0,0.7818,0.7814,0.7756,0.7621,0.7465,0.7251,0.6953,0.6847,0.6634,0.6368,0.2386,0.0073,0.0,0.0,0.0,0.0,0.1692,0.35,0.5434,0.0,0.0,0.0,0.0,0.0,0.0,0.0,0.0,0.0,0.0,0.0,0.0,0.0,0.0,0.0,0.0,0.0,0.0,0.0,0.0,0.0,1.3736,1.4441,1.4441,1.4569,1.4957,1.5598,1.5812,1.5965,1.6092,1.6253,1.6466,1.6767,1.6867,1.7134,1.7649,1.7675,1.7816,1.8116,1.8043,1.7936,1.7802,1.7716,1.7345,1.6808,1.6808,1.6593,1.6273,1.6273,1.6166,1.5965,1.4659,1.403,1.3644,1.2428,1.1945,1.175,1.0096,0.941,0.9316,0.8333,0.8038,0.8035,0.7991,0.7977,0.797,0.7929,0.7919,0.7926,0.7967,0.795,0.7936,0.8018,0.8011,0.7987,0.8028,0.8038,0.8028,0.7987,0.8011,0.8018,0.7936,0.795,0.7967,0.7926,0.7919,0.7851,0.7638,0.7777,0.7892,0.7821,0.7906,0.7977,0.7977,0.7879,0.7797,0.7756,0.7526,0.7251,0.6953,0.6831,0.6682,0.6597,0.3878,0.1558,0.0071,0.0,0.0,0.0,0.0499,0.229,0.0,0.0,0.0,0.0,0.0,0.0,0.0,0.0,0.0,0.0,0.0,0.0,0.0,0.0,0.0,0.0,0.0,0.0,0.0,0.0,0.0,0.0,1.4583,1.5277,1.5645,1.5591,1.5745,1.638,1.6567,1.6707,1.6874,1.7108,1.7328,1.7508,1.7642,1.7862,1.8217,1.823,1.837,1.8664,1.8557,1.8464,1.8417,1.817,1.7956,1.7776,1.7642,1.7582,1.7582,1.7582,1.7488,1.7308,1.6151,1.5482,1.5196,1.4031,1.3499,1.3307,0.0,0.0,0.0,0.0,0.8531,0.8038,0.8038,0.8038,0.8038,0.8038,0.8038,0.8038,0.8038,0.8038,0.8038,0.8038,0.8038,0.8038,0.8038,0.8038,0.8038,0.8038,0.8038,0.8038,0.8038,0.8038,0.8038,0.8038,0.8038,0.0,0.7814,0.7926,0.8011,0.7919,0.7984,0.8038,0.8038,0.7963,0.7882,0.7818,0.7604,0.7322,0.6959,0.6848,0.0,0.0,0.0,0.2349,0.0074,0.0,0.0,0.0,0.0,0.1025,0.3119,0.4691,0.0,0.0,0.2979,0.4484,0.0,0.0,0.0,0.0,0.0,0.0,0.0,0.0,0.0,0.0,0.0,0.0,0.0,0.0,0.0,0.0,1.5478,1.5838,1.6687,1.6587,1.6513,1.6774,1.7068,1.7268,1.7295,1.7769,1.809,1.8143,1.839,1.8551,1.8591,1.8591,0.0,0.0,0.0,1.8684,1.8871,1.839,1.811,1.8043,1.7769,1.7635,1.7629,1.7595,1.7582,1.7555,1.6994,1.6734,1.666,1.6106,1.5858,1.5534,1.2915,1.177,1.1394,1.0199,0.9019,0.8038,0.8137,0.0,0.0,0.8137,0.8137,0.8038,0.8038,0.8038,0.8038,0.8038,0.8038,0.8038,0.8038,0.8038,0.8038,0.8038,0.8038,0.8038,0.8038,0.8038,0.8038,0.8038,0.8038,0.8038,0.8038,0.8038,0.8038,0.8038,0.8038,0.8038,0.8038,0.8038,0.798,0.7828,0.7685,0.0,0.699,0.6922,0.6685,0.6322,0.4332,0.224,0.0076,0.0,0.0,0.0,0.0,0.0,0.0,0.3203,0.316,0.0,0.0,0.1998,0.0,0.0,0.0,0.0,0.0,0.0,0.0,0.0,0.0,0.0,0.0,0.0,0.0,0.0,0.0,1.5351,1.5992,1.668,1.7321,1.7361,1.7348,1.7408,1.7682,1.7969,1.821,1.8337,1.8497,1.8738,1.8804,1.8945,1.9185,1.9199,1.9225,1.9279,1.9225,1.8998,1.8577,1.8698,1.8517,1.805,1.7989,0.0,1.7949,1.7695,1.7582,1.7562,1.7215,1.6927,1.668,1.6326,1.6046,1.5534,1.2915,1.0681,0.891,0.8578,0.8233,0.8137,0.9217,0.892,0.8137,0.9213,0.8924,0.8038,0.8038,0.8038,0.0,0.8038,0.8038,0.8038,0.8038,0.8038,0.8038,0.8038,0.8038,0.8038,0.8038,0.8038,0.8038,0.8038,0.8038,0.8038,0.8038,0.8038,0.8038,0.8038,0.8038,0.8038,0.8038,0.8038,0.798,0.7828,0.7685,0.7465,0.7129,0.6881,0.6651,0.6354,0.2787,0.0459,0.0,0.0,0.0,0.0,0.0,0.0,0.0,0.0702,0.0704,0.0,0.0,0.0469,0.0,0.0,0.0,0.0,0.0,0.0,0.0,0.0,0.0,0.0,0.0,1.4349,1.4496,0.0,1.5979,1.642,1.6987,1.7528,1.7976,1.8163,1.8196,1.8056,1.8303,1.8544,1.8691,1.8838,1.8991,1.9132,1.9145,1.9212,1.9359,1.9366,1.9366,1.9366,1.9366,1.9225,1.8931,1.8925,1.8778,1.8484,1.8183,1.805,1.8036,1.7722,1.7502,1.7348,1.7054,1.676,1.6466,1.6172,1.5654,1.4849,1.3448,1.1717,1.0129,1.0031,0.9114,0.8137,0.8726,0.8528,0.8137,0.8825,0.8528,0.8038,0.8038,0.8038,0.8038,0.8038,0.8038,0.8038,0.8038,0.8038,0.8038,0.8038,0.8038,0.8038,0.8038,0.8038,0.8038,0.8038,0.8038,0.8038,0.8038,0.8038,0.8038,0.8038,0.8038,0.8038,0.8038,0.8038,0.798,0.7828,0.7685,0.7475,0.7166,0.6726,0.6413,0.627,0.2352,0.0,0.0,0.0,0.0,0.0,0.0,0.0,0.0,0.0,0.0,0.0,0.0,0.0,0.0,0.0,0.0,0.0,0.0,0.0,0.0,1.4195,1.4255,1.4609,1.491,1.5244,1.5658,1.6219,1.684,1.7549,1.7929,1.8237,1.8531,1.8778,1.8858,1.8677,1.8871,1.9011,1.9011,1.9225,1.9366,1.9366,1.9366,1.9366,1.9366,1.9366,1.9366,1.9366,1.9366,1.9339,1.9279,1.9038,1.8891,1.8831,1.8297,1.805,1.8036,1.7722,1.7455,1.7215,1.686,1.6573,1.6333,1.5979,1.5281,1.4374,1.4352,1.3494,1.2237,1.2042,1.0386,0.8432,0.8627,0.8432,0.8038,0.8333,0.8237,0.8038,0.8038,0.8038,0.8038,0.8038,0.8038,0.8038,0.8038,0.8038,0.8038,0.8038,0.8038,0.8038,0.8038,0.8038,0.8038,0.8038,0.8038,0.8038,0.8038,0.8038,0.8038,0.8038,0.8038,0.8038,0.8038,0.8038,0.798,0.7828,0.7709,0.7506,0.717,0.6713,0.6413,0.6319,0.2715,0.0395,0.0,0.0,0.0,0.0,0.0,0.0,0.0,0.0,0.0,0.0,0.0,0.0,1.3186,1.3614,1.4142,1.4369,1.4422,1.4763,0.0,1.6166,1.6139,1.6693,1.7041,1.7181,1.6987,1.7428,1.7849,1.7949,1.8237,1.8544,1.8831,1.8905,1.9011,1.9245,1.9299,1.9319,1.9319,1.9352,1.9366,1.9366,1.9366,1.9366,1.9366,1.9366,1.9366,1.9366,1.9366,1.9239,1.8978,1.8938,1.8791,1.8537,1.8203,1.805,1.8036,1.7722,1.7562,1.7502,1.6947,1.6687,1.6613,1.6059,1.575,1.558,1.5547,1.4758,1.3488,1.2334,1.0974,0.9899,1.1072,0.9899,0.8237,0.941,0.892,0.8038,0.8038,0.8038,0.8038,0.8038,0.8038,0.8038,0.8038,0.8038,0.8038,0.8038,0.8038,0.8038,0.8038,0.8038,0.8038,0.8038,0.8038,0.8038,0.8038,0.8038,0.8038,0.8038,0.8038,0.8038,0.8038,0.8038,0.798,0.7828,0.7797,0.7611,0.7177,0.6893,0.6665,0.6306,0.4091,0.1955,0.0083,0.0,0.0,0.0,0.0,0.0,0.0,0.0,0.0,0.0,0.0,0.0,1.4389,1.4536,1.475,1.5384,1.5538,1.5792,1.6747,1.6867,1.6901,1.7315,1.7635,1.7802,1.7695,1.815,1.8544,1.8544,1.8798,1.9045,1.9165,1.9185,1.9165,1.9118,1.9259,1.9366,1.9366,1.9519,1.9619,1.9619,1.9619,1.9619,1.9619,1.9459,1.9366,1.9366,1.9366,1.9305,1.9185,1.9011,1.8865,1.8738,1.827,1.805,1.8036,1.7722,1.7488,1.7295,1.6707,1.6453,1.642,1.5999,1.5832,1.5832,1.5832,1.5439,1.4854,1.3494,1.2231,1.117,1.1755,1.0681,0.9217,0.9805,0.9118,0.8038,0.8038,0.8038,0.8038,0.8038,0.8038,0.8038,0.8038,0.8038,0.8038,0.8038,0.8038,0.8038,0.8038,0.8038,0.8038,0.8038,0.8038,0.8038,0.8038,0.8038,0.8038,0.8038,0.8038,0.8038,0.8038,0.8038,0.798,0.7828,0.7736,0.7577,0.7299,0.7061,0.683,0.68,0.4441,0.2158,0.0084,0.0,0.0,0.0,0.0,0.0,0.0,0.0,0.0,0.0,0.0,0.0,1.5037,1.5237,1.5498,1.6213,1.658,1.6894,1.7402,1.7582,1.7722,1.8016,1.8237,1.8397,1.841,1.8758,1.9045,1.9045,1.9225,1.9366,1.9366,1.9299,1.9165,1.8951,1.9045,1.9158,1.9239,1.9579,1.9833,1.9913,1.992,1.992,1.992,1.9646,1.9486,1.9486,1.9412,1.9366,1.9366,1.9072,1.8885,1.8798,1.829,1.8003,1.7909,1.7689,1.7422,1.7121,1.6613,1.6346,1.6253,1.5952,1.5832,1.5832,1.5832,1.5832,1.573,1.4752,1.359,1.2425,1.2425,1.1653,1.0485,1.0485,0.9608,0.8528,0.8528,0.8333,0.8038,0.8038,0.8038,0.8038,0.8038,0.8038,0.8038,0.8038,0.8038,0.8038,0.8038,0.8038,0.8038,0.8038,0.8038,0.8038,0.8038,0.8038,0.8038,0.8038,0.8038,0.8038,0.8038,0.8038,0.7997,0.7885,0.7743,0.7597,0.7448,0.72,0.7048,0.7125,0.463,0.229,0.0086,0.0,0.0,0.0,0.0,0.0,0.0,0.0,0.0,0.0,0.0,0.0,1.4543,1.5371,1.6306,1.6613,1.7348,1.8076,1.8384,1.8664,1.8951,1.9252,1.9319,1.9325,1.9325,1.9339,1.9352,1.9352,1.9359,1.9366,1.9366,1.9118,1.8931,1.8925,1.8684,1.8631,1.8911,1.9459,1.9913,2.0194,2.0221,2.0221,2.0221,1.9947,1.9786,1.9786,1.9512,1.9366,1.9366,1.9072,1.8784,1.8504,1.8196,1.7889,1.7595,1.7589,1.7422,1.7134,1.6827,1.6533,1.6253,1.5952,1.5832,1.5832,1.5832,1.5832,1.5832,1.573,1.4949,1.3878,1.3878,1.3006,1.1853,1.1853,1.0974,0.9903,0.9903,0.9019,0.8038,0.8038,0.8038,0.8038,0.8038,0.8038,0.8038,0.8038,0.8038,0.8038,0.8038,0.8038,0.8038,0.8038,0.8038,0.8038,0.8038,0.8038,0.8038,0.8038,0.8038,0.8038,0.8038,0.8038,0.8038,0.8031,0.7896,0.7746,0.7604,0.7448,0.7302,0.7088,0.4908,0.2532,0.0089,0.0,0.0,0.0,0.0,0.0,0.0,0.0,0.0,0.0,0.0,0.0,1.549,1.6612,1.7846,1.7874,1.8116,1.8524,1.9205,1.9285,1.9299,1.9593,1.9192,1.8784,1.8784,1.8624,1.8557,1.8751,1.8951,1.9072,1.9072,1.9158,1.8998,1.841,1.8771,1.9032,1.8931,1.9279,1.9633,1.992,2.0127,2.0147,1.9953,1.9853,1.9713,1.9519,1.9419,1.9272,1.9078,1.8784,1.849,1.819,1.7883,1.7682,1.7582,1.7582,1.7422,1.7134,1.6834,1.654,1.6253,1.5952,1.5832,1.5832,1.5832,1.5832,1.5832,1.5832,1.5534,1.5146,1.5146,1.4268,1.3199,1.3199,1.1745,0.9998,0.9998,0.9019,0.8038,0.8038,0.8038,0.8038,0.8038,0.8038,0.8038,0.8038,0.8038,0.8038,0.8038,0.8038,0.8038,0.8038,0.8038,0.8038,0.8038,0.8038,0.8038,0.8038,0.7953,0.7926,0.8028,0.7868,0.7784,0.7879,0.7668,0.7499,0.7451,0.7305,0.7207,0.7088,0.6328,0.4174,0.0179,0.0,0.0,0.0,0.0,0.0,0.0,0.0,0.0,0.0,0.0,0.0,1.6313,1.7237,1.8387,1.8583,1.8724,1.8951,1.9519,1.9499,1.9392,1.9472,1.8958,1.8457,1.835,1.8083,1.7909,1.7996,1.817,1.8364,1.8577,1.8677,1.8637,1.839,1.8771,1.9018,1.8931,1.9098,1.9412,1.992,2.0227,2.0261,1.9967,1.9953,1.982,1.9533,1.9419,1.9225,1.8925,1.8738,1.8444,1.8043,1.7736,1.7582,1.7582,1.7582,1.7422,1.7134,1.6834,1.654,1.6253,1.5952,1.5832,1.5832,1.5832,1.5832,1.5832,1.5832,1.5832,1.5832,1.5832,1.5242,1.4561,1.4561,1.3102,1.1258,1.0779,0.9805,0.8627,0.8137,0.8038,0.8038,0.8038,0.8038,0.8038,0.8038,0.8038,0.8038,0.8038,0.8038,0.8038,0.8038,0.8038,0.8038,0.8038,0.8038,0.8038,0.8038,0.7909,0.7865,0.8021,0.7875,0.779,0.7882,0.7675,0.7509,0.7458,0.7312,0.7207,0.7074,0.7091,0.5377,0.1429,0.0448,0.0,0.0,0.0,0.0,0.0,0.0,0.0,0.0,0.0,0.0,1.6982,1.7519,1.807,1.8836,1.9266,1.9482,1.9502,1.9482,1.9265,1.8985,1.8657,1.833,1.8036,1.7736,1.7455,1.7215,1.7298,1.7422,1.8009,1.7849,1.7976,1.8804,1.8684,1.8637,1.8898,1.8938,1.9292,2.0127,2.0461,2.0501,2.0207,2.0201,2.008,1.9786,1.9499,1.9199,1.8905,1.8871,1.8571,1.8016,1.7722,1.7582,1.7582,1.7582,1.7415,1.7114,1.6827,1.6533,1.6226,1.5945,1.5832,1.5832,1.5832,1.5832,1.5832,1.5832,1.5832,1.5825,1.573,1.573,1.573,1.5635,1.4752,1.3488,1.2237,1.0877,0.9608,0.8333,0.8038,0.8038,0.8038,0.8038,0.8038,0.8038,0.8038,0.8038,0.8038,0.8038,0.8038,0.8038,0.8038,0.8038,0.8038,0.8038,0.8038,0.8038,0.7916,0.7875,0.8021,0.8021,0.8007,0.8018,0.7872,0.7723,0.7587,0.7444,0.7295,0.7149,0.7084,0.6008,0.366,0.1254,0.0,0.0,0.0,0.0,0.0,0.0,0.0,0.0,0.0,0.0,1.7905,1.9757,2.1604,2.1009,2.0972,2.1096,2.1329,2.0127,1.9018,1.8938,1.8163,1.7402,1.7101,1.6981,1.7048,1.7415,1.7856,1.8277,1.8644,1.8824,1.8838,1.8624,1.8925,1.9085,1.8938,1.9125,1.9345,1.9573,1.986,1.9893,1.9599,1.9793,1.978,1.9486,1.9192,1.8898,1.8604,1.815,1.7849,1.7702,1.7622,1.7582,1.7582,1.7582,1.7301,1.6814,1.674,1.6413,1.5939,1.5858,1.5832,1.5832,1.5832,1.5832,1.5832,1.5832,1.5832,1.5635,1.4752,1.4364,1.4268,1.3204,1.2042,1.097,1.0583,0.9608,0.8432,0.8137,0.8038,0.8038,0.8038,0.8038,0.8038,0.8038,0.8038,0.8038,0.8038,0.8038,0.8038,0.8038,0.8038,0.8038,0.8038,0.8038,0.8038,0.8038,0.8007,0.7994,0.8035,0.7746,0.7587,0.7699,0.7472,0.7299,0.7261,0.7221,0.7183,0.7143,0.7084,0.6008,0.366,0.1254,0.0,0.0,0.0,0.0,0.0,0.0,0.0,0.0,0.0,0.0,1.8428,1.9854,2.119,2.0737,2.048,2.0388,2.043,1.9408,1.8464,1.8196,1.7508,1.6867,1.6567,1.6513,1.6627,1.6954,1.7402,1.7903,1.845,1.8671,1.8851,1.9045,1.9245,1.9352,1.9312,1.9345,1.9366,1.9366,1.9639,1.9673,1.9379,1.9519,1.9472,1.9185,1.8885,1.8591,1.8297,1.7822,1.7582,1.7582,1.7582,1.7515,1.7388,1.7388,1.7141,1.67,1.6573,1.6326,1.6012,1.5885,1.5832,1.5832,1.5832,1.5832,1.5832,1.5832,1.5832,1.5635,1.4364,1.3488,1.2909,1.2139,1.1463,1.0681,1.0194,0.9509,0.8726,0.8137,0.8038,0.8038,0.8038,0.8038,0.8038,0.8038,0.8038,0.8038,0.8038,0.8038,0.8038,0.8038,0.8038,0.8038,0.8038,0.8038,0.8038,0.8038,0.8038,0.8038,0.8038,0.7821,0.7699,0.7784,0.7577,0.7407,0.7346,0.7282,0.7214,0.7143,0.7084,0.6008,0.366,0.1265,0.0,0.0,0.0,0.0,0.0,0.0,0.0,0.0,0.0,0.0,1.8764,1.9092,1.9367,1.9584,1.9414,1.9115,1.8823,1.8245,1.7722,1.7201,1.6827,1.6513,1.6259,1.6246,1.6299,1.6373,1.6633,1.7128,1.8009,1.8136,1.8537,1.9613,1.9519,1.9466,1.972,1.9512,1.9352,1.9312,1.9579,1.9619,1.9325,1.9345,1.9212,1.8878,1.8584,1.829,1.7989,1.7716,1.7582,1.7582,1.7582,1.7428,1.7148,1.7148,1.6967,1.6633,1.638,1.6253,1.6192,1.5939,1.5832,1.5832,1.5832,1.5832,1.5832,1.5832,1.5832,1.5635,1.4364,1.3006,1.1853,1.1653,1.156,1.117,1.0096,0.9706,0.9509,0.8333,0.8038,0.8038,0.8038,0.8038,0.8038,0.8038,0.8038,0.8038,0.8038,0.8038,0.8038,0.8038,0.8038,0.8038,0.8038,0.8038,0.8038,0.8038,0.8038,0.8038,0.8038,0.8021,0.8001,0.7984,0.7845,0.7695,0.755,0.7417,0.7282,0.7149,0.7084,0.6008,0.366,0.1275,0.0,0.0,0.0,0.0,0.0,0.0,0.0,0.0,0.0,0.0,1.9178,2.0172,2.1119,2.0906,2.0604,2.0288,2.0071,1.8421,1.6907,1.6807,1.6353,1.5965,1.5912,1.6106,1.6433,1.6921,1.7241,1.7742,1.8637,1.8764,1.8931,1.9386,1.9399,1.9386,1.9432,1.9399,1.9265,1.9018,1.9272,1.9312,1.9018,1.9232,1.9125,1.8584,1.8277,1.7976,1.7662,1.7609,1.7582,1.7582,1.7582,1.7428,1.7148,1.7148,1.686,1.6346,1.6293,1.6132,1.5905,1.5852,1.5832,1.5832,1.5832,1.5832,1.5832,1.5832,1.5832,1.5635,1.4364,1.3006,1.1755,1.0681,0.9608,0.8627,0.8432,0.8333,0.8336,0.8038,0.8038,0.8038,0.8038,0.8038,0.8038,0.8038,0.8038,0.8038,0.8038,0.8038,0.8038,0.8038,0.8038,0.8038,0.8038,0.8038,0.8038,0.8038,0.8038,0.8038,0.8038,0.7929,0.7804,0.7689,0.7539,0.7387,0.7231,0.7193,0.717,0.7143,0.7084,0.6008,0.366,0.1259,0.0,0.0,0.0,0.0,0.0,0.0,0.0,0.0,0.0,0.0,1.9285,1.9924,2.0401,2.009,1.9644,1.917,1.88,1.7502,1.644,1.6279,1.6025,1.5832,1.5832,1.6072,1.6413,1.6847,1.7168,1.7669,1.8571,1.8698,1.8918,1.9519,1.9459,1.9426,1.9579,1.9319,1.9145,1.9152,1.9145,1.9078,1.8931,1.9058,1.8865,1.8277,1.8123,1.7896,1.7589,1.7582,1.7582,1.7582,1.7582,1.7428,1.7148,1.6987,1.6687,1.6266,1.6112,1.5965,1.5832,1.5832,1.5832,1.5832,1.5832,1.5832,1.5832,1.5832,1.5832,1.573,1.514,1.3596,1.1755,1.117,0.9604,0.8038,0.8038,0.8038,0.8038,0.8038,0.8038,0.8038,0.8038,0.8038,0.8038,0.8038,0.8038,0.8038,0.8038,0.8038,0.8038,0.8038,0.8038,0.8038,0.8038,0.8038,0.8038,0.8038,0.8038,0.8038,0.8038,0.7977,0.7872,0.7726,0.7645,0.7509,0.7282,0.7333,0.7312,0.7149,0.7065,0.6076,0.3662,0.128,0.0,0.0,0.0,0.0,0.0,0.0,0.0,0.0,0.0,0.0,1.9118,1.9225,1.9185,1.8818,1.8277,1.7695,1.7174,1.6553,1.6039,1.5865,1.5778,1.5758,1.5818,1.6019,1.6273,1.6567,1.6807,1.7275,1.817,1.8357,1.8698,1.9512,1.9466,1.9459,1.9686,1.9292,1.9092,1.9259,1.9058,1.8951,1.9018,1.8838,1.8577,1.8243,1.805,1.7862,1.7682,1.7615,1.7582,1.7582,1.7582,1.7428,1.7141,1.684,1.6547,1.6259,1.5959,1.5832,1.5832,1.5832,1.5832,1.5832,1.5832,1.5832,1.5832,1.5832,1.5832,1.573,1.5534,1.3884,1.1848,1.1556,0.9899,0.8038,0.8038,0.8038,0.8038,0.8038,0.8038,0.8038,0.8038,0.8038,0.8038,0.8038,0.8038,0.8038,0.8038,0.8038,0.8038,0.8038,0.8038,0.8038,0.8038,0.8038,0.8038,0.8038,0.8038,0.8038,0.8038,0.8038,0.797,0.7784,0.7767,0.7645,0.735,0.7431,0.74,0.7074,0.7105,0.6297,0.4387,0.1571,0.0,0.0,0.0,0.0,0.0,0.0,0.0,0.0,0.0,0.0,1.8564,1.8764,1.8824,1.8243,1.7662,1.7141,1.682,1.6086,1.5545,1.5778,1.5618,1.5518,1.5785,1.5852,1.5965,1.6266,1.6333,1.666,1.7542,1.7909,1.8317,1.8931,1.9219,1.9379,1.9406,1.9359,1.9225,1.8985,1.8938,1.9038,1.9312,1.8564,1.8343,1.8831,1.805,1.7749,1.8003,1.7722,1.7582,1.7582,1.7582,1.7428,1.7141,1.684,1.6547,1.6259,1.5959,1.5832,1.5832,1.5832,1.5832,1.5832,1.5832,1.5832,1.5832,1.5832,1.5832,1.5635,1.4459,1.3108,1.175,1.0583,0.9217,0.8038,0.8038,0.8038,0.8038,0.8038,0.8038,0.8038,0.8038,0.8038,0.8038,0.8038,0.8038,0.8038,0.8038,0.8038,0.8038,0.8038,0.8038,0.8038,0.8038,0.8038,0.8038,0.8038,0.8038,0.8038,0.8038,0.8038,0.7933,0.7648,0.7617,0.7495,0.7187,0.7173,0.7091,0.7081,0.7108,0.7035,0.6767,0.2434,0.0,0.0,0.0,0.0,0.0,0.0,0.0,0.0,0.0,0.0,1.839,1.8704,1.8784,1.8183,1.7455,1.6847,1.6734,1.6025,1.5478,1.5765,1.5738,1.5691,1.5805,1.5832,1.5865,1.5985,1.6005,1.6253,1.6954,1.7161,1.7595,1.8551,1.8771,1.8978,1.9332,1.9205,1.9052,1.8931,1.9092,1.9239,1.9359,1.9032,1.8791,1.8664,1.8317,1.8016,1.7769,1.7642,1.7582,1.7582,1.7582,1.7522,1.7402,1.7108,1.6814,1.652,1.6226,1.5999,1.5832,1.5832,1.5832,1.5832,1.5832,1.5832,1.5832,1.5832,1.5832,1.5635,1.4364,1.3006,1.1658,1.0386,0.9118,0.8038,0.8038,0.8038,0.8038,0.8038,0.8038,0.8038,0.8038,0.8038,0.8038,0.8038,0.8038,0.8038,0.8038,0.8038,0.8038,0.8038,0.8038,0.8038,0.8038,0.8038,0.8038,0.8038,0.8038,0.8038,0.8038,0.8038,0.796,0.775,0.7726,0.7567,0.7173,0.7309,0.7346,0.7094,0.5891,0.5761,0.7083,0.2561,0.0,0.0,0.0,0.0,0.0,0.0,0.0,0.0,0.0,0.0,1.7849,1.8237,1.841,1.7903,1.7108,1.6446,1.6446,1.5899,1.5451,1.5658,1.5765,1.5832,1.5832,1.5832,1.5832,1.5832,1.5832,1.6005,1.6506,1.6653,1.7054,1.7983,1.817,1.8457,1.9052,1.9078,1.9052,1.9052,1.9165,1.9279,1.9366,1.9285,1.9085,1.8764,1.8497,1.8196,1.7856,1.7675,1.7582,1.7582,1.7582,1.7582,1.7569,1.7281,1.6987,1.6693,1.64,1.6106,1.5832,1.5832,1.5832,1.5832,1.5832,1.5832,1.5832,1.5832,1.5534,1.5045,1.3782,1.2425,1.1165,0.9801,0.8726,0.8038,0.8038,0.8038,0.8038,0.8038,0.8038,0.8038,0.8038,0.8038,0.8038,0.8038,0.8038,0.8038,0.8038,0.8038,0.8038,0.8038,0.8038,0.8038,0.8038,0.8038,0.8038,0.8038,0.8038,0.8038,0.8038,0.8038,0.798,0.7828,0.7851,0.7716,0.7309,0.7475,0.7499,0.7082,0.5062,0.4181,0.5009,0.1768,0.0,0.0,0.0,0.0,0.0,0.0,0.0,0.0,0.0,0.0,1.6727,1.7154,1.7522,1.7235,1.6493,1.5838,1.5838,1.5611,1.5398,1.5398,1.5631,1.5832,1.5832,1.5832,1.5832,1.5832,1.5832,1.5932,1.6239,1.6526,1.682,1.7128,1.7415,1.7829,1.8437,1.9025,1.9366,1.9366,1.9092,1.9058,1.9352,1.9092,1.9058,1.9352,1.851,1.819,1.8477,1.7883,1.7582,1.7582,1.7582,1.7582,1.7569,1.7281,1.6987,1.6693,1.64,1.6106,1.5832,1.5832,1.5832,1.5832,1.5832,1.5832,1.5832,1.5832,1.5045,1.368,1.2431,1.1068,0.9801,0.8432,0.8038,0.8038,0.8038,0.8038,0.8038,0.8038,0.8038,0.8038,0.8038,0.8038,0.8038,0.8038,0.8038,0.8038,0.8038,0.8038,0.8038,0.8038,0.8038,0.8038,0.8038,0.8038,0.8038,0.8038,0.8038,0.8038,0.8038,0.8038,0.798,0.7828,0.7946,0.7916,0.7621,0.7597,0.7453,0.7145,0.4889,0.2541,0.0185,0.0,0.0,0.0,0.0,0.0,0.0,0.0,0.0,0.0,0.0,0.0,1.6052,1.6393,1.662,1.6319,1.5738,1.5344,1.5738,1.5451,1.5211,1.5611,1.5765,1.5832,1.5832,1.5832,1.5832,1.5832,1.5832,1.5865,1.5952,1.6393,1.6887,1.7388,1.825,1.8878,1.9072,1.9259,1.9366,1.9366,1.9279,1.9265,1.9366,1.9279,1.9178,1.9065,1.8791,1.8597,1.849,1.8297,1.8103,1.7903,1.7903,1.7789,1.7582,1.7488,1.7288,1.6994,1.67,1.64,1.6119,1.5912,1.5832,1.5832,1.5832,1.5832,1.573,1.4854,1.4268,1.3584,1.1361,1.0391,0.9805,0.8432,0.8038,0.8038,0.8038,0.8038,0.8038,0.8038,0.8038,0.8038,0.8038,0.8038,0.8038,0.8038,0.8038,0.8038,0.8038,0.8038,0.8038,0.8038,0.8038,0.8038,0.8038,0.8038,0.8038,0.8038,0.8038,0.8038,0.8038,0.8038,0.8021,0.7974,0.8011,0.7919,0.7624,0.7689,0.7695,0.749,0.5023,0.2478,0.0096,0.0,0.0,0.0,0.0,0.0,0.0,0.0,0.0,0.0,0.0,0.0,1.5391,1.5718,1.5899,1.5712,1.5311,1.503,1.5277,1.5231,1.5197,1.5451,1.5678,1.5832,1.5832,1.5832,1.5832,1.5832,1.5832,1.5872,1.5979,1.6406,1.6927,1.7515,1.8444,1.9038,1.9038,1.9239,1.9366,1.9366,1.9265,1.9252,1.9359,1.9259,1.9165,1.9092,1.8985,1.8838,1.8657,1.8544,1.8343,1.805,1.805,1.7883,1.7582,1.7582,1.7361,1.6981,1.6907,1.658,0.0,1.6025,1.5925,1.5832,1.5832,1.5534,1.4949,1.4166,1.3295,1.2226,1.0583,0.9706,0.9118,0.8233,0.8038,0.8038,0.8038,0.8038,0.8038,0.8038,0.8038,0.8038,0.8038,0.8038,0.8038,0.8038,0.8038,0.8038,0.8038,0.8038,0.8038,0.8038,0.8038,0.8038,0.8038,0.8038,0.8038,0.8038,0.8038,0.8038,0.8038,0.8038,0.8038,0.8038,0.8038,0.7967,0.778,0.7855,0.7862,0.7746,0.6214,0.3705,0.0098,0.0,0.0,0.0,0.0,0.0,0.0,0.0,0.0,0.0,0.0,0.0,0.0,1.5097,1.5304,1.5304,1.5097,1.4836,1.4583,1.4943,0.0,1.5044,1.5424,1.5805,1.5825,1.5832,1.5832,1.5832,1.5832,1.5932,1.6233,1.6573,1.7007,1.7575,1.8183,1.8537,1.8497,1.9025,1.9366,1.9366,1.9112,1.9078,1.9352,1.9105,1.9085,1.9359,1.9078,1.8931,1.8951,1.8664,1.837,1.8076,1.8056,1.7883,1.7582,1.7582,1.7275,1.6754,1.7027,1.666,1.5879,1.6159,1.6099,1.5832,1.5832,1.5045,1.3872,1.3776,1.2129,0.9998,0.9903,0.9019,0.8038,0.8038,0.8038,0.8038,0.8038,0.8038,0.8038,0.8038,0.8038,0.8038,0.8038,0.8038,0.8038,0.8038,0.8038,0.8038,0.8038,0.8038,0.8038,0.8038,0.8038,0.8038,0.8038,0.8038,0.8038,0.8038,0.8038,0.8038,0.8038,0.8038,0.8038,0.8038,0.8038,0.8038,0.8041,0.7962,0.7922,0.7703,0.7939,0.5622,0.0197,0.0,0.0,0.0,0.0,0.0,0.0,0.0,0.0,0.0,0.0,0.0,1.4255,0.0,1.4396,1.4396,1.4342,1.4335,0.0,1.4623,1.4836,1.5217,1.5404,1.5565,1.5792,1.5832,1.5832,1.5832,1.5832,1.5932,1.6233,1.7101,1.7849,1.823,1.8804,1.8985,1.8537,1.9025,1.9366,1.9366,1.9299,1.9292,1.9366,1.9299,1.9292,1.9366,1.9078,1.9032,1.9259,1.8971,1.8671,1.8384,1.8156,1.7883,1.7582,1.7582,1.7388,1.7048,1.7121,1.6774,1.6172,1.6246,1.6099,1.5832,1.5832,1.5045,1.3782,1.2721,1.1361,0.9903,0.8821,0.8233,0.8038,0.8038,0.8038,0.8038,0.8038,0.8038,0.8038,0.8038,0.8038,0.8038,0.8038,0.8038,0.8038,0.8038,0.8038,0.8038,0.8038,0.8038,0.8038,0.8038,0.8038,0.8038,0.8038,0.8038,0.8038,0.8038,0.8038,0.8038,0.8038,0.8038,0.8038,0.8038,0.8038,0.8045,0.7962,0.7969,0.7144,0.5099,0.6862,0.5555,0.0201,0.0,0.0,0.0,0.0,0.0,0.0,0.0,0.0,0.0,0.0,0.0,1.4088,1.4088,1.4088,1.4088,1.4188,1.4295,1.4315,1.4529,1.4776,1.4957,1.5211,1.5444,1.5605,1.5738,1.5832,1.5832,1.5945,1.6186,1.6613,1.7221,1.7836,1.8424,1.8771,1.8945,1.8898,1.9178,1.9366,1.9366,1.9366,1.9366,1.9366,1.9366,1.9366,1.9366,1.9078,1.8998,1.9165,1.8871,1.8577,1.8283,1.8123,1.7883,1.7582,1.7582,1.7348,1.6954,1.7088,1.674,1.6079,1.6219,1.6099,1.573,1.5146,1.4172,1.2813,1.1556,1.019,0.9019,0.8237,0.8038,0.8038,0.8038,0.8038,0.8038,0.8038,0.8038,0.8038,0.8038,0.8038,0.8038,0.8038,0.8038,0.8038,0.8038,0.8038,0.8038,0.8038,0.8038,0.8038,0.8038,0.8038,0.8038,0.8038,0.8038,0.8038,0.8038,0.8038,0.8038,0.8038,0.8038,0.8038,0.8038,0.8048,0.7959,0.7972,0.7985,0.7381,0.5952,0.4849,0.303,0.0101,0.0,0.0,0.0,0.0,0.0,0.0,0.0,0.0,0.0,0.0,0.0,1.4021,1.4088,1.4142,1.4095,1.4269,1.4389,1.4142,1.4469,1.477,1.4563,1.495,1.5344,1.5391,1.5631,1.5832,1.5832,1.6152,1.6627,1.7268,1.7395,1.7689,1.8404,1.8571,1.8784,1.9199,1.9319,1.9366,1.9366,1.9366,1.9366,1.9366,1.9366,1.9366,1.9366,1.9038,1.8858,1.8858,1.8571,1.8323,1.8116,1.8016,1.7836,1.7582,1.7582,1.7261,1.672,1.7021,1.6647,1.5852,1.6152,1.5996,1.5432,1.4364,1.3006,1.1458,1.0391,0.9118,0.8038,0.8038,0.8038,0.8038,0.8038,0.8038,0.8038,0.8038,0.8038,0.8038,0.8038,0.8038,0.8038,0.8038,0.8038,0.8038,0.8038,0.8038,0.8038,0.8038,0.8038,0.8038,0.8038,0.8038,0.8038,0.8038,0.8038,0.8038,0.8038,0.8038,0.8038,0.8038,0.8038,0.8038,0.8038,0.7959,0.7869,0.7459,0.7798,0.8026,0.8029,0.2929,0.0,0.0,0.0,0.0,0.0,0.0,0.0,0.0,0.0,0.0,0.0,0.0,0.0,1.3707,1.4075,1.4396,1.4148,1.4122,1.4142,1.4095,1.4155,1.4282,1.4482,1.479,1.5104,1.5351,1.5631,1.5832,1.5832,1.65,1.7315,1.8163,1.8497,1.8611,1.8504,1.8931,1.9072,1.8664,1.9078,1.9366,1.9366,1.9366,1.9366,1.9366,1.9366,1.9366,1.9366,1.8838,1.8557,1.8557,1.8263,1.8217,1.8417,1.7903,1.7629,1.7582,1.7582,1.7261,1.672,1.7021,1.6647,1.5852,1.6152,1.5499,1.4166,1.3974,1.2425,1.0293,1.0096,0.9118,0.8038,0.8038,0.8038,0.8038,0.8038,0.8038,0.8038,0.8038,0.8038,0.8038,0.8038,0.8038,0.8038,0.8038,0.8038,0.8038,0.8038,0.8038,0.8038,0.8038,0.8038,0.8038,0.8038,0.8038,0.8038,0.8038,0.8038,0.8038,0.8038,0.8038,0.8038,0.8038,0.8038,0.8038,0.8038,0.7959,0.7054,0.4822,0.6673,0.8032,0.7951,0.2933,0.0,0.0,0.0,0.0,0.0,0.0,0.0,0.0,0.0,0.0,0.0,0.0,0.0,1.3601,1.3841,1.4088,1.4275,1.4322,1.4282,1.4122,1.4088,1.4168,1.4456,1.4756,1.5057,1.5344,1.5765,1.6226,1.67,1.7114,1.7582,1.8156,1.821,1.827,1.847,1.8731,1.8911,1.8958,1.9212,1.9366,1.9366,1.9366,1.9366,1.9366,1.9366,1.9366,1.9366,1.8798,1.8564,1.8724,1.811,1.7862,1.7996,1.7716,1.7582,1.7582,1.7422,1.7114,1.6714,1.6847,1.65,1.5757,1.535,1.4704,1.3776,1.2323,1.1068,0.9899,0.9217,0.8531,0.8038,0.8038,0.8038,0.8038,0.8038,0.8038,0.8038,0.8038,0.8038,0.8038,0.8038,0.8038,0.8038,0.8038,0.8038,0.8038,0.8038,0.8038,0.8038,0.8038,0.8038,0.8038,0.8038,0.8038,0.8038,0.8038,0.8038,0.8038,0.8038,0.8038,0.8038,0.8038,0.8038,0.8045,0.7955,0.7972,0.7475,0.6261,0.4645,0.3638,0.3644,0.1314,0.0,0.0,0.0,0.0,0.0,0.0,0.0,0.0,0.0,0.0,0.0,0.0,0.0,1.346,1.3641,1.3854,1.4309,1.4422,1.4396,1.4315,1.4242,1.4269,1.4563,1.4856,1.5137,1.5357,1.5879,1.656,1.7442,1.7642,1.7842,1.827,1.8143,1.817,1.8644,1.8698,1.8871,1.9325,1.9366,1.9366,1.9366,1.9305,1.9265,1.9265,1.9199,1.9165,1.9165,1.8657,1.849,1.8711,1.7956,1.7615,1.7689,1.7615,1.7582,1.7569,1.7281,1.6987,1.67,1.6633,1.6306,1.575,1.468,1.3854,1.3199,1.0872,0.9805,0.941,0.8333,0.8038,0.8038,0.8038,0.8038,0.8038,0.8038,0.8038,0.8038,0.8038,0.8038,0.8038,0.8038,0.8038,0.8038,0.8038,0.8038,0.8038,0.8038,0.8038,0.8038,0.8038,0.8038,0.8038,0.8038,0.8038,0.8038,0.8038,0.8038,0.8038,0.8038,0.8038,0.8038,0.8038,0.8038,0.8048,0.7972,0.7469,0.6768,0.6176,0.2323,0.0,0.0,0.0,0.0,0.0,0.0,0.0,0.0,0.0,0.0,0.0,0.0,0.0,0.0,0.0,0.0,1.316,1.3641,1.4062,1.4108,1.4122,1.4255,1.4783,1.4689,1.4569,1.487,1.5164,1.5371,1.5391,1.5879,1.656,1.7442,1.7822,1.831,1.9152,1.9252,1.9252,1.9299,1.9305,1.9319,1.9366,1.9366,1.9366,1.9366,1.9112,1.8958,1.8958,1.8698,1.8551,1.8551,1.8243,1.8076,1.8076,1.7749,1.7729,1.8009,1.7722,1.7582,1.7569,1.7281,1.6987,1.6693,1.642,1.6126,1.573,1.4478,1.3216,1.1945,1.0583,0.9217,0.8137,0.8038,0.8038,0.8038,0.8038,0.8038,0.8038,0.8038,0.8038,0.8038,0.8038,0.8038,0.8038,0.8038,0.8038,0.8038,0.8038,0.8038,0.8038,0.8038,0.8038,0.8038,0.8038,0.8038,0.8038,0.8038,0.8038,0.8038,0.8038,0.8038,0.8038,0.8038,0.8038,0.8038,0.8038,0.8038,0.8048,0.7972,0.5734,0.3317,0.0808,0.0202,0.0,0.0,0.0,0.0,0.0,0.0,0.0,0.0,0.0,0.0,0.0,0.0,0.0,0.0,0.0,0.0,1.308,1.3507,1.3895,1.4269,1.4355,1.4416,1.4636,1.4603,1.4656,1.5137,1.5464,1.5778,1.6139,1.654,1.7048,1.7742,1.827,1.8778,1.9292,1.9366,1.9366,1.9366,1.9366,1.9366,1.9366,1.9366,1.9366,1.9366,1.9265,1.9118,1.8931,1.8818,1.8677,1.8497,1.8203,1.8043,1.8036,1.7736,1.7642,1.7756,1.7642,1.7582,1.7569,1.7088,1.6814,1.6693,1.64,1.5706,1.4573,1.3464,1.2071,1.0583,0.9312,0.8432,0.8038,0.8038,0.8038,0.8038,0.8038,0.8038,0.8038,0.8038,0.8038,0.8038,0.8038,0.8038,0.8038,0.8038,0.8038,0.8038,0.8038,0.8038,0.8038,0.8038,0.8038,0.8038,0.8038,0.8038,0.8038,0.8038,0.8038,0.8038,0.8038,0.8038,0.8038,0.8038,0.8038,0.8038,0.8038,0.7952,0.7965,0.7982,0.4128,0.1109,0.0101,0.0,0.0,0.0,0.0,0.0,0.0,0.0,0.0,0.0,0.0,0.0,0.0,0.0,0.0,0.0,0.0,0.0,1.2926,1.328,1.3627,1.4115,1.4382,1.4543,1.4636,1.4663,1.4856,1.5531,1.5832,1.6119,1.6613,1.6874,1.7235,1.7916,1.8457,1.8925,1.9312,1.9366,1.9366,1.9366,1.9366,1.9366,1.9366,1.9366,1.9366,1.9366,1.9199,1.9005,1.8798,1.8604,1.841,1.821,1.8009,1.7903,1.7903,1.7689,1.7582,1.7582,1.7488,1.7495,1.7562,1.6974,1.6707,1.6687,1.5895,1.4927,1.3794,1.2304,1.0703,0.9312,0.8333,0.8038,0.8038,0.8038,0.8038,0.8038,0.8038,0.8038,0.8038,0.8038,0.8038,0.8038,0.8038,0.8038,0.8038,0.8038,0.8038,0.8038,0.8038,0.8038,0.8038,0.8038,0.8038,0.8038,0.8038,0.8038,0.8038,0.8038,0.8038,0.8038,0.8038,0.8038,0.8038,0.8038,0.8038,0.8038,0.8038,0.7959,0.7979,0.7999,0.3229,0.0,0.0,0.0,0.0,0.0,0.0,0.0,0.0,0.0,0.0,0.0,0.0,0.0,0.0,0.0,0.0,0.0,0.0,0.0,1.2741,1.2973,1.328,1.3574,1.4088,1.4596,1.4903,1.497,1.5211,1.6092,1.6279,1.6366,1.6653,1.6707,1.7001,1.7903,1.8297,1.8691,1.9279,1.9366,1.9366,1.9366,1.9366,1.9366,1.9366,1.9366,1.9366,1.9366,1.8824,1.849,1.849,1.7916,1.7589,1.7582,1.7582,1.7582,1.7582,1.7582,1.7582,1.7582,1.7288,1.7301,1.7555,1.6967,1.67,1.6567,1.4692,1.3872,1.368,1.1068,0.9217,0.8038,0.8038,0.8038,0.8038,0.8038,0.8038,0.8038,0.8038,0.8038,0.8038,0.8038,0.8038,0.8038,0.8038,0.8038,0.8038,0.8038,0.8038,0.8038,0.8038,0.8038,0.8038,0.8038,0.8038,0.8038,0.8038,0.8038,0.8038,0.8038,0.8038,0.8038,0.8038,0.8038,0.8038,0.8038,0.8038,0.8038,0.8038,0.7959,0.7985,0.7918,0.3131,0.0,0.0,0.0,0.0,0.0,0.0,0.0,0.0,0.0,0.0,0.0,0.0,0.0,0.0,0.0,0.0,0.0,0.0,0.0,1.2802,1.2973,1.3333,1.3828,1.4242,1.4649,1.515,1.511,1.5211,1.6092,1.6433,1.6667,1.6967,1.7014,1.7241,1.7936,1.8123,1.8384,1.8971,1.9058,1.9058,1.9058,1.9239,1.9366,1.9366,1.9366,1.9279,1.9072,1.8891,1.8617,1.8203,1.8003,1.7809,1.7589,1.7582,1.7582,1.7582,1.7582,1.7582,1.7582,1.7288,1.7194,1.7255,1.6667,1.5888,1.4961,1.4219,1.2904,1.1068,0.9312,0.8333,0.8038,0.8038,0.8038,0.8038,0.8038,0.8038,0.8038,0.8038,0.8038,0.8038,0.8038,0.8038,0.8038,0.8038,0.8038,0.8038,0.8038,0.8038,0.8038,0.8038,0.8038,0.8038,0.8038,0.8038,0.8038,0.8038,0.8038,0.8038,0.8038,0.8038,0.8038,0.8038,0.8038,0.8038,0.8038,0.8038,0.8048,0.7972,0.7995,0.6578,0.2726,0.0909,0.0,0.0,0.0,0.0,0.0,0.0,0.0,0.0,0.0,0.0,0.0,0.0,0.0,0.0,0.0,0.0,0.0,0.0,0.0,1.2788,1.2973,1.3353,1.3941,1.4396,1.4816,1.5291,1.5531,1.5805,1.6339,1.668,1.6974,1.7268,1.7228,1.7341,1.7936,1.8043,1.821,1.8684,1.8751,1.8751,1.8751,1.8911,1.9018,1.9018,1.9018,1.8945,1.8764,1.8644,1.8417,1.8063,1.7822,1.7655,1.7589,1.7355,1.7288,1.7408,1.7295,1.7235,1.7235,1.6941,1.6592,1.6055,1.5716,1.506,1.4242,1.291,1.1161,0.9118,0.8333,0.8038,0.8038,0.8038,0.8038,0.8038,0.8038,0.8038,0.8038,0.8038,0.8038,0.8038,0.8038,0.8038,0.8038,0.8038,0.8038,0.8038,0.8038,0.8038,0.8038,0.8038,0.8038,0.8038,0.8038,0.8038,0.8038,0.8038,0.8038,0.8038,0.8038,0.8038,0.8038,0.8038,0.8038,0.8038,0.8038,0.8048,0.7965,0.7999,0.8016,0.5972,0.0606,0.0,0.0,0.0,0.0,0.0,0.0,0.0,0.0,0.0,0.0,0.0,0.0,0.0,0.0,0.0,0.0,0.0,-0.0101,-0.2222,-0.3131,1.2748,1.2973,1.3353,1.3975,1.4589,1.511,1.5378,1.6092,1.67,1.6673,1.6947,1.7268,1.7535,1.7368,1.7368,1.7929,1.8009,1.811,1.841,1.845,1.845,1.845,1.8477,1.849,1.849,1.849,1.8477,1.8457,1.8196,1.8023,1.7969,1.7448,1.7255,1.7495,1.6981,1.6834,1.7108,1.684,1.6707,1.67,1.6308,1.5477,1.4289,1.4242,1.412,1.3715,1.1049,0.9118,0.8038,0.8038,0.8038,0.8038,0.8038,0.8038,0.8038,0.8038,0.8038,0.8038,0.8038,0.8038,0.8038,0.8038,0.8038,0.8038,0.8038,0.8038,0.8038,0.8038,0.8038,0.8038,0.8038,0.8038,0.8038,0.8038,0.8038,0.8038,0.8038,0.8038,0.8038,0.8038,0.8038,0.8038,0.8038,0.8038,0.8038,0.8041,0.7756,0.7679,0.8019,0.761,0.5363,0.0505,0.0,0.0,0.0,0.0,0.0,0.0,0.0,0.0,0.0,0.0,0.0,0.0,0.0,0.0,0.0,0.0,-0.0202,-0.0808,-0.577,-0.8022,1.2802,1.2973,1.3407,1.4222,1.5044,1.5658,1.5718,1.6239,1.664,1.6413,1.6967,1.7508,1.7569,1.7528,1.7609,1.7983,1.7842,1.7789,1.8103,1.8143,1.8143,1.8143,1.835,1.849,1.849,1.849,1.8397,1.8163,1.8083,1.7842,1.7368,1.7221,1.7074,1.6901,1.6774,1.6734,1.68,1.674,1.6707,1.67,1.5388,1.467,1.4447,1.4143,1.2883,1.0838,0.913,0.8233,0.8038,0.8038,0.8038,0.8038,0.8038,0.8038,0.8038,0.8038,0.8038,0.8038,0.8038,0.8038,0.8038,0.8038,0.8038,0.8038,0.8038,0.8038,0.8038,0.8038,0.8038,0.8038,0.8038,0.8038,0.8038,0.8038,0.8038,0.8038,0.8038,0.8038,0.8038,0.8038,0.8038,0.8038,0.8038,0.8038,0.8045,0.7962,0.6237,0.5639,0.7711,0.4345,0.1313,0.0101,0.0,0.0,0.0,0.0,0.0,0.0,0.0,0.0,0.0,0.0,0.0,0.0,0.0,0.0,0.0,0.0,-0.2121,-0.6279,-0.751,-0.8016,1.2886,1.3086,1.3454,1.4476,1.5284,1.5832,1.5832,1.6179,1.646,1.6306,1.6974,1.7542,1.7402,1.7488,1.7589,1.7615,1.7482,1.7428,1.7595,1.7615,1.7615,1.7615,1.7876,1.8056,1.8056,1.8056,1.7989,1.7836,1.7822,1.7689,1.7375,1.7088,1.6934,1.6921,1.6506,1.6353,1.65,1.575,1.5379,1.5379,1.3849,1.2865,1.2379,1.2147,1.101,0.9141,0.8368,0.8038,0.8038,0.8038,0.8038,0.8038,0.8038,0.8038,0.8038,0.8038,0.8038,0.8038,0.8038,0.8038,0.8038,0.8038,0.8038,0.8038,0.8038,0.8038,0.8038,0.8038,0.8038,0.8038,0.8038,0.8038,0.8038,0.8038,0.8038,0.8038,0.8038,0.8038,0.8038,0.8038,0.8038,0.8038,0.8038,0.8048,0.7962,0.7979,0.6762,0.545,0.4345,0.1716,0.0,0.0,0.0,0.0,0.0,0.0,0.0,0.0,0.0,0.0,0.0,0.0,0.0,0.0,0.0,0.0,-0.0,-0.2625,-0.526,-0.8026,-0.8009,-0.7995,1.2979,1.328,1.3694,1.477,1.5438,1.5832,1.5832,1.6059,1.6273,1.6273,1.6894,1.7355,1.7121,1.7268,1.7355,1.7114,1.7074,1.7074,1.7074,1.7074,1.7094,1.7141,1.7315,1.7448,1.7502,1.7462,1.7428,1.7428,1.7428,1.7408,1.7361,1.6894,1.672,1.6914,1.6213,1.585,1.5894,1.4569,1.3776,1.3584,1.2273,1.0927,0.976,0.9799,0.9252,0.8225,0.8096,0.8038,0.8038,0.8038,0.8038,0.8038,0.8038,0.8038,0.8038,0.8038,0.8038,0.8038,0.8038,0.8038,0.8038,0.8038,0.8038,0.8038,0.8038,0.8038,0.8038,0.8038,0.8038,0.8038,0.8038,0.8038,0.8038,0.8038,0.8038,0.8038,0.8038,0.8038,0.8038,0.8038,0.8038,0.8041,0.8045,0.7962,0.7979,0.7995,0.8012,0.6075,0.0707,0.0,0.0,0.0,0.0,0.0,0.0,0.0,0.0,0.0,0.0,0.0,0.0,0.0,0.0,0.0,0.0,-0.0505,-0.1414,-0.5871,-0.8022,-0.8016,-0.7985,-0.7972,1.2712,1.3561,1.4502,1.517,1.5585,1.5832,1.5832,1.6059,1.6273,1.6273,1.6567,1.6814,1.6774,1.68,1.6814,1.6774,1.6767,1.6767,1.6767,1.6767,1.686,1.7121,1.6954,1.6921,1.7181,1.6974,1.682,1.682,1.682,1.6714,1.646,1.6373,1.6233,1.6012,1.5892,1.5261,1.422,1.3992,1.3295,1.2139,1.0943,0.9734,0.8544,0.8561,0.8397,0.8069,0.8048,0.8038,0.8038,0.8038,0.8038,0.8038,0.8038,0.8038,0.8038,0.8038,0.8038,0.8038,0.8038,0.8038,0.8038,0.8038,0.8038,0.8038,0.8038,0.8038,0.8038,0.8038,0.8038,0.8038,0.8038,0.8038,0.8038,0.8038,0.8038,0.8038,0.8038,0.8038,0.8038,0.8038,0.8038,0.8045,0.7965,0.7972,0.7982,0.8016,0.8022,0.6075,0.0707,0.0,0.0,0.0,0.0,0.0,0.0,0.0,0.0,0.0,0.0,0.0,0.0,0.0,0.0,0.0,0.0,-0.2322,-0.6894,-0.7613,-0.8009,-0.7979,-0.7975,-0.7962,1.2879,1.3627,1.4416,1.501,1.5371,1.5631,1.5792,1.5925,1.6025,1.6025,1.6126,1.6266,1.6433,1.66,1.6653,1.6486,1.6466,1.6466,1.6466,1.6466,1.6513,1.664,1.6687,1.676,1.6887,1.678,1.6707,1.6707,1.6707,1.6653,1.652,1.6359,1.6213,1.6079,1.5919,1.5146,1.3878,1.3102,1.1745,0.9706,0.9187,0.8632,0.814,0.814,0.815,0.8163,0.8075,0.8038,0.8038,0.8038,0.8038,0.8038,0.8038,0.8038,0.8038,0.8038,0.8038,0.8038,0.8038,0.8038,0.8038,0.8038,0.8038,0.8038,0.8038,0.8038,0.8038,0.8038,0.8038,0.8038,0.8038,0.8038,0.8038,0.8038,0.8038,0.8038,0.8038,0.8038,0.8038,0.8038,0.8038,0.8045,0.7969,0.6748,0.6247,0.7815,0.5464,0.2625,0.0303,0.0,0.0,0.0,0.0,0.0,0.0,0.0,0.0,0.0,0.0,0.0,0.0,0.0,-0.1414,-0.4448,-0.4448,-0.5667,-0.8026,-0.8006,-0.7989,-0.7972,-0.7959,-0.8048,1.2946,1.3527,1.4095,1.4616,1.5017,1.5364,1.5651,1.5718,1.5738,1.5812,1.5832,1.5899,1.6119,1.6339,1.6413,1.6192,1.6159,1.6159,1.6159,1.6159,1.6186,1.6266,1.64,1.6513,1.6587,1.6526,1.648,1.648,1.648,1.6282,1.5972,1.5778,1.5564,1.5168,1.4961,1.4172,1.2909,1.1551,0.9899,0.8038,0.8038,0.8038,0.8038,0.8038,0.8102,0.8204,0.8089,0.8038,0.8038,0.8038,0.8038,0.8038,0.8038,0.8038,0.8038,0.8038,0.8038,0.8038,0.8038,0.8038,0.8038,0.8038,0.8038,0.8038,0.8038,0.8038,0.8038,0.8038,0.8038,0.8038,0.8038,0.8038,0.8038,0.8038,0.8038,0.8038,0.8038,0.8038,0.8041,0.8045,0.8048,0.7955,0.7982,0.635,0.524,0.5869,0.2524,0.0,0.0,0.0,0.0,0.0,0.0,0.0,0.0,0.0,0.0,0.0,0.0,0.0,0.0,-0.1313,-0.394,-0.7922,-0.8016,-0.8012,-0.8012,-0.7985,-0.7969,-0.7965,-0.8048,-0.8038,1.2761,1.3206,1.3741,1.4055,1.4563,1.5064,1.5351,1.5418,1.5498,1.5772,1.5832,1.5832,1.5845,1.5865,1.5872,1.5852,1.5852,1.5852,1.5852,1.5852,1.5959,1.6239,1.6039,1.5985,1.6266,1.6039,1.5872,1.5872,1.5872,1.5287,1.4112,1.3998,1.3414,1.216,1.2145,1.1458,1.0194,0.892,0.8137,0.8038,0.8038,0.8038,0.8038,0.8038,0.8041,0.8052,0.8041,0.8038,0.8038,0.8038,0.8038,0.8038,0.8038,0.8038,0.8038,0.8038,0.8038,0.8038,0.8038,0.8038,0.8038,0.8038,0.8038,0.8038,0.8038,0.8038,0.8038,0.8038,0.8038,0.8038,0.8038,0.8038,0.8038,0.8038,0.8038,0.8038,0.8038,0.8038,0.8045,0.7965,0.7972,0.7982,0.8016,0.7918,0.6075,0.1111,0.0202,0.0,0.0,0.0,0.0,0.0,0.0,0.0,0.0,0.0,0.0,0.0,0.0,0.0,0.0,-0.4855,-0.7717,-0.8026,-0.7992,-0.7975,-0.7975,-0.7975,-0.7962,-0.8041,-0.8038,-0.8038,1.2331,1.2619,1.2993,1.3868,1.4242,1.4529,1.501,1.5264,1.5424,1.5531,1.5698,1.5832,1.5832,1.5832,1.5832,1.5832,1.5832,1.5832,1.5832,1.5832,1.5872,1.5979,1.5892,1.558,1.4793,1.4617,1.4172,1.3403,1.3307,1.3108,1.2624,1.2624,1.2431,1.195,1.1945,1.1263,0.9998,0.8627,0.8038,0.8038,0.8038,0.8038,0.8038,0.8038,0.8038,0.8038,0.8038,0.8038,0.8038,0.8038,0.8038,0.8038,0.8038,0.8038,0.8038,0.8038,0.8038,0.8038,0.8038,0.8038,0.8038,0.8038,0.8038,0.8038,0.8038,0.8038,0.8038,0.8038,0.8038,0.8038,0.8038,0.8038,0.8041,0.7959,0.7965,0.7972,0.7972,0.7965,0.7965,0.7982,0.6648,0.5942,0.7711,0.8026,0.6178,0.0808,0.0,0.0,0.0,0.0,0.0,0.0,0.0,0.0,0.0,0.0,0.0,0.0,0.0,0.0,0.0,-0.5159,-0.8019,-0.8002,-0.7982,-0.7972,-0.7972,-0.7959,-0.8048,-0.8038,-0.8038,-0.8038,1.2024,1.2225,1.2545,1.3547,1.3868,1.4068,1.4556,1.4897,1.5104,1.5104,1.5331,1.5538,1.5538,1.5538,1.5605,1.5798,1.5832,1.5832,1.5832,1.5832,1.5832,1.5832,1.5439,1.4854,1.3974,1.3414,1.2822,1.194,1.1809,1.1596,1.1258,1.1196,1.0997,1.0578,1.0583,1.019,0.9316,0.8432,0.8038,0.8038,0.8038,0.8038,0.8038,0.8038,0.8038,0.8038,0.8038,0.8038,0.8038,0.8038,0.8038,0.8038,0.8038,0.8038,0.8038,0.8038,0.8038,0.8038,0.8038,0.8038,0.8038,0.8038,0.8038,0.8038,0.8038,0.8038,0.8038,0.8038,0.8045,0.7952,0.7952,0.7952,0.7753,0.6848,0.6651,0.6862,0.7795,0.7272,0.6956,0.7795,0.6564,0.5345,0.5358,0.5363,0.4144,0.0505,0.0,0.0,0.0,0.0,0.0,0.0,0.0,0.0,0.0,0.0,0.0,0.0,-0.1716,-0.2726,-0.2726,-0.6067,-0.8002,-0.7985,-0.7969,-0.7962,-0.7962,-0.8045,-0.8038,-0.8038,-0.8038,-0.8038,0.0,0.0,0.0,1.3033,1.34,1.3694,1.4008,1.4295,1.4496,1.4502,1.4743,1.495,1.495,1.4957,1.515,1.5712,1.5805,1.5805,1.5805,1.5717,1.5717,1.5717,1.4644,1.3861,1.3765,1.249,1.1692,1.1726,1.1526,1.1007,0.9981,0.9824,0.9231,0.8035,0.8038,0.8038,0.8038,0.8038,0.8038,0.8038,0.8038,0.8038,0.8038,0.8038,0.8038,0.8038,0.8038,0.8038,0.8038,0.8038,0.8038,0.8038,0.8038,0.8038,0.8038,0.8038,0.8038,0.8038,0.8038,0.8038,0.8038,0.8038,0.8038,0.8038,0.8038,0.8041,0.8041,0.8041,0.7955,0.7972,0.7872,0.7979,0.7372,0.4724,0.4017,0.4728,0.7403,0.5954,0.483,0.7299,0.7717,0.6078,0.0909,0.0,0.0,0.0,0.0,0.0,0.0,0.0,0.0,0.0,0.0,0.0,0.0,0.0,-0.0101,-0.0202,-0.5157,-0.8026,-0.8022,-0.7992,-0.7972,-0.7972,-0.7952,-0.8038,-0.8038,-0.8038,-0.8038,-0.8038,-0.8038,-0.8038,1.1156,0.0,0.0,0.0,0.0,0.0,1.3647,1.3828,1.3948,1.4162,1.4436,1.4643,1.4643,1.4823,1.5017,1.5177,1.5204,1.5204,1.5204,1.4526,1.4072,1.4072,1.3031,1.1983,1.1029,1.0462,0.9772,0.901,0.8841,0.8787,0.8517,0.8484,0.8386,0.8038,0.8038,0.8038,0.8038,0.8038,0.8038,0.8038,0.8038,0.8038,0.8038,0.8038,0.8038,0.8038,0.8038,0.8038,0.8038,0.8038,0.8038,0.8038,0.8038,0.8038,0.8038,0.8038,0.8038,0.8038,0.8038,0.8038,0.8038,0.8038,0.8038,0.8041,0.7959,0.7962,0.7965,0.7972,0.7979,0.7572,0.5632,0.6561,0.7808,0.7086,0.5459,0.4754,0.7428,0.7425,0.5979,0.2828,0.2221,0.1716,0.0303,0.0,0.0,0.0,0.0,0.0,0.0,0.0,0.0,0.0,0.0,0.0,0.0,0.0,-0.1615,-0.5564,-0.7202,-0.8019,-0.8002,-0.7982,-0.7972,-0.7972,-0.7952,-0.8038,-0.8038,-0.8038,-0.8038,-0.8038,-0.8038,-0.8038,1.0915,1.1209,1.157,1.2158,0.0,0.0,1.3033,1.328,1.344,1.336,1.3674,1.3975,1.3975,1.4115,1.4275,1.4396,1.405,1.3999,1.491,1.3987,1.3373,1.338,1.1884,1.0663,0.9905,0.9173,0.8464,0.7811,0.7604,0.76,0.7753,0.7821,0.7855,0.7855,0.7913,0.7943,0.7943,0.8007,0.8038,0.8038,0.8038,0.8038,0.8038,0.8048,0.7952,0.7952,0.7959,0.7962,0.7962,0.7962,0.7959,0.7952,0.7952,0.7955,0.7962,0.7962,0.7962,0.7962,0.7962,0.7962,0.7962,0.7962,0.7962,0.7962,0.7975,0.726,0.6342,0.6348,0.7172,0.708,0.3321,0.3528,0.4649,0.4649,0.3436,0.2731,0.4356,0.4663,0.3745,0.0606,0.0,0.0,0.0,0.0,0.0,0.0,0.0,0.0,0.0,0.0,0.0,0.0,0.0,-0.0909,-0.3131,-0.3334,-0.4241,-0.6163,-0.7387,-0.7999,-0.7982,-0.7969,-0.7959,-0.7959,-0.8045,-0.8038,-0.8038,-0.8038,-0.8038,-0.8038,-0.8038,-0.8038,1.0882,1.1182,1.155,1.2078,1.2452,0.0,1.2405,1.2746,1.2888,1.2302,1.2626,1.2916,1.2837,1.2863,1.2968,1.3215,1.2352,1.2457,1.4382,1.3609,1.2791,1.291,1.0966,0.956,0.956,0.8284,0.7556,0.7573,0.7336,0.7251,0.739,0.7526,0.76,0.76,0.7723,0.7787,0.7787,0.7923,0.7991,0.7991,0.8014,0.8021,0.8024,0.7959,0.7872,0.7563,0.7572,0.7578,0.7578,0.7578,0.7775,0.7975,0.7666,0.7569,0.7578,0.7578,0.7578,0.7578,0.7578,0.7578,0.7578,0.7578,0.7578,0.7578,0.7892,0.635,0.4321,0.3717,0.5244,0.5974,0.1212,0.0,0.0,0.0,0.0,0.0,0.0,0.0,0.0,0.0,0.0,0.0,0.0,0.0,0.0,0.0,0.0,0.0,0.0,0.0,0.0,0.0,-0.0505,-0.2827,-0.7613,-0.8022,-0.698,-0.4622,-0.6645,-0.7972,-0.7969,-0.8048,-0.8038,-0.8038,-0.8038,-0.8038,-0.8038,-0.8038,-0.8038,-0.8038,-0.8038,-0.8038,1.0695,1.1022,1.1456,1.157,1.1997,0.0,1.2694,1.2565,1.2287,1.156,1.151,1.1349,1.0556,1.0641,1.0783,1.0832,1.0744,1.1226,1.2605,1.1154,0.9944,0.9976,0.8726,0.7912,0.7912,0.7497,0.7282,0.7407,0.7475,0.7522,0.7553,0.7584,0.76,0.76,0.7628,0.7641,0.7641,0.7682,0.7798,0.7798,0.7945,0.8014,0.8017,0.8035,0.6856,0.4822,0.4822,0.4824,0.4824,0.4824,0.6042,0.7782,0.5634,0.4822,0.4824,0.4824,0.4824,0.4824,0.4824,0.4824,0.4824,0.4824,0.4824,0.5231,0.7394,0.7604,0.6271,0.2017,0.111,0.1313,0.0303,0.0,0.0,0.0,0.0,0.0,0.0,0.0,0.0,0.0,0.0,0.0,0.0,0.0,0.0,0.0,0.0,0.0,0.0,0.0,0.0,0.0,-0.384,-0.6894,-0.7922,-0.8009,-0.7785,-0.7256,-0.7666,-0.7965,-0.8045,-0.8041,-0.8038,-0.8038,-0.8038,-0.8038,-0.8038,-0.8038,-0.8038,-0.8038,-0.8038,-0.8038,1.0679,1.0989,1.1276,1.1577,1.1864,0.0,0.0,1.2305,1.2042,1.1123,1.0913,1.0718,0.9756,0.9703,0.978,0.9994,0.9538,0.9523,1.0459,0.9662,0.9055,0.9054,0.8087,0.737,0.737,0.7299,0.7255,0.7255,0.7329,0.737,0.737,0.737,0.7377,0.7387,0.7461,0.7413,0.732,0.7594,0.7051,0.5894,0.5924,0.5984,0.6087,0.7425,0.7284,0.5851,0.312,0.2719,0.4033,0.4033,0.556,0.7818,0.6469,0.4332,0.2013,0.2013,0.2013,0.2013,0.2013,0.2013,0.2013,0.2013,0.2013,0.2215,0.3635,0.4041,0.3435,0.0707,0.0,0.0,0.0,0.0,0.0,0.0,0.0,0.0,0.0,0.0,0.0,0.0,0.0,0.0,0.0,0.0,0.0,0.0,0.0,-0.101,-0.3636,-0.394,-0.3432,-0.2114,-0.4433,-0.6564,-0.7895,-0.7989,-0.7975,-0.7959,-0.7955,-0.7952,-0.8038,-0.8038,-0.8038,-0.8038,-0.8038,-0.8038,-0.8038,-0.8038,-0.8038,-0.8038,-0.8038,-0.8333,1.0269,1.0568,1.0714,1.1166,1.1325,1.1369,0.0,0.0,0.0,1.0271,1.0115,0.9943,0.9053,0.8798,0.8798,0.9124,0.8386,0.7939,0.8377,0.8495,0.8605,0.8779,0.7941,0.7309,0.7366,0.7346,0.7261,0.7109,0.7041,0.7048,0.7017,0.7044,0.7071,0.7088,0.6834,0.6618,0.6441,0.7124,0.6514,0.461,0.3642,0.3198,0.331,0.5483,0.6461,0.6178,0.1918,0.1212,0.3237,0.3237,0.4459,0.6505,0.6488,0.3838,0.0,0.0,0.0,0.0,0.0,0.0,0.0,0.0,0.0,0.0,0.0,0.0,0.0,0.0,0.0,0.0,0.0,0.0,0.0,0.0,-0.0808,-0.1515,-0.1515,-0.111,-0.0807,-0.0807,-0.0807,-0.0605,-0.0101,-0.0808,-0.1515,-0.1515,-0.111,-0.2319,-0.6681,-0.7708,-0.7187,-0.5029,-0.4722,-0.5632,-0.7769,-0.7969,-0.7959,-0.8041,-0.8038,-0.8038,-0.8038,-0.8038,-0.8038,-0.8038,-0.8038,-0.8137,-0.8432,-0.8432,-0.8432,-0.8432,-0.8432,-0.9118,0.8699,0.8857,0.9093,0.9145,0.9395,0.9557,0.9557,0.0,0.9372,0.8313,0.0,0.7863,0.6817,0.0,0.0,0.6687,0.6753,0.6857,0.6909,0.7146,0.7375,0.7531,0.7228,0.7082,0.7346,0.7248,0.7105,0.6963,0.7001,0.7021,0.6887,0.7017,0.7098,0.7101,0.5109,0.4032,0.4034,0.6059,0.6998,0.6722,0.2489,0.047,0.0478,0.0781,0.0895,0.0909,0.0303,0.0202,0.0404,0.0404,0.0606,0.0909,0.0909,0.0505,0.0,0.0,0.0,0.0,0.0,0.0,0.0,0.0,0.0,0.0,0.0,0.0,0.0,0.0,0.0,0.0,0.0,0.0,0.0,0.0,-0.3636,-0.7098,-0.7098,-0.5244,-0.3516,-0.3516,-0.3516,-0.2815,-0.0404,-0.394,-0.7098,-0.7098,-0.5039,-0.3717,-0.4422,-0.6556,-0.7889,-0.7578,-0.7569,-0.7666,-0.7972,-0.7955,-0.8041,-0.8038,-0.8038,-0.8038,-0.8038,-0.8038,-0.8038,-0.8038,-0.8038,-0.8627,-0.9805,-0.9805,-0.9805,-0.9805,-0.9805,-1.0485,0.8538,0.8633,0.8672,0.9005,0.9045,0.9055,0.9266,0.9296,0.9027,0.8143,0.0,0.0,0.0,0.0,0.0,0.0,0.6488,0.663,0.6807,0.6787,0.6875,0.72,0.7126,0.7068,0.7112,0.6974,0.688,0.682,0.6877,0.6285,0.5024,0.5038,0.5728,0.7082,0.6166,0.4304,0.1522,0.2513,0.2966,0.2966,0.0916,0.0,0.0,0.0,0.0,0.0,0.0,0.0,0.0,0.0,0.0,0.0,0.0,0.0,0.0,0.0,0.0,0.0,0.0,0.0,0.0,0.0,-0.212,-0.4649,-0.4649,-0.353,-0.2314,-0.2314,-0.2314,-0.2314,-0.2314,-0.2314,-0.2314,-0.2314,-0.4026,-0.6155,-0.7695,-0.7071,-0.6348,-0.6348,-0.6348,-0.5947,-0.4841,-0.5242,-0.6258,-0.7798,-0.7071,-0.6348,-0.6342,-0.7263,-0.7975,-0.7962,-0.7955,-0.7952,-0.7952,-0.8045,-0.8038,-0.8038,-0.8038,-0.8038,-0.8038,-0.8038,-0.8038,-0.8038,-0.8726,-0.941,-0.9998,-1.0779,-1.1458,-1.2231,-1.1458,-1.1848,0.7934,0.7979,0.7943,0.8392,0.8271,0.8193,0.8429,0.8466,0.8277,0.7634,0.7488,0.0,0.0,0.0,0.6295,0.6396,0.0,0.6566,0.6827,0.6675,0.6702,0.7149,0.721,0.7156,0.701,0.683,0.6494,0.5972,0.6452,0.6129,0.4457,0.3238,0.3374,0.51,0.5151,0.3486,0.0,0.0,0.0,0.0,0.0,0.0,0.0,0.0,0.0,0.0,0.0,0.0,0.0,0.0,-0.0905,-0.222,-0.2209,-0.1707,-0.121,-0.1919,-0.2223,-0.2222,-0.2222,-0.1715,-0.1109,-0.1109,-0.3731,-0.7086,-0.7808,-0.6667,-0.5129,-0.5129,-0.5129,-0.5129,-0.5129,-0.5129,-0.5129,-0.5129,-0.5127,-0.5632,-0.7572,-0.7979,-0.7975,-0.7975,-0.7975,-0.7975,-0.7975,-0.6342,-0.5734,-0.7675,-0.7979,-0.7972,-0.7965,-0.7965,-0.7959,-0.8041,-0.8038,-0.8038,-0.8038,-0.8038,-0.8038,-0.8038,-0.8038,-0.8137,-0.8531,-0.8528,-0.8726,-0.9019,-0.9998,-1.0681,-1.1068,-1.1879,-1.3008,-1.426,-1.3075,-1.3165,0.6405,0.6402,0.6402,0.6412,0.6409,0.6409,0.6412,0.6412,0.6416,0.6345,0.6342,0.6338,0.6345,0.6264,0.6264,0.6345,0.6383,0.0,0.0,0.6698,0.6858,0.7312,0.7383,0.7336,0.7091,0.6815,0.5897,0.3869,0.5766,0.6843,0.626,0.2357,0.0172,0.0269,0.0264,0.0176,0.0,0.0,0.0,0.0,0.0,0.0,0.0,0.0,0.0,0.0,0.0,0.0,0.0,0.0,-0.3079,-0.7701,-0.7763,-0.6163,-0.4221,-0.6802,-0.7733,-0.7717,-0.7717,-0.6057,-0.3915,-0.3915,-0.4016,-0.4622,-0.7169,-0.7989,-0.7885,-0.7885,-0.7885,-0.7885,-0.7885,-0.7885,-0.7885,-0.7885,-0.7879,-0.7872,-0.7972,-0.7955,-0.8041,-0.8041,-0.8041,-0.8041,-0.8041,-0.7959,-0.7872,-0.7972,-0.7955,-0.8041,-0.8041,-0.8041,-0.8038,-0.8038,-0.8038,-0.8038,-0.8038,-0.8038,-0.8038,-0.8038,-0.8038,-0.8627,-0.9899,-0.9899,-1.0485,-1.175,-1.1848,-1.2522,-1.3776,-1.3526,-1.4068,-1.5319,-1.4343,-1.442,0.6427,0.64,0.638,0.6285,0.6338,0.6338,0.6338,0.6338,0.6338,0.6338,0.6338,0.6338,0.6338,0.6338,0.6291,0.6386,0.6525,0.6641,0.0,0.6709,0.6736,0.6716,0.68,0.6959,0.693,0.5294,0.4592,0.5369,0.3516,0.2351,0.2172,0.0745,0.0,0.0,0.0,0.0,0.0,0.0,0.0,0.0,0.0,0.0,0.0,0.0,0.0,0.0,0.0,-0.1807,-0.4728,-0.4728,-0.4973,-0.5541,-0.7306,-0.7464,-0.6553,-0.5648,-0.5345,-0.5644,-0.7384,-0.7378,-0.6656,-0.6656,-0.6651,-0.6848,-0.7772,-0.7969,-0.7955,-0.7955,-0.7955,-0.7955,-0.7955,-0.7955,-0.7955,-0.7955,-0.7952,-0.7952,-0.7952,-0.8045,-0.8038,-0.8038,-0.8038,-0.8038,-0.8038,-0.8045,-0.7952,-0.7952,-0.8045,-0.8038,-0.8038,-0.8038,-0.8038,-0.8038,-0.8038,-0.8038,-0.8038,-0.8038,-0.8333,-0.9312,-0.9312,-0.9899,-1.1165,-1.1268,-1.1463,-1.1848,-1.2813,-1.3494,-1.3878,-1.4478,-1.4922,-1.5398,-1.4825,-1.4826,0.659,0.6563,0.6529,0.6307,0.6274,0.6339,0.6281,0.6268,0.6268,0.6268,0.6268,0.6331,0.6283,0.6285,0.6349,0.6417,0.6589,0.6702,0.0,0.6021,0.5524,0.5208,0.6179,0.6891,0.6891,0.3936,0.2543,0.3987,0.1509,0.0,0.0,0.0,0.0,0.0,0.0,0.0,0.0,0.0,0.0,0.0,0.0,0.0,0.0,0.0,-0.0905,-0.2564,-0.2491,-0.3823,-0.5959,-0.6875,-0.6446,-0.5422,-0.7193,-0.7841,-0.7625,-0.5869,-0.5277,-0.5579,-0.7341,-0.7972,-0.7972,-0.7972,-0.7965,-0.7962,-0.7962,-0.7952,-0.8038,-0.8038,-0.8038,-0.8038,-0.8038,-0.8038,-0.8038,-0.8038,-0.8038,-0.8038,-0.8038,-0.8038,-0.8038,-0.8038,-0.8038,-0.8038,-0.8038,-0.8038,-0.8038,-0.8038,-0.8038,-0.8038,-0.8038,-0.8038,-0.8038,-0.8038,-0.8038,-0.8237,-0.8627,-0.9114,-0.9801,-1.0583,-1.0681,-1.1263,-1.2522,-1.2624,-1.2818,-1.3301,-1.4082,-1.442,-1.4413,-1.4897,-1.5084,-1.5077,-1.4783,-1.4656]}]]